[[{"header":{"parameterUnit":"m.s-1","parameterCategory":1,"la1":30.6,"la2":29.2853,"lo1":-89.7004,"lo2":-87.6739,"dy":0.0162,"dx":0.0183,"nx":112,"ny":82,"refTime":"2024-09-28T06:00:00:Z","depth":0,"parameterNumber":2,"parameterNumberName":"U-component_of_WINDS"},"data":[0.0,0.0,0.0,0.0,0.0,0.0,0.0,0.0,0.0,0.0,0.0,0.0,0.0,0.0,0.0,0.0,0.0,0.0,0.0,0.0,0.0,0.0,0.0,0.0,0.0,0.0,0.0,0.0,0.0,0.0,0.0,0.0,0.0,0.0,0.0,0.0,0.0,0.0,0.0,0.0,0.0,0.0,0.0,0.0,0.0,0.0,0.0,0.0,0.0,0.0,0.0,0.0,0.0,0.0,0.0,0.0,0.0,0.0,0.0,0.0,0.0,0.0,0.0,0.0,0.0,0.0,0.0,0.0,0.0,0.0,0.0,0.0,0.0,0.0,0.0,0.0,0.0,0.0,0.0,0.0,0.0,0.0,0.0,0.0,0.0,0.0,0.0,0.0,0.0,0.0,-1.9546,-2.0177,-2.2316,-2.4036,-2.4707,-2.3963,-2.275,-2.0878,0.0,0.0,0.0,0.0,0.0,0.0,0.0,0.0,0.0,0.0,0.0,0.0,0.0,0.0,0.0,0.0,0.0,0.0,0.0,0.0,0.0,0.0,0.0,0.0,0.0,0.0,0.0,0.0,0.0,0.0,0.0,0.0,0.0,0.0,0.0,0.0,0.0,0.0,0.0,0.0,0.0,0.0,0.0,0.0,0.0,0.0,0.0,0.0,0.0,0.0,0.0,0.0,0.0,0.0,0.0,0.0,0.0,0.0,0.0,0.0,0.0,0.0,0.0,0.0,0.0,0.0,0.0,0.0,0.0,0.0,0.0,0.0,0.0,0.0,0.0,0.0,0.0,0.0,0.0,0.0,0.0,0.0,0.0,0.0,0.0,0.0,0.0,0.0,0.0,0.0,0.0,0.0,0.0,0.0,0.0,0.0,0.0,0.0,0.0,0.0,0.0,0.0,0.0,0.0,-1.9939,-2.1549,-2.3554,-2.4492,-2.3818,-2.3588,-2.275,-2.0878,0.0,0.0,0.0,0.0,0.0,0.0,0.0,0.0,0.0,0.0,0.0,0.0,0.0,0.0,0.0,0.0,0.0,0.0,0.0,0.0,0.0,0.0,0.0,0.0,0.0,0.0,0.0,0.0,0.0,0.0,0.0,0.0,0.0,0.0,0.0,0.0,0.0,0.0,0.0,0.0,0.0,0.0,0.0,0.0,0.0,0.0,0.0,0.0,0.0,0.0,0.0,0.0,0.0,0.0,0.0,0.0,0.0,0.0,0.0,0.0,0.0,0.0,0.0,0.0,0.0,0.0,0.0,0.0,0.0,0.0,0.0,0.0,0.0,0.0,0.0,0.0,0.0,0.0,0.0,0.0,0.0,0.0,0.0,0.0,0.0,0.0,0.0,0.0,0.0,0.0,0.0,0.0,0.0,0.0,0.0,0.0,0.0,0.0,0.0,0.0,0.0,0.0,0.0,-1.9875,-2.101,-2.2626,-2.3672,-2.4409,-2.5063,-2.3661,-2.2375,-2.164,-1.9471,0.0,0.0,0.0,0.0,0.0,0.0,0.0,0.0,0.0,0.0,0.0,0.0,0.0,0.0,0.0,0.0,0.0,0.0,0.0,0.0,0.0,0.0,0.0,0.0,0.0,0.0,0.0,0.0,0.0,0.0,0.0,0.0,0.0,0.0,0.0,0.0,0.0,0.0,0.0,0.0,0.0,0.0,0.0,0.0,0.0,0.0,0.0,0.0,0.0,0.0,0.0,0.0,0.0,0.0,0.0,0.0,0.0,0.0,0.0,0.0,0.0,0.0,0.0,0.0,0.0,0.0,0.0,0.0,0.0,0.0,0.0,0.0,0.0,0.0,0.0,0.0,0.0,0.0,0.0,0.0,0.0,0.0,0.0,0.0,0.0,0.0,0.0,0.0,0.0,0.0,0.0,0.0,0.0,0.0,0.0,0.0,0.0,0.0,0.0,0.0,0.0,0.0,-2.1123,-2.2431,-2.3419,-2.3952,-2.4612,-2.5721,-2.3507,-2.1865,-2.1385,-1.9022,0.0,0.0,0.0,0.0,0.0,0.0,0.0,0.0,0.0,0.0,0.0,0.0,0.0,0.0,0.0,0.0,0.0,0.0,0.0,0.0,0.0,0.0,0.0,0.0,0.0,0.0,0.0,0.0,0.0,0.0,0.0,0.0,0.0,0.0,0.0,0.0,0.0,0.0,0.0,0.0,0.0,0.0,0.0,0.0,0.0,0.0,0.0,0.0,0.0,0.0,0.0,0.0,0.0,0.0,0.0,0.0,0.0,0.0,0.0,0.0,0.0,0.0,0.0,0.0,0.0,0.0,0.0,0.0,0.0,0.0,0.0,0.0,0.0,0.0,0.0,0.0,0.0,0.0,0.0,0.0,0.0,0.0,0.0,0.0,0.0,0.0,0.0,0.0,0.0,0.0,0.0,0.0,0.0,0.0,0.0,0.0,0.0,0.0,0.0,0.0,0.0,0.0,-2.2062,-2.3846,-2.3559,-2.5205,-2.5569,-2.3891,-2.2756,-2.1246,-1.8973,-1.7576,0.0,0.0,0.0,0.0,0.0,0.0,0.0,0.0,0.0,0.0,0.0,0.0,0.0,0.0,0.0,0.0,0.0,0.0,0.0,0.0,0.0,0.0,0.0,0.0,0.0,0.0,0.0,0.0,0.0,0.0,0.0,0.0,0.0,0.0,0.0,0.0,0.0,0.0,0.0,0.0,0.0,0.0,0.0,0.0,0.0,0.0,0.0,0.0,0.0,0.0,0.0,0.0,0.0,0.0,0.0,0.0,0.0,0.0,0.0,0.0,0.0,0.0,0.0,0.0,0.0,0.0,0.0,0.0,0.0,0.0,0.0,0.0,0.0,0.0,0.0,0.0,0.0,0.0,0.0,0.0,0.0,0.0,0.0,0.0,0.0,0.0,0.0,0.0,0.0,0.0,0.0,0.0,0.0,0.0,0.0,0.0,0.0,0.0,0.0,0.0,0.0,0.0,-2.1331,-2.2746,-2.2563,-2.3209,-2.3649,-2.3514,-2.1816,-2.0432,-1.9561,0.0,0.0,0.0,0.0,0.0,0.0,0.0,0.0,0.0,0.0,0.0,0.0,0.0,0.0,0.0,0.0,0.0,0.0,0.0,0.0,0.0,0.0,0.0,0.0,0.0,0.0,0.0,0.0,0.0,0.0,0.0,0.0,0.0,0.0,0.0,0.0,0.0,0.0,0.0,0.0,0.0,0.0,0.0,0.0,0.0,0.0,0.0,0.0,0.0,0.0,0.0,0.0,0.0,0.0,0.0,0.0,0.0,0.0,0.0,0.0,0.0,0.0,0.0,0.0,0.0,0.0,0.0,0.0,0.0,0.0,0.0,0.0,0.0,0.0,0.0,0.0,0.0,0.0,0.0,0.0,0.0,0.0,0.0,0.0,0.0,0.0,0.0,0.0,0.0,0.0,0.0,0.0,0.0,0.0,0.0,0.0,0.0,0.0,0.0,0.0,0.0,0.0,-1.9326,-2.1145,-2.2276,-2.2059,-2.2253,-2.2563,-2.2791,-2.1053,-1.9768,-1.9287,0.0,0.0,0.0,0.0,0.0,0.0,0.0,0.0,0.0,0.0,0.0,0.0,0.0,0.0,0.0,0.0,0.0,0.0,0.0,0.0,0.0,0.0,0.0,0.0,0.0,0.0,0.0,0.0,0.0,0.0,0.0,0.0,0.0,0.0,0.0,0.0,0.0,0.0,0.0,0.0,0.0,0.0,0.0,0.0,0.0,0.0,0.0,0.0,0.0,0.0,0.0,0.0,0.0,0.0,0.0,0.0,0.0,0.0,0.0,0.0,0.0,0.0,0.0,0.0,0.0,0.0,0.0,0.0,0.0,0.0,0.0,0.0,0.0,0.0,0.0,0.0,0.0,0.0,0.0,0.0,0.0,0.0,0.0,0.0,0.0,0.0,0.0,0.0,0.0,0.0,0.0,0.0,0.0,0.0,0.0,0.0,0.0,0.0,0.0,0.0,0.0,0.0,-1.9404,-2.1598,-2.2977,-2.2056,-2.285,-2.2875,-2.1471,-2.0597,-1.9344,0.0,0.0,0.0,0.0,0.0,0.0,0.0,0.0,0.0,0.0,0.0,0.0,0.0,0.0,0.0,0.0,0.0,0.0,0.0,0.0,0.0,0.0,0.0,0.0,0.0,0.0,0.0,0.0,0.0,0.0,0.0,0.0,0.0,0.0,0.0,0.0,0.0,0.0,0.0,0.0,0.0,0.0,0.0,0.0,0.0,0.0,0.0,0.0,0.0,0.0,0.0,0.0,0.0,0.0,0.0,0.0,0.0,0.0,0.0,0.0,0.0,0.0,0.0,0.0,0.0,0.0,0.0,0.0,0.0,0.0,0.0,0.0,0.0,0.0,0.0,0.0,0.0,0.0,0.0,0.0,0.0,0.0,0.0,0.0,0.0,0.0,0.0,0.0,0.0,0.0,0.0,0.0,0.0,0.0,0.0,0.0,0.0,0.0,0.0,0.0,0.0,0.0,0.0,-1.9805,-2.1214,-2.2129,-2.1471,-2.1423,-2.1126,-2.0382,-1.9833,-1.8944,-1.7517,0.0,0.0,0.0,0.0,0.0,0.0,0.0,0.0,0.0,0.0,0.0,0.0,0.0,0.0,0.0,0.0,0.0,0.0,0.0,0.0,0.0,0.0,0.0,0.0,0.0,0.0,0.0,0.0,0.0,0.0,0.0,0.0,0.0,0.0,0.0,0.0,0.0,0.0,0.0,0.0,0.0,0.0,0.0,0.0,0.0,0.0,0.0,0.0,0.0,0.0,0.0,0.0,0.0,0.0,0.0,0.0,0.0,0.0,0.0,0.0,0.0,0.0,0.0,0.0,0.0,0.0,0.0,0.0,0.0,0.0,0.0,0.0,0.0,0.0,0.0,0.0,0.0,0.0,0.0,0.0,0.0,0.0,0.0,0.0,0.0,0.0,0.0,0.0,0.0,0.0,0.0,0.0,0.0,0.0,0.0,0.0,0.0,0.0,0.0,0.0,0.0,0.0,-2.0215,-2.1172,-2.1719,-2.1279,-2.083,-2.0322,-1.9717,-1.9434,-1.875,-1.7461,0.0,0.0,0.0,0.0,0.0,0.0,0.0,0.0,0.0,0.0,0.0,0.0,0.0,0.0,0.0,0.0,0.0,0.0,0.0,0.0,0.0,0.0,0.0,0.0,0.0,0.0,0.0,0.0,0.0,0.0,0.0,0.0,0.0,0.0,0.0,0.0,0.0,0.0,0.0,0.0,0.0,0.0,0.0,0.0,0.0,0.0,0.0,0.0,0.0,0.0,0.0,0.0,0.0,0.0,0.0,0.0,0.0,0.0,0.0,0.0,0.0,0.0,0.0,0.0,0.0,0.0,0.0,0.0,0.0,0.0,0.0,0.0,0.0,0.0,0.0,0.0,0.0,0.0,0.0,0.0,0.0,0.0,0.0,0.0,0.0,0.0,0.0,0.0,0.0,0.0,0.0,0.0,0.0,0.0,0.0,0.0,0.0,0.0,0.0,0.0,0.0,0.0,-2.0625,-2.1357,-2.1738,-2.1338,-2.082,-2.0176,-1.9355,-1.9248,-1.8701,-1.7461,0.0,0.0,0.0,0.0,0.0,0.0,0.0,0.0,0.0,0.0,0.0,0.0,0.0,0.0,0.0,0.0,0.0,0.0,0.0,0.0,0.0,0.0,0.0,0.0,0.0,0.0,0.0,0.0,0.0,0.0,0.0,0.0,0.0,0.0,0.0,0.0,0.0,0.0,0.0,0.0,0.0,0.0,0.0,0.0,0.0,0.0,0.0,0.0,0.0,0.0,0.0,0.0,0.0,0.0,0.0,0.0,0.0,0.0,0.0,0.0,-1.6191,0.0,0.0,0.0,0.0,0.0,0.0,0.0,0.0,0.0,0.0,0.0,0.0,0.0,0.0,0.0,0.0,0.0,0.0,0.0,0.0,0.0,0.0,0.0,0.0,0.0,0.0,0.0,0.0,0.0,0.0,0.0,0.0,0.0,0.0,0.0,0.0,0.0,0.0,0.0,0.0,0.0,-2.1094,-2.1562,-2.1846,-2.1758,-2.0732,-1.9844,-1.9336,-1.8975,-1.8379,-1.7441,-1.7295,0.0,0.0,0.0,0.0,0.0,0.0,0.0,0.0,0.0,0.0,0.0,0.0,0.0,0.0,0.0,0.0,0.0,0.0,0.0,0.0,0.0,0.0,0.0,0.0,0.0,0.0,0.0,0.0,0.0,0.0,0.0,0.0,0.0,0.0,0.0,0.0,0.0,0.0,0.0,0.0,0.0,0.0,0.0,0.0,0.0,0.0,0.0,0.0,0.0,0.0,0.0,0.0,0.0,0.0,0.0,0.0,0.0,0.0,0.0,0.0,-1.7236,0.0,0.0,0.0,0.0,0.0,0.0,0.0,0.0,0.0,0.0,0.0,0.0,0.0,0.0,0.0,0.0,0.0,0.0,0.0,0.0,0.0,0.0,0.0,0.0,0.0,0.0,0.0,0.0,0.0,0.0,0.0,0.0,0.0,0.0,0.0,0.0,0.0,0.0,0.0,0.0,-2.123,-2.1611,-2.1807,-2.1592,-2.0576,-1.9746,-1.9316,-1.8887,-1.8447,-1.8018,-1.7301,0.0,0.0,0.0,0.0,0.0,0.0,0.0,0.0,0.0,0.0,0.0,0.0,0.0,0.0,0.0,0.0,0.0,0.0,0.0,0.0,0.0,0.0,0.0,0.0,0.0,0.0,0.0,0.0,0.0,0.0,0.0,0.0,0.0,0.0,0.0,0.0,0.0,0.0,0.0,0.0,0.0,0.0,0.0,0.0,0.0,0.0,0.0,0.0,0.0,0.0,0.0,0.0,0.0,-1.8936,-1.916,-1.9512,-1.9512,-1.9697,-1.9971,-1.9072,-1.9004,-1.9453,-1.875,0.0,0.0,0.0,0.0,0.0,0.0,0.0,0.0,0.0,0.0,0.0,0.0,0.0,0.0,0.0,0.0,0.0,0.0,0.0,0.0,0.0,0.0,0.0,0.0,-2.192,-2.1703,-2.0657,0.0,0.0,0.0,0.0,0.0,0.0,0.0,0.0,0.0,0.0,0.0,-2.1348,-2.166,-2.1689,-2.1172,-2.0332,-1.9639,-1.9209,-1.8627,-1.8225,-1.8225,-1.7031,-1.6395,0.0,0.0,0.0,0.0,0.0,0.0,0.0,0.0,0.0,0.0,0.0,0.0,0.0,0.0,0.0,0.0,0.0,0.0,0.0,0.0,0.0,0.0,0.0,0.0,0.0,0.0,0.0,0.0,0.0,0.0,0.0,0.0,-1.176,-1.1813,0.0,0.0,0.0,0.0,0.0,0.0,0.0,0.0,0.0,0.0,0.0,0.0,0.0,-1.8682,-1.9111,-1.9482,-1.9687,-1.9746,-2.0127,-2.0342,-2.04,-2.04,-2.043,-2.0508,-2.1113,0.0,-2.0391,-2.0273,0.0,0.0,0.0,0.0,0.0,0.0,0.0,0.0,0.0,0.0,0.0,0.0,0.0,0.0,0.0,0.0,0.0,0.0,0.0,0.0,0.0,0.0,-2.0069,-2.1148,-2.065,-1.9833,0.0,-2.0738,-2.1236,-1.9787,-2.0306,0.0,0.0,0.0,0.0,0.0,0.0,0.0,-2.1797,-2.1846,-2.1572,-2.0742,-1.9883,-1.9199,-1.876,-1.7596,-1.6857,-1.6857,-1.6125,-1.5715,-1.5773,-1.5503,0.0,0.0,0.0,0.0,0.0,0.0,0.0,0.0,0.0,0.0,0.0,0.0,0.0,0.0,0.0,0.0,0.0,0.0,0.0,0.0,0.0,0.0,0.0,0.0,0.0,0.0,0.0,0.0,0.0,-1.1748,-1.3277,-1.3312,-1.5024,-1.603,0.0,0.0,0.0,0.0,0.0,0.0,0.0,0.0,0.0,-1.8975,-1.9228,-1.9561,-2.0,-2.0195,-2.0283,-2.0283,-2.0478,-2.0566,-2.0576,-2.083,-2.0937,-2.0977,-2.1611,-2.1797,-2.1641,-2.1406,-2.1162,-2.0918,0.0,0.0,0.0,0.0,-2.0475,-2.0253,-2.0036,-1.9782,-1.9561,-1.9348,0.0,0.0,0.0,0.0,0.0,0.0,0.0,0.0,0.0,0.0,-1.967,-2.0124,-1.9852,-1.9314,-1.8588,-1.9617,-2.0245,0.0,-1.9512,-1.9614,-1.8833,0.0,0.0,0.0,0.0,-2.0745,-2.0512,-2.1087,-2.0931,-1.958,-1.8883,-1.8137,-1.7117,-1.6298,-1.5885,-1.6163,-1.5428,-1.5194,-1.5389,-1.4784,-1.4187,0.0,0.0,0.0,0.0,0.0,0.0,0.0,0.0,0.0,0.0,0.0,0.0,0.0,0.0,0.0,0.0,0.0,0.0,0.0,0.0,0.0,0.0,0.0,0.0,0.0,0.0,0.0,0.0,-1.2772,-1.4377,-1.4617,-1.6712,-1.7832,0.0,0.0,0.0,0.0,0.0,0.0,-1.8467,-1.8789,-1.916,-1.96,-1.9922,-2.0234,-2.0634,-2.0566,-2.0566,-2.0566,-2.0566,-2.0566,-2.0576,-2.0908,-2.1064,-2.1094,-2.1523,-2.1729,-2.1729,-2.188,-2.1642,-2.1196,-2.1091,-2.0945,-2.0764,-2.0479,-2.0149,-1.9809,-1.9577,-1.9315,-1.8953,-1.8603,-1.828,-1.7755,-1.6807,0.0,0.0,0.0,0.0,-1.8194,-1.8816,-1.8747,-1.8672,-1.8948,-1.8764,-1.8311,-1.7404,-1.7948,-1.8593,0.0,-1.8734,-1.8797,-1.8181,0.0,0.0,0.0,0.0,-1.9507,-1.9143,-1.9871,-1.9789,-1.8068,-1.7636,-1.6968,-1.5738,-1.5176,-1.4912,-1.5243,-1.4645,-1.4381,-1.4772,-1.4069,-1.3721,-1.3559,0.0,0.0,0.0,0.0,0.0,0.0,0.0,0.0,0.0,0.0,0.0,0.0,0.0,0.0,0.0,0.0,0.0,0.0,0.0,0.0,0.0,0.0,0.0,0.0,0.0,0.0,0.0,0.0,0.0,-1.5441,-1.7311,0.0,0.0,0.0,0.0,-1.8516,-1.8574,-1.8936,-1.9775,-1.9834,-2.0049,-2.0488,-2.0518,-2.0547,-2.0566,-2.0566,-2.0566,-2.0566,-2.0566,-2.0566,-2.0566,-2.0586,-2.0596,-2.0625,-2.1074,-2.0685,-1.988,-2.1288,-2.1627,-2.1255,-2.0884,-2.0263,-1.9595,-1.9546,-1.9546,-1.9538,-1.948,-1.948,-1.9464,-1.9447,-1.8478,-1.7041,-1.5867,-1.5521,0.0,0.0,-1.6643,-1.6445,-1.8824,-1.7747,-1.6292,-1.7505,-1.685,-1.6015,-1.592,-1.592,-1.6379,0.0,-1.8656,-1.9348,-1.8871,0.0,-1.8838,-1.8717,-1.8622,-1.8493,-1.8476,-1.8262,-1.7711,-1.6445,-1.6312,-1.6022,-1.5317,-1.4322,-1.3745,-1.3768,-1.3488,-1.3292,-1.3306,-1.3768,-1.3935,-1.3647,-1.3532,0.0,0.0,0.0,0.0,0.0,0.0,0.0,0.0,0.0,0.0,0.0,0.0,0.0,0.0,0.0,0.0,0.0,0.0,0.0,0.0,0.0,0.0,0.0,0.0,0.0,0.0,0.0,0.0,-1.5743,-1.7915,0.0,-1.8271,-1.8447,-1.8848,-1.9414,-1.9463,-1.9717,-2.0303,-2.0332,-2.041,-2.0557,-2.0566,-2.0566,-2.0566,-2.0283,-2.0146,-2.0146,-1.9873,-1.9437,-1.8892,-1.8892,-1.8641,-1.8239,-1.839,-1.8495,-1.8637,-1.9116,-1.9475,-1.9591,-1.9624,-1.9487,-1.9183,-1.8601,-1.8319,-1.8226,-1.739,-1.7109,-1.7109,-1.7109,-1.6764,-1.6213,-1.5765,-1.5671,-1.5765,-1.6213,-1.6014,-1.6015,-1.6929,-1.6473,-1.592,-1.6386,-1.6109,-1.5832,-1.5832,-1.5832,-1.592,-1.6386,-1.6842,-1.7015,-1.6697,-1.6813,-1.6813,-1.64,-1.6846,-1.7124,-1.6986,-1.7255,-1.705,-1.5724,-1.5459,-1.4836,-1.3724,-1.3138,-1.2806,-1.2806,-1.302,-1.3213,-1.3213,-1.3774,-1.4041,-1.3928,-1.3741,-1.3447,0.0,0.0,0.0,0.0,0.0,0.0,0.0,0.0,0.0,0.0,0.0,0.0,0.0,0.0,0.0,0.0,0.0,0.0,0.0,0.0,0.0,0.0,0.0,0.0,0.0,0.0,-1.5417,-1.6011,-1.781,-1.8826,-1.8426,-1.8818,-1.9307,-1.9873,-1.9912,-2.0098,-2.0537,-2.0566,-2.0498,-2.0352,-2.0342,-2.0273,-2.0137,-1.9844,-1.9707,-1.9697,-1.912,-1.8535,-1.7859,-1.7543,-1.7139,-1.6738,-1.6738,-1.6784,-1.6935,-1.7056,-1.6992,-1.7,-1.793,-1.8073,-1.7668,-1.7007,-1.6813,-1.6636,-1.581,-1.5538,-1.5558,-1.5651,-1.5685,-1.5705,-1.5798,-1.5832,-1.5832,-1.5832,-1.5832,-1.5805,-1.5712,-1.5685,-1.5658,-1.5558,-1.5538,-1.5538,-1.5538,-1.5611,-1.5685,-1.5685,-1.5758,-1.5765,-1.5578,-1.5705,-1.5665,-1.5184,-1.5631,-1.5965,-1.5641,-1.5913,-1.583,-1.486,-1.4554,-1.3945,-1.2856,-1.2565,-1.2452,-1.2452,-1.2926,-1.3253,-1.3353,-1.3734,-1.3981,-1.4082,-1.3895,-1.3748,-1.3654,0.0,0.0,0.0,0.0,0.0,0.0,0.0,0.0,0.0,0.0,0.0,0.0,0.0,0.0,0.0,0.0,0.0,0.0,0.0,0.0,0.0,0.0,0.0,-1.3083,-1.39,-1.4917,-1.6193,-1.6866,-1.741,-1.7998,-1.8408,-1.9004,-1.9834,-1.9893,-2.0078,-2.0498,-2.0527,-2.0332,-1.9827,-1.9817,-1.9623,-1.9214,-1.9195,-1.9195,-1.9185,-1.8276,-1.7823,-1.7748,-1.6732,-1.6346,-1.6279,-1.6279,-1.5687,-1.4747,-1.5068,-1.4574,-1.3796,-1.5943,-1.5977,-1.495,-1.4963,-1.4963,-1.4963,-1.4963,-1.4963,-1.501,-1.5291,-1.5384,-1.5438,-1.5718,-1.5805,-1.5805,-1.5805,-1.5805,-1.5738,-1.5451,-1.5384,-1.5311,-1.503,-1.4963,-1.4963,-1.4963,-1.5184,-1.5384,-1.5384,-1.5611,-1.5805,-1.5825,-1.5832,-1.5732,-1.5431,-1.5144,0.0,-1.4543,-1.4262,-1.3975,-1.3687,-1.3647,-1.3407,-1.2903,-1.2842,-1.2835,-1.2835,-1.3053,-1.3353,-1.3559,-1.3585,-1.3808,-1.4108,-1.4108,-1.4242,-1.4522,0.0,0.0,0.0,0.0,0.0,0.0,0.0,0.0,0.0,0.0,0.0,0.0,0.0,0.0,0.0,0.0,0.0,0.0,0.0,0.0,0.0,-1.149,-1.2089,-1.2232,-1.3536,-1.4696,-1.5417,-1.6828,-1.7907,-1.8366,-1.8848,-1.9209,-1.9443,-1.9453,-1.9512,-1.9629,-1.9639,-1.9283,-1.848,-1.8471,-1.8024,-1.7217,-1.6946,-1.6732,-1.6732,-1.6237,-1.5541,-1.4887,-1.4587,-1.4208,-1.3758,-1.3758,-1.3747,-1.3673,-1.3756,-1.3559,-1.3414,-1.4624,-1.4892,-1.4669,-1.4883,-1.4963,-1.4963,-1.4963,-1.4963,-1.4977,-1.5057,-1.5084,-1.5097,-1.5177,-1.5204,-1.5204,-1.5204,-1.5204,-1.5184,-1.5104,-1.5084,-1.5064,-1.4983,-1.4963,-1.4963,-1.4963,-1.5023,-1.5084,-1.5084,-1.515,-1.5337,-1.5758,-1.5832,-1.5658,-1.5157,-1.5017,0.0,-1.4275,-1.4135,-1.4055,-1.3975,-1.3774,-1.3574,-1.3407,-1.3206,-1.308,-1.308,-1.336,-1.3654,-1.3955,-1.4168,-1.4422,-1.4716,-1.4509,-1.4442,0.0,0.0,0.0,0.0,0.0,0.0,0.0,0.0,0.0,0.0,0.0,0.0,0.0,0.0,0.0,0.0,0.0,0.0,0.0,0.0,0.0,0.0,-1.181,-1.2245,-1.2078,-1.3033,-1.4014,-1.4694,-1.556,-1.6375,-1.7088,-1.7422,-1.7633,-1.7798,-1.7807,-1.788,-1.8045,-1.8054,-1.7759,-1.7072,-1.6998,-1.6689,-1.593,-1.5649,-1.5541,-1.5541,-1.4904,-1.4243,-1.3673,-1.331,-1.2903,-1.2559,-1.2559,-1.2659,-1.2839,-1.2966,-1.3019,0.0,0.0,0.0,0.0,0.0,-1.4596,-1.4596,-1.4596,-1.4596,-1.4616,-1.4736,-1.4776,-1.4803,-1.493,-1.4963,-1.4963,-1.4963,-1.4963,-1.4937,-1.481,-1.4776,-1.4743,-1.4623,-1.4596,-1.4596,-1.4596,-1.4689,-1.4776,-1.4776,-1.4877,0.0,-1.5404,-1.5464,-1.5311,-1.485,-1.4776,-1.4609,-1.4148,-1.4088,-1.4088,-1.4088,-1.3935,-1.3781,-1.3572,-1.3487,0.0,0.0,0.0,-1.3961,-1.4255,-1.4549,0.0,0.0,0.0,0.0,0.0,0.0,0.0,0.0,-1.5077,-1.5184,0.0,0.0,0.0,0.0,0.0,0.0,0.0,0.0,0.0,0.0,0.0,0.0,0.0,0.0,0.0,0.0,-1.1911,-1.2251,-1.2251,-1.2452,-1.2982,-1.3977,-1.3835,-1.3991,-1.4969,-1.511,-1.5242,-1.563,-1.5696,-1.5855,-1.6171,0.0,0.0,0.0,0.0,-1.5217,-1.4757,-1.4757,-1.4757,-1.4757,-1.3841,-1.3417,-1.3417,-1.2597,-1.2251,-1.2258,-1.2285,-1.2305,-1.2325,-1.2585,-1.2768,-1.2808,-1.3073,-1.3367,-1.3627,-1.3895,-1.4008,-1.4035,-1.4035,0.0,0.0,-1.4389,-1.4469,-1.4522,-1.4783,-1.4863,-1.4863,-1.4863,-1.4863,-1.4803,-1.4543,-1.4469,-1.4402,-1.4148,-1.4088,-1.4088,-1.4088,-1.4289,-1.4469,-1.4469,-1.4683,-1.4863,-1.4863,-1.4917,-1.4863,-1.4563,-1.4522,-1.4416,-1.4122,-1.4088,-1.4088,-1.4088,0.0,0.0,-1.3714,-1.3639,-1.3854,-1.4122,-1.4202,-1.4349,-1.4609,-1.4903,-1.5064,-1.5064,-1.5311,-1.5571,-1.5832,-1.5832,-1.5832,-1.5818,-1.5304,-1.5357,0.0,0.0,0.0,0.0,0.0,0.0,0.0,0.0,0.0,0.0,0.0,0.0,0.0,0.0,0.0,-1.1589,-1.1877,-1.1951,-1.1951,-1.1797,-1.2115,-1.3346,-1.3231,-1.3437,-1.4363,-1.4488,-1.4522,-1.4589,-1.4797,-1.4927,-1.4993,-1.4993,-1.462,-1.38,-1.3608,-1.302,-1.2137,-1.2137,-1.2137,-1.2137,0.0,0.0,-1.1874,-1.1915,-1.1951,-1.1964,-1.2204,-1.2305,-1.2305,-1.2365,-1.2385,-1.2438,-1.2999,-1.3247,-1.33,-1.336,-1.3527,-1.3728,-1.3728,-1.3888,-1.4095,-1.4155,-1.4168,-1.4182,-1.4242,-1.4255,0.0,-1.4255,-1.4255,-1.4242,-1.4182,-1.4168,-1.4155,-1.4102,-1.4088,-1.4088,-1.4088,-1.4128,-1.4168,-1.4168,-1.4215,-1.4255,-1.4255,-1.4649,-1.4863,-1.4563,-1.4522,-1.4416,-1.4122,-1.4088,-1.4088,-1.4088,-1.4088,-1.4062,-1.4008,-1.4215,-1.4376,-1.4436,-1.4883,-1.5164,-1.5224,-1.5504,-1.5665,-1.5665,-1.5718,-1.5772,-1.5832,-1.5832,-1.5832,-1.5825,-1.5712,-1.5852,0.0,0.0,0.0,0.0,0.0,0.0,0.0,0.0,0.0,0.0,0.0,-0.6691,-0.8377,0.0,-0.8875,-1.0172,-1.0355,-1.0355,-1.0355,-1.0059,-1.0542,-1.2151,-1.2258,-1.2301,-1.2818,-1.2818,-1.2818,-1.2818,-1.2969,-1.3066,-1.3066,-1.3066,-1.2799,-1.2331,-1.2251,-1.1901,-1.1423,-1.1423,-1.1423,-1.1423,-1.1423,-1.1423,-1.143,-1.1583,-1.165,-1.1663,-1.1957,-1.2084,-1.2098,-1.171,-1.1848,-1.2257,-1.2088,-1.2447,-1.2999,-1.3153,-1.33,-1.3447,-1.3512,-1.3741,-1.3805,-1.3334,-1.3646,-1.3997,-1.3379,-1.3646,-1.4088,-1.4088,-1.4088,-1.3997,-1.3379,-1.3203,-1.3033,-1.2516,-1.2345,-1.2516,-1.3118,-1.3203,-1.3379,-1.3997,-1.4088,-1.4088,-1.4088,-1.4329,-1.4476,-1.4329,-1.4302,-1.4249,-1.4108,-1.4088,-1.4088,-1.4088,-1.4215,-1.4302,-1.4302,-1.471,-1.4957,-1.4957,-1.5371,-1.5611,-1.5611,-1.5752,-1.5832,-1.5832,-1.5832,-1.5832,-1.5832,-1.5832,-1.5832,-1.5832,-1.5832,-1.5985,0.0,0.0,0.0,0.0,0.0,0.0,0.0,0.0,-0.4995,-0.5758,-0.549,-0.5704,-0.747,-0.7472,-0.7527,-0.8589,-0.8788,-0.8746,-0.87,-0.843,-0.8876,-1.0451,-1.0795,-1.0961,-1.1102,-1.1169,-1.1196,-1.1249,-1.1309,-1.1343,-1.1343,-1.1343,-1.1343,-1.1343,-1.1289,-1.1256,-1.1256,-1.1256,-1.1256,-1.1256,-1.1256,-1.1256,-1.1263,-1.1316,-1.1343,-1.1363,-1.1717,-1.187,-1.1819,-1.1132,-1.1316,-1.1922,-1.0864,-1.1151,-1.2222,-1.2784,-1.3073,-1.3153,-1.3387,-1.3378,-1.3168,-1.2445,-1.2729,-1.3215,-1.2242,-1.2687,-1.3476,-1.3652,-1.3737,-1.3555,-1.2589,-1.2328,-1.198,-1.0869,-1.0611,-1.0869,-1.1815,-1.1986,-1.2242,-1.3215,-1.3385,-1.3476,-1.373,-1.3737,-1.3822,-1.4088,-1.4088,-1.4088,-1.4088,-1.4088,-1.4108,-1.4168,-1.4382,-1.4569,-1.4683,-1.5124,-1.5424,-1.5478,-1.5698,-1.5832,-1.5832,-1.5832,-1.5832,-1.5832,-1.5832,-1.5832,-1.5832,-1.5832,-1.5832,-1.5832,-1.5832,-1.5959,-0.0255,-0.025,-0.0307,-0.049,-0.269,-0.4852,0.0,0.0,-0.5125,-0.5408,-0.5497,-0.5881,-0.698,-0.7268,-0.761,-0.8609,-0.859,-0.8389,-0.8315,-0.7958,-0.7819,-0.7896,-0.8606,-0.937,-1.0199,-1.0261,-1.0374,-1.0698,-1.0895,-1.1042,-1.1042,-1.1042,-1.1042,-1.1042,-1.0788,-1.0719,-1.0719,-1.0719,-1.0719,-1.0719,-1.0719,-1.0719,-1.0732,-1.0922,-1.1042,-1.1076,-1.163,-1.187,-1.1819,-1.1132,-1.0858,-1.0864,-0.9895,-0.9539,-0.9943,-1.1708,-1.2572,-1.2882,-1.2916,-1.2539,-1.204,-1.1981,-1.155,-1.0956,-1.0869,-1.0869,-1.1214,-1.2242,-1.2504,-1.2498,-1.2328,-1.2328,-1.198,-1.0869,-1.0611,-1.0611,-1.0783,-1.0778,-1.0869,-1.0956,-1.0956,-1.13,-1.2334,-1.2504,-1.2851,-1.3913,-1.4088,-1.4088,-1.4088,-1.4088,-1.4182,-1.4442,-1.4502,-1.473,-1.5251,-1.5357,-1.5504,-1.5765,-1.5812,-1.5832,-1.5832,-1.5832,-1.5832,-1.5832,-1.5832,-1.5832,-1.5832,-1.5832,-1.5832,-1.5832,-1.5832,-1.5845,0.0512,-0.0,-0.0,-0.0,-0.1009,-0.2541,-0.4508,-0.5067,-0.5095,-0.5223,-0.5284,-0.5425,-0.5785,-0.5887,-0.6059,0.0,-0.6442,-0.6366,-0.6287,-0.615,-0.6155,-0.6492,-0.6883,-0.7552,-0.8466,-0.8591,-0.869,-0.8879,-0.8995,-0.9122,-0.9273,-0.9284,-0.9486,-1.0018,-0.9912,-1.011,-1.0624,-1.011,-0.9849,-0.9849,-0.9326,-0.9064,-0.9069,-0.9173,-0.9365,-0.9522,-0.9817,-1.0059,-1.0214,-0.942,-0.9362,-0.982,-0.8841,-0.877,-0.9372,-1.0276,-1.064,-1.0755,-1.0975,-1.0857,-1.0674,-1.0153,-1.0259,-1.0438,-0.9836,-1.0091,-1.0697,-1.1209,-1.1295,-1.1128,-1.0524,-1.0351,-1.0005,-0.8877,-0.8528,-0.879,-0.9488,-0.9579,-0.9836,-1.0438,-1.0611,-1.0783,-1.1214,-1.1413,-1.1598,-1.2133,-1.3322,-1.4148,-1.4315,-1.4342,-1.4516,-1.4977,-1.503,-1.5197,-1.5611,-1.5651,-1.5698,-1.5818,-1.5832,-1.5832,-1.5832,-1.5832,-1.5832,-1.5832,-1.5832,-1.5832,-1.5832,-1.5832,-1.5832,-1.5832,-1.5832,-1.5832,0.0885,-0.0,-0.0,-0.0,-0.0,-0.0643,-0.3029,-0.4033,-0.4577,-0.5024,-0.5087,-0.4984,-0.4938,-0.486,-0.486,-0.4918,-0.4918,-0.4904,-0.4863,-0.4857,-0.4991,-0.5447,-0.5604,-0.5934,-0.6703,-0.7181,-0.7506,-0.766,-0.768,-0.7751,-0.7919,-0.7991,-0.8285,-0.8941,-0.8941,-0.9262,-0.9907,-0.9268,-0.8941,-0.8941,-0.8285,-0.8027,-0.8027,-0.8027,-0.8113,-0.8276,-0.8506,-0.873,-0.8887,-0.8071,-0.8188,-0.877,-0.7783,-0.7859,-0.8466,-0.8466,-0.8846,-0.9322,-0.9555,-0.9553,-0.9318,-0.8735,-0.9024,-0.9483,-0.8623,-0.8969,-0.9744,-1.0009,-1.0096,-0.9923,-0.9148,-0.889,-0.8627,-0.7404,-0.7139,-0.7316,-0.8189,-0.8364,-0.8623,-0.9488,-0.9657,-0.9763,-1.0081,-1.0308,-1.0428,-1.085,-1.2235,-1.3337,-1.3529,-1.3894,-1.4366,-1.4778,-1.5272,-1.5605,-1.5812,-1.5832,-1.5832,-1.5832,-1.5832,-1.5832,-1.5832,-1.5832,-1.5832,-1.5832,-1.5832,-1.5832,-1.5832,-1.5832,-1.5832,-1.5832,-1.5832,-1.5832,0.0862,-0.0,-0.0,-0.0,-0.0,-0.0,-0.0129,-0.1509,-0.3204,-0.4758,-0.5016,-0.4887,-0.4925,-0.4864,-0.4809,-0.486,-0.4918,-0.4867,-0.4718,-0.4697,-0.4697,-0.4749,-0.4752,-0.4814,0.0,-0.6404,-0.744,-0.766,-0.768,-0.768,-0.769,-0.7904,-0.8027,-0.8027,-0.8027,-0.8027,-0.8091,-0.8027,-0.8027,-0.8027,-0.8027,-0.8027,-0.8027,-0.8027,-0.8027,-0.8047,-0.8271,-0.8495,-0.8584,-0.7788,-0.7613,-0.7783,-0.6718,-0.6338,-0.6416,-0.6416,-0.7633,-0.9296,-0.9306,-0.8811,-0.8246,-0.8254,-0.7743,-0.7228,-0.7139,-0.7139,-0.7489,-0.8627,-0.8978,-0.8978,-0.889,-0.889,-0.8627,-0.7404,-0.7139,-0.7139,-0.7139,-0.7139,-0.7139,-0.7228,-0.7228,-0.7624,-0.8935,-0.9148,-0.9574,-1.0861,-1.1161,-1.1161,-1.1166,-1.2472,-1.3467,-1.3485,-1.4873,-1.5818,-1.5832,-1.5832,-1.5832,-1.5832,-1.5832,-1.5832,-1.5832,-1.5832,-1.5832,-1.5832,-1.5832,-1.5832,-1.5832,-1.5832,-1.5832,-1.5832,-1.5832,-1.5832,0.3308,0.1551,-0.0,-0.0,-0.0,-0.0,-0.0,-0.0496,-0.1039,-0.1615,-0.3406,-0.4526,-0.3302,-0.3935,-0.4586,-0.464,-0.464,-0.4623,-0.4568,-0.4555,-0.4589,-0.4749,-0.4785,0.0,0.0,0.0,0.0,-0.5982,-0.5902,-0.5938,-0.6173,-0.624,-0.6531,-0.7111,-0.7111,-0.7437,-0.8027,-0.7437,-0.7111,-0.7111,-0.6531,-0.6272,-0.6272,-0.6272,-0.6272,-0.6284,-0.6459,-0.6634,-0.6734,-0.6548,-0.6644,-0.6795,-0.6412,-0.6338,-0.6338,-0.6338,-0.6718,-0.7326,-0.7326,-0.7242,-0.7108,-0.7108,-0.7,-0.7,-0.7,-0.7065,-0.7228,-0.7577,-0.7665,-0.7665,-0.7665,-0.7665,-0.7577,-0.7228,-0.7139,-0.7139,-0.7139,-0.7221,-0.7292,-0.7292,-0.7377,-0.755,-0.8058,-0.8153,-0.8463,-0.8918,-1.0355,-1.1392,-1.1392,-1.1972,-1.2406,-1.2406,-1.373,-1.4555,-1.4555,-1.5337,-1.5832,-1.5832,-1.5832,-1.5832,-1.5832,-1.5832,-1.5832,-1.5832,-1.5832,-1.5832,-1.5832,-1.5832,-1.5832,-1.5832,-1.5832,-1.5832,0.3849,0.2241,0.0672,0.0126,-0.0,-0.0,-0.0,-0.0,-0.0,-0.0,-0.1673,-0.293,-0.2298,-0.2595,-0.3065,-0.3591,-0.3677,-0.3691,-0.3702,-0.3674,-0.3918,-0.4595,-0.4854,-0.5057,0.0,0.0,0.0,-0.5114,-0.5047,-0.5077,-0.527,-0.5332,-0.5686,-0.6203,-0.6268,-0.6531,-0.7055,-0.6531,-0.6268,-0.6203,-0.5686,-0.5428,-0.5428,-0.5428,-0.5428,-0.5432,-0.5464,-0.562,-0.581,-0.5908,-0.6071,-0.6338,-0.6338,-0.6338,-0.6338,-0.6338,-0.6338,-0.6338,-0.6338,-0.6356,-0.6481,-0.6536,-0.6722,-0.6939,-0.699,-0.7068,-0.7139,-0.7139,-0.7139,-0.7139,-0.7139,-0.7139,-0.7139,-0.7139,-0.7139,-0.7139,-0.7139,-0.7261,-0.737,-0.737,-0.7495,-0.7614,-0.7665,-0.7797,-0.7926,-0.8024,-0.9307,-1.0285,-1.0285,-1.0789,-1.1268,-1.1268,-1.2425,-1.3199,-1.3199,-1.437,-1.5146,-1.5146,-1.554,-1.5832,-1.5832,-1.5832,-1.5832,-1.5832,-1.5832,-1.5832,-1.5832,-1.5832,-1.5832,-1.5832,-1.5832,-1.5832,0.2731,0.2227,0.1772,0.0366,-0.0,-0.0,-0.0,-0.0,-0.0,-0.0,-0.0,-0.0449,-0.1842,-0.0917,-0.0465,-0.1855,-0.207,-0.2093,-0.2084,-0.207,-0.2615,0.0,0.0,0.0,0.0,0.0,0.0,-0.5142,0.0,-0.5135,-0.5142,-0.5281,-0.5428,-0.5428,-0.5428,-0.5428,-0.5428,-0.5428,-0.5428,-0.5428,-0.5428,-0.5428,-0.5428,-0.5428,-0.5428,-0.5428,-0.5428,-0.5528,-0.58,-0.58,-0.5983,-0.6338,-0.6338,-0.6338,-0.6338,-0.6338,-0.6338,-0.6338,-0.6338,-0.6349,-0.6485,-0.6637,-0.6793,-0.6943,-0.7085,-0.7136,-0.7139,-0.7139,-0.7139,-0.7139,-0.7139,-0.7139,-0.7139,-0.7139,-0.7139,-0.7143,-0.7149,-0.7275,-0.7387,-0.7394,-0.7516,-0.7665,-0.7797,-0.7943,-0.8038,-0.8038,-0.8038,-0.8038,-0.8038,-0.9118,-0.9903,-0.9903,-1.1072,-1.1755,-1.1755,-1.3102,-1.3878,-1.3878,-1.5146,-1.5832,-1.5832,-1.5832,-1.5832,-1.5832,-1.5832,-1.5832,-1.5832,-1.5832,-1.5832,-1.5832,-1.5832,-1.5832,0.4042,0.2286,0.047,0.0119,-0.0,-0.0,-0.0,-0.0,-0.0,-0.0,-0.0,-0.0115,-0.0506,-0.023,-0.0117,-0.0523,-0.0537,0.0,-0.0542,-0.0534,0.0,-0.1075,0.0,-0.3556,-0.5229,-0.5345,0.0,0.0,-0.5203,-0.5179,-0.5294,-0.5342,-0.5428,-0.5428,-0.5428,-0.5428,-0.5428,-0.5428,-0.5428,-0.5428,-0.5428,-0.5428,-0.5428,-0.5428,-0.5428,-0.5428,-0.5428,-0.5528,-0.58,-0.58,-0.5983,-0.6338,-0.6338,-0.6338,-0.6338,-0.6338,-0.6338,-0.6338,-0.6338,-0.6285,-0.6339,-0.6481,-0.6634,-0.6787,-0.6939,-0.7054,-0.7139,-0.7139,-0.7139,-0.7139,-0.7139,-0.7139,-0.7139,-0.7139,-0.7139,-0.7173,-0.7288,-0.7431,-0.7573,-0.7678,-0.7824,-0.794,-0.7974,-0.8014,-0.8038,-0.8038,-0.8038,-0.8038,-0.8038,-0.8336,-0.8528,-0.8528,-0.9702,-1.0485,-1.0485,-1.2614,-1.3878,-1.3878,-1.5146,-1.5832,-1.5832,-1.5832,-1.5832,-1.5832,-1.5832,-1.5832,-1.5832,-1.5832,-1.5832,-1.5832,-1.5832,-1.5832,0.4498,0.3278,0.1666,0.0345,-0.0,0.0336,0.1682,0.2188,0.1926,0.0338,-0.0,-0.0,-0.0,-0.0,-0.0,-0.0,0.0,0.0,-0.0,-0.0,-0.0,0.0,-0.0705,0.0,-0.5113,-0.4909,-0.4831,0.0,-0.5287,-0.527,-0.5422,-0.5428,-0.5428,-0.5428,-0.5428,-0.5428,-0.5428,-0.5428,-0.5428,-0.5428,-0.5428,-0.5428,-0.5428,-0.5428,-0.5428,-0.5432,0.0,-0.5589,-0.5806,-0.5874,-0.6044,-0.6338,-0.6338,-0.6338,-0.6338,-0.6338,-0.6338,-0.6338,-0.6338,-0.6302,-0.6376,-0.6525,-0.6675,-0.6827,-0.6976,-0.7078,-0.7139,-0.7139,-0.7139,-0.7139,-0.7139,-0.7139,-0.7139,-0.7139,-0.719,-0.7265,-0.7353,-0.7539,-0.7736,-0.7882,-0.798,-0.8038,-0.8038,-0.8038,-0.8038,-0.8038,-0.8038,-0.8038,-0.8038,-0.8038,-0.8038,-0.8038,-0.8627,-0.9118,-0.9118,-1.097,-1.2425,-1.3006,-1.4268,-1.5242,-1.5737,-1.5832,-1.5832,-1.5832,-1.5832,-1.5832,-1.5832,-1.5832,-1.5832,-1.5832,-1.5832,-1.5832,0.449,0.4497,0.3875,0.1232,0.0616,0.1233,0.3655,0.4751,0.44,0.1351,0.0344,-0.0,-0.0,-0.0,-0.0,-0.0,0.0,-0.0,-0.0,-0.0,-0.0,-0.0,-0.0,-0.1202,-0.4386,-0.3961,-0.4018,-0.5312,-0.5369,-0.5428,-0.5428,-0.5428,-0.5428,-0.5428,-0.5428,-0.5428,-0.5428,-0.5428,-0.5428,-0.5428,-0.5428,-0.5428,-0.5428,-0.5428,-0.5439,-0.5466,-0.5532,-0.5681,-0.584,-0.5976,-0.6122,-0.6338,-0.6338,-0.6338,-0.6338,-0.6338,-0.6338,-0.6338,-0.6338,-0.6366,-0.6525,-0.6658,-0.6803,-0.6956,-0.7099,-0.7139,-0.7139,-0.7139,-0.7139,-0.7139,-0.7139,-0.7139,-0.7146,-0.7166,-0.7275,-0.7383,-0.7421,-0.7645,-0.7882,-0.8014,-0.8038,-0.8038,-0.8038,-0.8038,-0.8038,-0.8038,-0.8038,-0.8038,-0.8038,-0.8038,-0.8038,-0.8038,-0.8038,-0.8038,-0.8038,-0.9217,-1.0583,-1.1848,-1.3199,-1.4459,-1.573,-1.5832,-1.5832,-1.5832,-1.5832,-1.5832,-1.5832,-1.5832,-1.5832,-1.5832,-1.5832,-1.5832,0.448,0.4497,0.4392,0.3872,0.3708,0.354,0.2796,0.3686,0.0,0.4488,0.2073,-0.0,-0.0,-0.0,-0.0,-0.0,-0.0,-0.0,-0.0,-0.0,-0.0,0.0,-0.0,-0.0262,-0.0874,-0.2079,0.0,0.0,-0.5372,-0.5428,-0.5428,-0.5428,-0.5428,-0.5428,-0.5428,-0.5428,-0.5428,-0.5428,-0.5428,-0.5428,-0.5428,-0.5428,-0.5428,-0.5428,-0.543,-0.5552,-0.5579,0.0,-0.5993,-0.602,-0.6122,-0.6338,-0.6338,-0.6338,-0.6338,-0.6338,-0.6338,-0.6338,-0.6338,-0.6437,-0.6664,-0.6692,-0.6803,-0.6956,-0.7099,-0.7139,-0.7139,-0.7139,-0.7139,-0.7139,-0.7139,-0.7139,-0.7173,-0.7299,-0.7353,-0.7438,-0.7682,-0.7875,-0.8007,-0.8035,-0.8038,-0.8038,-0.8038,-0.8038,-0.8038,-0.8038,-0.8038,-0.8038,-0.8038,-0.8038,-0.8038,-0.8038,-0.8038,-0.8038,-0.8038,-0.9217,-1.0583,-1.1848,-1.3199,-1.4459,-1.573,-1.5832,-1.5832,-1.5832,-1.5832,-1.5832,-1.5832,-1.5832,-1.5832,-1.5832,-1.5832,-1.5832,0.3855,0.4092,0.433,0.3527,0.3928,0.433,0.3577,0.0,0.0,0.3875,0.3268,0.2229,0.0346,-0.0,-0.0,-0.0,-0.0,-0.0,-0.0,-0.0,-0.0,-0.0,-0.0,-0.0337,-0.1282,-0.2216,-0.342,-0.5259,-0.5376,-0.5428,-0.5428,-0.5428,-0.5428,-0.5428,-0.5428,-0.5428,-0.5428,-0.5428,-0.5428,-0.5428,-0.5428,-0.5428,-0.5428,-0.5428,-0.5403,-0.5481,-0.5633,-0.5779,-0.5922,-0.6084,-0.6193,-0.6338,-0.6338,-0.6338,-0.6338,-0.6338,-0.6338,-0.6271,-0.6346,-0.6515,-0.6712,-0.6793,-0.6919,-0.7051,-0.7119,-0.7139,-0.7139,-0.7139,-0.7139,-0.7139,-0.7139,-0.7139,-0.718,-0.7333,-0.7489,-0.7662,-0.7882,-0.7987,-0.8038,-0.8038,-0.8038,-0.8038,-0.8038,-0.8038,-0.8038,-0.8038,-0.8038,-0.8038,-0.8038,-0.8038,-0.8038,-0.8038,-0.8038,-0.8038,-0.8038,-0.8627,-0.9801,-1.175,-1.2528,-1.3788,-1.573,-1.5832,-1.5832,-1.5832,-1.5832,-1.5832,-1.5832,-1.5832,-1.5832,-1.5832,-1.5832,-1.5832,0.3527,0.3919,0.4212,0.3016,0.3658,0.4538,0.4528,0.469,0.0,0.2964,0.3536,0.3399,0.053,-0.0,-0.0,-0.0,-0.0,-0.0,-0.0,-0.0,-0.0,-0.0,-0.0704,0.0,-0.3143,-0.3305,0.0,-0.5322,-0.5372,-0.5428,-0.5428,-0.5428,-0.5428,-0.5428,-0.5428,-0.5428,-0.5428,-0.5428,-0.5428,-0.5428,-0.5428,-0.5428,-0.5428,-0.5428,-0.5463,-0.5467,-0.5701,-0.5837,0.0,-0.6162,-0.6338,-0.6338,-0.6338,-0.6338,-0.6338,-0.6338,-0.6338,-0.6281,-0.6424,-0.6573,-0.6725,-0.6878,-0.7024,-0.7139,-0.7139,-0.7139,-0.7139,-0.7139,-0.7139,-0.7139,-0.7139,-0.7139,-0.7187,-0.7377,-0.7645,-0.7892,-0.8014,-0.8038,-0.8038,-0.8038,-0.8038,-0.8038,-0.8038,-0.8038,-0.8038,-0.8038,-0.8038,-0.8038,-0.8038,-0.8038,-0.8038,-0.8038,-0.8038,-0.8038,-0.8038,-0.8038,-0.9019,-1.1361,-1.175,-1.2915,-1.5337,-1.5635,-1.5832,-1.5832,-1.5832,-1.5832,-1.5832,-1.5832,-1.5832,-1.5832,-1.5832,-1.5832,0.4363,0.4445,0.4448,0.4314,0.4525,0.4749,0.4568,0.0,0.4464,0.4296,0.2292,0.0398,0.0059,-0.0,-0.0,-0.0,-0.0,-0.0,-0.0,-0.0,-0.0,-0.0,0.0,0.0,-0.5126,-0.5129,-0.5243,-0.5379,-0.5369,-0.5428,-0.5428,-0.5428,-0.5428,-0.5428,-0.5428,-0.5428,-0.5428,-0.5428,-0.5428,-0.5428,-0.5428,-0.5428,-0.5428,-0.5428,-0.5508,-0.5762,-0.5789,-0.5959,0.0,-0.6247,-0.6338,-0.6338,-0.6338,-0.6338,-0.6338,-0.6338,-0.6338,-0.6281,-0.6424,-0.6573,-0.6725,-0.6878,-0.7024,-0.7139,-0.7139,-0.7139,-0.7139,-0.7139,-0.7139,-0.7139,-0.7139,-0.7139,-0.7214,-0.7509,-0.7804,-0.8021,-0.8035,-0.8038,-0.8038,-0.8038,-0.8038,-0.8038,-0.8038,-0.8038,-0.8038,-0.8038,-0.8038,-0.8038,-0.8038,-0.8038,-0.8038,-0.8038,-0.8038,-0.8038,-0.8038,-0.8038,-0.8627,-1.0096,-1.1268,-1.2528,-1.3974,-1.5146,-1.5832,-1.5832,-1.5832,-1.5832,-1.5832,-1.5832,-1.5832,-1.5832,-1.5832,-1.5832,0.3357,0.3817,0.4528,0.4515,0.4555,0.4624,0.4713,0.4611,0.4502,0.4481,0.2116,-0.0,-0.0,-0.0,-0.0,-0.0,-0.0,-0.0,-0.0,-0.2173,-0.3821,-0.3806,-0.3921,-0.4357,0.0,0.0,-0.5545,-0.5442,-0.5432,-0.5428,-0.5428,-0.5428,-0.5428,-0.5428,-0.5428,-0.5428,-0.5428,-0.5428,-0.5428,-0.5428,-0.5428,-0.5428,-0.5432,-0.5457,-0.5562,-0.5684,-0.5861,-0.601,0.0,-0.622,-0.6338,-0.6338,-0.6338,-0.6338,-0.6338,-0.6338,-0.6315,-0.641,-0.6559,-0.6709,-0.6861,-0.7007,-0.7095,-0.7139,-0.7139,-0.7139,-0.7139,-0.7139,-0.7139,-0.7139,-0.7139,-0.7278,-0.7448,-0.757,-0.7824,-0.8038,-0.8038,-0.8038,-0.8038,-0.8038,-0.8038,-0.8038,-0.8038,-0.8038,-0.8038,-0.8038,-0.8038,-0.8038,-0.8038,-0.8038,-0.8038,-0.8038,-0.8038,-0.8038,-0.8038,-0.8038,-0.8531,-0.9899,-1.117,-1.2528,-1.3878,-1.5146,-1.5832,-1.5832,-1.5832,-1.5832,-1.5832,-1.5832,-1.5832,-1.5832,-1.5832,-1.5832,0.1844,0.2324,0.3287,0.3703,0.3846,0.3958,0.4621,0.4789,0.4463,0.3367,0.1486,-0.0,-0.0,-0.0,-0.0361,-0.1415,-0.1767,-0.1656,-0.1007,-0.3569,-0.5717,-0.6371,0.0,-0.4558,-0.5548,-0.5688,-0.5603,-0.5439,-0.5428,-0.5428,-0.5428,-0.5428,-0.5428,-0.5428,-0.5428,-0.5428,-0.5428,-0.5428,-0.5428,-0.5428,-0.5428,-0.5452,-0.5433,-0.5542,-0.5637,-0.5732,-0.5939,-0.6057,0.0,-0.6217,-0.6338,-0.6338,-0.6338,-0.6338,-0.6338,-0.6338,-0.6349,-0.6495,-0.6647,-0.68,-0.6953,-0.7095,-0.7139,-0.7139,-0.7139,-0.7139,-0.7139,-0.7139,-0.7139,-0.7149,-0.7197,-0.7404,-0.7611,-0.7651,-0.7855,-0.8038,-0.8038,-0.8038,-0.8038,-0.8038,-0.8038,-0.8038,-0.8038,-0.8038,-0.8038,-0.8038,-0.8038,-0.8038,-0.8038,-0.8038,-0.8038,-0.8038,-0.8038,-0.8038,-0.8038,-0.8038,-0.8432,-0.9312,-1.0974,-1.2334,-1.3295,-1.4949,-1.5832,-1.5832,-1.5832,-1.5832,-1.5832,-1.5919,-1.5912,-1.5832,-1.5919,-1.5959,-0.0,0.0061,0.0369,0.1842,0.2198,0.2636,0.4143,0.4951,0.4353,0.0799,-0.0,-0.0,-0.0,-0.0,-0.1173,-0.4784,-0.5826,-0.547,-0.3332,-0.3405,-0.4376,0.0,0.0,-0.6524,-0.6288,-0.5857,-0.5528,-0.5439,-0.5428,0.0,-0.5428,-0.5428,-0.5428,-0.5428,-0.5428,-0.5428,-0.5428,-0.5428,-0.5428,-0.5428,-0.5428,-0.544,-0.5589,-0.5589,-0.5749,-0.6023,-0.6027,-0.6115,0.0,-0.6261,-0.6338,-0.6338,-0.6338,-0.6338,-0.6338,-0.6338,-0.6349,-0.6495,-0.6647,-0.68,-0.6953,-0.7095,-0.7139,-0.7139,-0.7139,-0.7139,-0.7139,-0.7139,-0.7139,-0.7177,-0.7329,-0.7485,-0.7634,-0.7777,-0.7926,-0.8038,-0.8038,-0.8038,-0.8038,-0.8038,-0.8038,-0.8038,-0.8038,-0.8038,-0.8038,-0.8038,-0.8038,-0.8038,-0.8038,-0.8038,-0.8038,-0.8038,-0.8038,-0.8038,-0.8038,-0.8038,-0.8038,-0.8041,-1.0485,-1.195,-1.1945,-1.4465,-1.5832,-1.5832,-1.5832,-1.5832,-1.5832,-1.6126,-1.6119,-1.5838,-1.6132,-1.6266,-0.0,-0.0,0.0127,0.0572,0.0704,0.0842,0.1324,0.16,0.1382,0.0267,-0.1981,-0.3699,-0.3685,-0.267,-0.2376,-0.3885,-0.5398,-0.6158,-0.5613,-0.5686,0.0,-0.6592,-0.6397,-0.6122,0.0,0.0,-0.5528,-0.5439,-0.5428,-0.5428,-0.5428,-0.5428,-0.5428,-0.5428,-0.5428,-0.5428,-0.5428,-0.5428,-0.5428,-0.5428,-0.5428,-0.5443,-0.5593,-0.5691,-0.584,-0.6034,-0.6142,-0.6217,0.0,-0.6338,-0.6338,-0.6338,-0.6338,-0.6338,-0.6338,-0.6338,-0.6417,-0.6634,-0.6681,-0.6865,-0.7082,-0.7126,-0.7139,-0.7139,-0.7139,-0.7139,-0.7139,-0.7139,-0.7139,-0.7177,-0.7329,-0.7485,-0.7634,-0.7777,-0.7929,-0.8038,-0.8038,-0.8038,-0.8038,-0.8038,-0.8038,-0.8038,-0.8038,-0.8038,-0.8038,-0.8038,-0.8038,-0.8038,-0.8038,-0.8038,-0.8038,-0.8038,-0.8038,-0.8038,-0.8038,-0.8825,-0.941,-0.941,-1.1843,-1.3295,-1.3295,-1.4854,-1.5832,-1.5832,-1.5832,-1.5832,-1.5832,-1.6126,-1.6326,-1.6433,-1.6526,-1.6567,-0.0128,-0.0,-0.0,-0.0,-0.0,-0.033,-0.1744,-0.2016,-0.1846,-0.1132,-0.2788,-0.4559,-0.53,-0.4493,-0.3835,-0.4316,-0.5457,-0.6386,-0.6527,0.0,0.0,-0.675,0.0,0.0,0.0,-0.5755,-0.5586,-0.5446,-0.5428,-0.5428,-0.5428,-0.5428,-0.5428,-0.5428,-0.5428,-0.5428,-0.5428,-0.5428,-0.5459,-0.5447,-0.5447,-0.5555,-0.5759,-0.5847,-0.5973,-0.6122,-0.6217,-0.6338,0.0,-0.6338,-0.6338,-0.6338,-0.6338,-0.6338,-0.6338,-0.6338,-0.6447,-0.6702,-0.6702,-0.6895,-0.7139,-0.7139,-0.7139,-0.7139,-0.7139,-0.7139,-0.7139,-0.7139,-0.7139,-0.719,-0.7404,-0.7529,-0.7651,-0.7848,-0.797,-0.8038,-0.8038,-0.8038,-0.8038,-0.8038,-0.8038,-0.8038,-0.8038,-0.8038,-0.8038,-0.8038,-0.8038,-0.8038,-0.8038,-0.8038,-0.8038,-0.8038,-0.8038,-0.8038,-0.8038,-0.8726,-0.9509,-0.9998,-1.194,-1.3392,-1.3878,-1.5146,-1.5832,-1.5832,-1.5832,-1.5885,-1.5999,-1.6186,-1.642,-1.67,-1.6593,-1.666,0.0,-0.0263,-0.0201,-0.0201,-0.0202,-0.1077,-0.4453,-0.5301,0.0,-0.3268,-0.2879,-0.3409,-0.5142,-0.5453,-0.549,-0.5727,-0.6101,-0.6291,0.0,-0.6658,0.0,0.0,-0.6726,0.0,-0.6115,-0.603,-0.5888,-0.5582,-0.5557,-0.5557,-0.5491,-0.5491,-0.5491,-0.5428,-0.5428,-0.5428,-0.5428,-0.5428,-0.544,-0.5589,-0.5589,-0.5745,-0.603,-0.603,-0.6115,0.0,-0.6338,0.0,0.0,-0.6338,-0.6338,-0.6338,-0.6338,-0.6338,-0.6338,-0.6338,-0.6447,-0.6702,-0.6702,-0.6895,-0.7139,-0.7139,-0.7139,-0.7139,-0.7139,-0.7139,-0.7139,-0.7139,-0.7146,-0.7224,-0.7522,-0.7607,-0.7685,-0.7974,-0.8038,-0.8038,-0.8038,-0.8038,-0.8038,-0.8038,-0.8038,-0.8038,-0.8038,-0.8038,-0.8038,-0.8038,-0.8038,-0.8038,-0.8038,-0.8038,-0.8038,-0.8038,-0.8038,-0.8038,-0.8038,-0.8038,-0.8726,-1.0096,-1.1365,-1.2624,-1.3974,-1.5146,-1.5832,-1.5832,-1.5832,-1.5979,-1.6273,-1.6273,-1.6433,-1.6734,-1.646,-1.664,-0.3768,0.0,-0.208,-0.208,-0.2047,-0.2278,0.0,-0.4409,-0.5284,-0.4821,0.0,-0.499,-0.5745,-0.5672,-0.5691,-0.6222,-0.6383,-0.6548,-0.6732,-0.6763,0.0,-0.6756,-0.7202,-0.7323,-0.6893,-0.7526,-0.7822,-0.741,-0.7377,-0.7116,-0.6396,-0.6396,-0.6075,-0.5428,-0.5428,-0.5428,-0.5428,-0.5428,-0.544,-0.5589,-0.5589,-0.5745,-0.603,-0.603,-0.6115,-0.6338,-0.6338,0.0,-0.6338,-0.6338,-0.6338,-0.6338,-0.6338,-0.6338,-0.6338,-0.6338,-0.6447,-0.6702,-0.6702,-0.6895,-0.7139,-0.7139,-0.7139,-0.7139,-0.7139,-0.7139,-0.7139,-0.7139,-0.7224,-0.736,-0.755,-0.7682,-0.7811,-0.7994,-0.8038,-0.8038,-0.8038,-0.8038,-0.8038,-0.8038,-0.8038,-0.8038,-0.8038,-0.8038,-0.8038,-0.8038,-0.8038,-0.8038,-0.8038,-0.8038,-0.8038,-0.8038,-0.8038,-0.8038,-0.8038,-0.892,-1.0096,-1.1365,-1.2716,-1.3974,-1.5337,-1.5635,-1.5832,-1.5832,-1.5832,-1.5979,-1.6273,-1.6273,-1.654,-1.7041,-1.6974,-1.7134,-0.473,-0.4409,-0.3957,-0.4077,-0.4064,-0.3968,-0.4034,0.0,0.0,0.0,0.0,-0.5477,-0.5801,-0.5772,-0.5837,-0.6298,-0.6488,0.0,0.0,0.0,-0.7353,-0.7353,-0.8007,-0.8305,0.0,-0.8277,-0.8231,-0.747,-0.7372,-0.7051,-0.6137,-0.6075,-0.5881,-0.5428,-0.5428,-0.5428,-0.5428,-0.5433,-0.5542,-0.5688,-0.5759,-0.5911,-0.6135,-0.6135,-0.6179,-0.6338,-0.6338,0.0,-0.6338,-0.6338,-0.6338,-0.6338,-0.6338,-0.6338,-0.6338,-0.6338,-0.6447,-0.6702,-0.6702,-0.6895,-0.7139,-0.7139,-0.7139,-0.7139,-0.7139,-0.7139,-0.7139,-0.7139,-0.7251,-0.7407,-0.756,-0.7706,-0.7848,-0.8004,-0.8038,-0.8038,-0.8038,-0.8038,-0.8038,-0.8038,-0.8038,-0.8038,-0.8038,-0.8038,-0.8038,-0.8038,-0.8038,-0.8038,-0.8038,-0.8038,-0.8038,-0.8038,-0.8038,-0.8038,-0.8038,-0.8627,-0.9899,-1.175,-1.2624,-1.3782,-1.573,-1.5832,-1.5832,-1.5832,-1.5965,-1.6046,-1.6072,-1.6206,-1.6506,-1.6947,-1.6947,-1.7174,-0.4704,-0.5067,-0.5416,-0.5662,-0.5583,-0.5467,-0.5648,0.0,0.0,0.0,0.0,0.0,0.0,-0.5776,0.0,0.0,0.0,0.0,-0.7625,-0.8139,-0.8487,-0.8487,-0.9096,0.0,-0.8669,-0.8764,-0.8299,-0.7007,-0.6915,-0.6527,-0.5624,-0.5624,-0.5557,-0.5428,-0.5428,-0.5428,-0.5428,-0.5511,-0.5661,-0.5803,-0.5956,-0.6112,-0.6338,-0.6338,-0.6338,-0.6338,0.0,0.0,-0.6338,-0.6338,-0.6338,-0.6338,-0.6338,-0.6338,-0.6342,-0.6285,-0.6468,-0.6709,-0.6753,-0.6932,-0.7139,-0.7139,-0.7139,-0.7139,-0.7139,-0.7139,-0.7146,-0.717,-0.7288,-0.7441,-0.7594,-0.774,-0.7879,-0.8007,-0.8038,-0.8038,-0.8038,-0.8038,-0.8038,-0.8038,-0.8038,-0.8038,-0.8038,-0.8038,-0.8038,-0.8038,-0.8038,-0.8038,-0.8038,-0.8038,-0.8038,-0.8038,-0.8038,-0.8038,-0.8038,-0.8237,-0.9312,-1.175,-1.1945,-1.3108,-1.573,-1.5832,-1.5832,-1.5832,-1.6079,-1.6079,-1.5832,-1.6126,-1.642,-1.6707,-1.6754,-1.7061,-0.4952,-0.5213,-0.5342,-0.5233,-0.5403,-0.5559,-0.5497,0.0,0.0,0.0,0.0,0.0,0.0,-0.6088,-0.6713,0.0,0.0,-1.0181,0.0,0.0,-0.9619,-0.9619,0.0,-1.007,-0.874,-0.9399,-0.9264,-0.7927,-0.7832,-0.7437,-0.6527,-0.6527,-0.6141,-0.5428,-0.5428,-0.5428,-0.5428,-0.5511,-0.5661,-0.5803,-0.5956,-0.6112,-0.6338,-0.6338,-0.6338,-0.6338,0.0,-0.6338,-0.6338,-0.6338,-0.6338,-0.6338,-0.6338,-0.6338,-0.6352,-0.6393,-0.6552,-0.6736,-0.6987,-0.7102,-0.7139,-0.7139,-0.7139,-0.7139,-0.7139,-0.7139,-0.7166,-0.7299,-0.7448,-0.7597,-0.774,-0.7889,-0.8011,-0.8035,-0.8038,-0.8038,-0.8038,-0.8038,-0.8038,-0.8038,-0.8038,-0.8038,-0.8038,-0.8038,-0.8038,-0.8038,-0.8038,-0.8038,-0.8038,-0.8038,-0.8038,-0.8038,-0.8038,-0.8038,-0.8038,-0.9019,-1.0288,-1.1848,-1.1945,-1.3108,-1.573,-1.5832,-1.5832,-1.5832,-1.5872,-1.5872,-1.5832,-1.6126,-1.642,-1.6714,-1.6967,-1.7261,-0.4914,-0.5125,-0.526,-0.5355,-0.5606,-0.581,-0.5739,0.0,0.0,0.0,0.0,0.0,0.0,0.0,-0.7873,-0.9587,0.0,-1.0651,-1.0449,-1.0563,-1.0701,0.0,0.0,-1.0437,-0.9513,-0.9329,-0.8717,-0.7405,-0.7307,-0.692,-0.6075,-0.6009,-0.5815,-0.5428,-0.5428,-0.5428,-0.5428,-0.5589,-0.5735,-0.5803,-0.604,-0.6193,-0.6338,-0.6338,-0.6338,-0.6338,0.0,-0.6338,-0.6338,-0.6338,-0.6338,-0.6338,-0.6338,-0.6338,-0.6288,-0.6512,-0.6692,-0.6854,-0.7065,-0.7139,-0.7139,-0.7139,-0.7139,-0.7139,-0.7139,-0.72,-0.7295,-0.7451,-0.7546,-0.7634,-0.7773,-0.7926,-0.8038,-0.8038,-0.8038,-0.8038,-0.8038,-0.8038,-0.8038,-0.8038,-0.8038,-0.8038,-0.8038,-0.8038,-0.8038,-0.8038,-0.8038,-0.8038,-0.8038,-0.8038,-0.8038,-0.8038,-0.8627,-0.9118,-0.9118,-1.0288,-1.1556,-1.2909,-1.3596,-1.4561,-1.573,-1.5832,-1.5832,-1.5832,-1.5985,-1.6072,-1.6072,-1.6366,-1.666,-1.6947,-1.7088,-1.7301,-0.4877,-0.5047,-0.5213,-0.5555,-0.5783,-0.5945,-0.6013,0.0,0.0,0.0,0.0,0.0,0.0,-0.8622,0.0,-1.0704,-1.1225,-1.137,-1.1077,-1.1491,-1.1793,-1.1444,-1.1196,-1.0816,-1.0148,-0.9136,-0.804,-0.6811,-0.6527,-0.6075,-0.5428,-0.5428,-0.5428,-0.5428,-0.5428,-0.5428,-0.5428,-0.5654,-0.58,-0.5803,-0.6115,-0.6338,-0.6338,-0.6338,-0.6338,-0.6338,-0.6338,-0.6338,-0.6338,-0.6338,-0.6338,-0.6338,-0.6338,-0.6302,-0.639,-0.6617,-0.6817,-0.6993,-0.7102,-0.7139,-0.7139,-0.7139,-0.7139,-0.7146,-0.7183,-0.7278,-0.7411,-0.7597,-0.7648,-0.7682,-0.7828,-0.795,-0.8038,-0.8038,-0.8038,-0.8038,-0.8038,-0.8038,-0.8038,-0.8038,-0.8237,-0.8333,-0.8038,-0.8233,-0.8333,-0.8038,-0.8038,-0.8137,-0.8432,-0.8432,-0.8627,-0.892,-0.9801,-1.0583,-1.0872,-1.1848,-1.2909,-1.4268,-1.5242,-1.5832,-1.5832,-1.5832,-1.5865,-1.5932,-1.6159,-1.6306,-1.6373,-1.6667,-1.6927,-1.7148,-1.7215,-1.7368,-0.4996,-0.5125,-0.5237,-0.5677,-0.5701,0.0,-0.5969,-0.5911,0.0,-0.6169,0.0,0.0,0.0,-0.9972,-1.184,-1.1798,-1.3168,-1.4025,-1.3467,0.0,-1.3014,-1.2702,-1.2171,-1.134,-1.02,-0.9053,-0.7947,-0.6798,-0.5943,-0.5491,-0.5428,-0.5428,-0.5428,-0.5428,-0.5428,-0.5428,-0.5428,-0.5654,-0.58,-0.5803,-0.6115,-0.6338,-0.6338,-0.6338,-0.6338,-0.6338,-0.6338,-0.6338,-0.6338,-0.6338,-0.6338,-0.6338,-0.6338,-0.6427,-0.6671,-0.6695,-0.6878,-0.7126,-0.7136,-0.7139,-0.7139,-0.7139,-0.7139,-0.7166,-0.7312,-0.7363,-0.7431,-0.7716,-0.7794,-0.7831,-0.7984,-0.8031,-0.8038,-0.8038,-0.8038,-0.8038,-0.8038,-0.8038,-0.8038,-0.8038,-0.9019,-0.9509,-0.8237,-0.9019,-0.941,-0.8237,-0.8038,-0.8432,-0.9706,-0.9903,-1.0293,-1.1463,-1.175,-1.2231,-1.3488,-1.368,-1.4268,-1.554,-1.573,-1.5832,-1.5832,-1.5832,-1.5959,-1.6239,-1.6259,-1.6406,-1.6673,-1.6974,-1.723,-1.7257,-1.7428,-1.7562,-0.4901,-0.5131,-0.5359,-0.5711,-0.5833,0.0,0.0,-0.6196,-0.6278,-0.6491,-0.6898,0.0,0.0,0.0,-1.23,-1.2877,-1.3489,-1.3834,-1.3434,-1.3113,-1.2806,-1.2505,-1.1589,-1.0741,-1.013,-0.849,-0.7261,-0.6732,-0.5881,-0.5428,-0.5428,-0.5428,-0.5428,-0.5428,-0.5428,-0.5406,-0.5501,-0.5701,-0.5847,-0.5945,-0.6159,-0.6338,-0.6338,-0.6338,-0.6338,-0.6338,-0.6338,-0.6338,-0.6338,-0.6338,-0.6338,-0.6271,-0.6359,-0.6519,-0.6712,-0.6807,-0.697,-0.7139,-0.7139,-0.7139,-0.7139,-0.7139,-0.7139,-0.717,-0.7326,-0.7438,-0.7553,-0.7753,-0.7879,-0.7967,-0.8024,-0.8038,-0.8038,-0.8038,-0.8038,-0.8038,-0.8038,-0.8627,-0.9217,-0.9217,-1.0288,-1.0779,-0.9509,-0.9706,-0.9509,-0.8237,-0.8726,-0.941,-0.9899,-1.0681,-1.1365,-1.1848,-1.2624,-1.3686,-1.4949,-1.5045,-1.5415,-1.6092,-1.6106,-1.6106,-1.6106,-1.6279,-1.6426,-1.654,-1.6727,-1.6874,-1.6981,-1.7275,-1.7422,-1.7422,-1.7528,-1.7582,-0.4918,-0.5206,-0.5504,0.0,0.0,0.0,-0.6352,-0.6437,-0.6529,-0.6729,-0.6978,0.0,-1.0116,0.0,0.0,0.0,-1.3507,-1.34,-1.3106,-1.2879,-1.2714,-1.2338,-1.1369,-1.0572,-1.0118,-0.8356,-0.7127,-0.6728,-0.5881,-0.5428,-0.5428,-0.5428,-0.5428,-0.5428,-0.5428,-0.5437,-0.5589,-0.5732,-0.5878,-0.603,-0.6186,-0.6338,-0.6338,-0.6338,-0.6338,-0.6338,-0.6338,-0.6338,-0.6338,-0.6338,-0.6338,-0.6274,-0.6417,-0.6566,-0.6719,-0.6871,-0.7017,-0.7139,-0.7139,-0.7139,-0.7139,-0.7139,-0.7139,-0.7177,-0.738,-0.7516,-0.7641,-0.7831,-0.796,-0.8038,-0.8038,-0.8038,-0.8038,-0.8038,-0.8038,-0.8038,-0.8038,-0.9019,-0.9998,-0.9998,-1.1361,-1.1945,-1.0288,-1.0288,-1.0194,-0.8825,-0.941,-1.0293,-1.1161,-1.2037,-1.2721,-1.3108,-1.398,-1.4854,-1.573,-1.5832,-1.5952,-1.6253,-1.6359,-1.6413,-1.6413,-1.66,-1.6747,-1.684,-1.7048,-1.7194,-1.7288,-1.7482,-1.7582,-1.7582,-1.7582,-1.7582,-0.5091,-0.5355,-0.5661,0.0,0.0,0.0,-0.6634,-0.6583,-0.6563,-0.6865,0.0,-0.895,-1.1393,-1.1529,0.0,-1.2995,-1.3206,-1.3093,-1.2862,-1.2815,-1.2701,-1.2325,-1.1777,-1.1073,-1.017,-0.8826,-0.7632,-0.6785,-0.5881,-0.5428,-0.5428,-0.5428,-0.5428,-0.5428,-0.5428,-0.5437,-0.5589,-0.5732,-0.5881,-0.6034,-0.6186,-0.6338,-0.6338,-0.6338,-0.6338,-0.6338,-0.6338,-0.6338,-0.6338,-0.6338,-0.6338,-0.6274,-0.6417,-0.6566,-0.6719,-0.6875,-0.7021,-0.7139,-0.7139,-0.7139,-0.7139,-0.7139,-0.7139,-0.7197,-0.7506,-0.76,-0.7662,-0.7957,-0.8038,-0.8038,-0.8041,-0.8041,-0.8041,-0.8041,-0.8041,-0.8038,-0.8038,-0.9118,-0.9998,-0.9998,-1.2134,-1.3102,-1.0485,-1.1072,-1.1458,-1.0194,-0.9998,-1.097,-1.3584,-1.3878,-1.4364,-1.5635,-1.5832,-1.5832,-1.5832,-1.5832,-1.5959,-1.6259,-1.6547,-1.6707,-1.6707,-1.6714,-1.6854,-1.7148,-1.7154,-1.7295,-1.7582,-1.7582,-1.7582,-1.7582,-1.7582,-1.7582,-0.5121,-0.543,0.0,-0.6996,0.0,0.0,0.0,-0.7899,0.0,0.0,-0.6968,-0.7668,-0.9797,-1.0179,0.0,-1.2634,-1.2886,-1.2779,-1.2478,-1.2258,-1.2017,-1.1724,-1.0797,-1.0104,-0.9835,-0.8195,-0.6981,-0.6719,-0.5881,-0.5428,-0.5428,-0.5428,-0.5428,-0.5428,-0.5464,-0.5593,-0.5739,-0.5888,-0.604,-0.6193,-0.624,-0.6338,-0.6338,-0.6338,-0.6338,-0.6338,-0.6338,-0.6338,-0.6338,-0.6338,-0.6338,-0.6285,-0.6536,-0.6661,-0.6729,-0.6983,-0.7105,-0.7139,-0.7139,-0.7139,-0.7139,-0.7139,-0.7139,-0.7371,-0.8594,-0.8333,-0.7848,-0.9022,-0.8726,-0.8237,-0.9118,-0.941,-0.941,-0.941,-0.941,-0.9604,-1.0583,-1.1843,-1.2716,-1.2716,-1.4076,-1.4752,-1.3006,-1.2231,-1.175,-1.1361,-1.1365,-1.2237,-1.4854,-1.5242,-1.5343,-1.573,-1.5832,-1.5832,-1.5832,-1.5832,-1.6039,-1.6547,-1.666,-1.68,-1.7007,-1.7215,-1.7361,-1.7455,-1.7455,-1.7495,-1.7582,-1.7582,-1.7582,-1.7582,-1.7582,-1.7582,-0.6428,-0.6979,0.0,-0.8456,-0.8779,-0.9131,-0.9872,0.0,0.0,0.0,-0.7853,-0.8224,-0.9963,-1.0229,0.0,-1.249,-1.2721,-1.2465,-1.2171,-1.169,-1.1256,-1.0899,-0.987,-0.9041,-0.8705,-0.7494,-0.6523,-0.6203,-0.5686,-0.5428,-0.5428,-0.5428,-0.5428,-0.5428,-0.545,-0.5596,-0.58,-0.5891,-0.6047,-0.6338,-0.6338,-0.6338,-0.6338,-0.6338,-0.6338,-0.6338,-0.6338,-0.6338,-0.6338,-0.6338,-0.6338,-0.6291,-0.6586,-0.6702,-0.6736,-0.7031,-0.7139,-0.7139,-0.7139,-0.7139,-0.7139,-0.7139,-0.7404,-0.7974,-0.9051,-0.9196,-0.9137,-0.9707,-0.9359,-0.9019,-0.9801,-0.9998,-1.0096,-1.0583,-1.0779,-1.0974,-1.175,-1.2909,-1.3878,-1.3878,-1.4949,-1.5439,-1.4166,-1.3199,-1.2716,-1.2716,-1.3108,-1.398,-1.5635,-1.5832,-1.5832,-1.5832,-1.5832,-1.5832,-1.5832,-1.5832,-1.6032,-1.6506,-1.664,-1.684,-1.7141,-1.7428,-1.7582,-1.7582,-1.7582,-1.7582,-1.7582,-1.7582,-1.7582,-1.7582,-1.7582,-1.7582,-0.8494,0.0,0.0,-1.0043,-1.0196,0.0,-1.0009,-1.0074,-1.0069,-0.9756,0.0,-0.988,-1.1209,-1.1106,-1.1241,-1.2507,-1.2384,-1.2012,-1.1799,-1.0938,-1.0255,-0.9921,-0.8931,-0.7923,-0.7124,-0.6759,-0.6268,-0.5491,-0.5428,-0.5428,-0.5428,-0.5428,-0.5435,-0.5449,-0.5463,-0.5538,-0.582,-0.5837,-0.5983,-0.6338,-0.6338,-0.6338,-0.6338,-0.6338,-0.6338,-0.6338,-0.6338,-0.6338,-0.6338,-0.6338,-0.6338,-0.6288,-0.6569,-0.6688,-0.6732,-0.7017,-0.7129,-0.7139,-0.7139,-0.7139,-0.7139,-0.7139,-0.7929,-0.8924,-0.9187,-1.0194,-1.1144,-1.0139,-1.0048,-1.0194,-1.0288,-1.0386,-1.0681,-1.1945,-1.2139,-1.2139,-1.2237,-1.3199,-1.407,-1.407,-1.5045,-1.5439,-1.4262,-1.3974,-1.3878,-1.3878,-1.4949,-1.5832,-1.5832,-1.5832,-1.5832,-1.5832,-1.5832,-1.5832,-1.5832,-1.5832,-1.5952,-1.6253,-1.652,-1.6807,-1.7237,-1.7428,-1.7582,-1.7582,-1.7582,-1.7582,-1.7582,-1.7582,-1.7582,-1.7582,-1.7582,-1.7582,-0.8674,-0.9197,0.0,0.0,-1.2134,-1.2675,-1.2232,-1.2125,-1.1654,-0.9922,-0.9436,-0.9682,-1.0714,-1.0859,-1.118,-1.223,-1.1633,-1.0844,-1.0505,-0.9587,-0.8758,-0.8464,-0.7663,-0.6977,-0.6779,-0.6098,-0.5624,-0.5428,-0.5428,-0.5428,-0.5428,-0.5428,-0.5416,-0.5538,-0.5647,-0.5793,-0.5979,-0.6101,-0.6196,0.0,-0.6338,-0.6338,-0.6338,-0.6338,-0.6338,-0.6338,-0.6338,-0.6338,-0.6338,-0.6338,-0.6338,-0.6278,-0.6454,-0.6597,-0.6722,-0.6905,-0.7044,-0.7139,-0.7139,-0.7139,-0.7139,-0.7139,-0.7929,-0.9099,-1.0346,-1.092,-1.1513,-1.2291,-1.2055,-1.175,-1.2813,-1.3102,-1.3392,-1.4663,-1.4172,-1.3782,-1.4758,-1.5146,-1.5439,-1.5439,-1.5635,-1.573,-1.5439,-1.4561,-1.3878,-1.3878,-1.4949,-1.5832,-1.5832,-1.5832,-1.5832,-1.5832,-1.5832,-1.5832,-1.5832,-1.5832,-1.5952,-1.6253,-1.6333,-1.66,-1.723,-1.7428,-1.7582,-1.7582,-1.7582,-1.7582,-1.7582,-1.7582,-1.7582,-1.7582,-1.7582,-1.7582,-1.0102,0.0,0.0,-1.2318,0.0,-1.3093,-1.2639,-1.2532,-1.2224,-1.1065,-1.0813,-1.0875,-1.1391,-1.1432,-1.1351,-1.1503,-1.0838,-1.0143,-0.9393,-0.8434,-0.7673,-0.7396,-0.6593,-0.6075,-0.6075,-0.5686,-0.5428,-0.5428,-0.5428,-0.5428,-0.5428,-0.5428,-0.5433,-0.5586,-0.5661,-0.5806,-0.6027,-0.6108,-0.6186,-0.6335,-0.6186,-0.6149,-0.6152,-0.6227,-0.6338,-0.6338,-0.6338,-0.6338,-0.6338,-0.6338,-0.6338,-0.6274,-0.6417,-0.6566,-0.6719,-0.6871,-0.7017,-0.7139,-0.7139,-0.7139,-0.7228,-0.7753,-0.8798,-0.9946,-1.1271,-1.236,-1.3053,-1.3176,-1.3014,-1.3006,-1.368,-1.3878,-1.4268,-1.5534,-1.5337,-1.4949,-1.5635,-1.5832,-1.5832,-1.5832,-1.5832,-1.5832,-1.5832,-1.5242,-1.4848,-1.4848,-1.5337,-1.5832,-1.5832,-1.5832,-1.5832,-1.5832,-1.5832,-1.5832,-1.5832,-1.5832,-1.5892,-1.6052,-1.6192,-1.6413,-1.672,-1.7141,-1.7375,-1.7375,-1.7508,-1.7515,-1.7375,-1.7515,-1.7582,-1.7582,-1.7582,-1.7582,-1.1486,0.0,-1.3213,-1.3213,-1.3019,0.0,-1.2445,-1.2338,-1.2305,-1.2305,-1.2111,-1.2004,-1.2004,-1.1618,-1.1139,-1.042,-0.9921,-0.9267,-0.8316,-0.7387,-0.6705,-0.6478,-0.5815,-0.5428,-0.5428,-0.5428,-0.5428,-0.5428,-0.5428,-0.5428,-0.5428,-0.5452,-0.5471,-0.5623,-0.565,-0.5796,-0.6067,-0.6067,-0.6135,-0.6335,-0.6132,-0.6067,-0.6074,-0.6203,-0.6338,-0.6338,-0.6338,-0.6338,-0.6338,-0.6338,-0.6338,-0.6274,-0.639,-0.6529,-0.6678,-0.6831,-0.698,-0.7105,-0.7132,-0.7228,-0.7577,-0.854,-0.9836,-1.1037,-1.198,-1.3586,-1.4777,-1.3664,-1.3764,-1.4262,-1.4262,-1.4262,-1.4459,-1.554,-1.5832,-1.5832,-1.5832,-1.5832,-1.5832,-1.5832,-1.5832,-1.5832,-1.5832,-1.5832,-1.5832,-1.5832,-1.5832,-1.5832,-1.5832,-1.5832,-1.5832,-1.5832,-1.5832,-1.5832,-1.5832,-1.5832,-1.5832,-1.5832,-1.6059,-1.6219,-1.6273,-1.674,-1.7001,-1.7001,-1.7382,-1.7442,-1.7148,-1.7442,-1.7582,-1.7582,-1.7582,-1.7582,0.0,0.0,-1.3213,0.0,-1.318,-1.3066,0.0,0.0,-1.2305,0.0,-1.1509,-1.084,-1.084,-0.9965,-0.9152,-0.9082,-0.8206,-0.745,-0.7291,-0.634,-0.5582,-0.5557,-0.5491,-0.5428,-0.5428,-0.5428,-0.5428,-0.5428,-0.5428,-0.5428,-0.5428,-0.5488,-0.5627,-0.5769,-0.5901,-0.6054,-0.623,-0.623,-0.624,-0.6338,-0.624,-0.623,-0.623,-0.6251,-0.6338,-0.6338,-0.6338,-0.6338,-0.6338,-0.6338,-0.6338,-0.6342,-0.6281,-0.6376,-0.6522,-0.6675,-0.6827,-0.6973,-0.7099,-0.7753,-0.8715,-0.889,-1.0351,-1.2072,-1.2237,-1.3586,-1.4963,-1.4777,-1.5101,-1.554,-1.554,-1.554,-1.5635,-1.573,-1.5832,-1.5832,-1.5832,-1.5832,-1.5832,-1.5832,-1.5832,-1.5832,-1.5832,-1.5832,-1.5832,-1.5832,-1.5832,-1.5832,-1.5832,-1.5832,-1.5832,-1.5832,-1.5832,-1.5832,-1.5832,-1.5832,-1.5832,-1.5832,-1.5865,-1.6005,-1.6259,-1.6353,-1.6393,-1.6393,-1.7174,-1.7442,-1.7148,-1.7442,-1.7582,-1.7582,-1.7582,-1.7582,-1.187,-1.2425,-1.2819,0.0,-1.3327,-1.3126,-1.2896,0.0,-1.2505,-1.2338,-1.1405,-1.0785,-1.1215,-1.0343,-0.935,-0.8658,-0.7644,-0.6718,-0.619,-0.5733,-0.5428,-0.5428,-0.5428,-0.5428,-0.5428,-0.5428,-0.5428,-0.5428,-0.5428,-0.5428,-0.5428,-0.5423,-0.5566,-0.5793,-0.5789,-0.5895,-0.6129,-0.6132,-0.6132,-0.6132,-0.622,-0.6213,-0.6135,-0.622,-0.6338,-0.6338,-0.6338,-0.6338,-0.6338,-0.6338,-0.6338,-0.6338,-0.6338,-0.6346,-0.6491,-0.6644,-0.721,-0.7963,-0.8043,-0.8886,-0.9923,-1.0611,-1.1466,-1.2413,-1.3118,-1.4135,-1.4963,-1.4963,-1.5384,-1.5832,-1.5832,-1.5832,-1.5832,-1.5832,-1.5832,-1.5832,-1.5832,-1.5832,-1.5832,-1.5832,-1.5832,-1.5832,-1.5832,-1.5832,-1.5832,-1.5832,-1.5832,-1.5832,-1.5832,-1.5832,-1.5832,-1.5832,-1.5832,-1.5832,-1.5832,-1.5832,-1.5832,-1.5832,-1.5832,-1.5885,-1.6019,-1.6186,-1.6192,-1.6025,-1.6894,-1.7194,-1.6901,-1.7361,-1.7582,-1.7582,-1.7582,-1.7582,0.0,0.0,-1.2392,-1.3213,-1.3313,-1.3166,0.0,0.0,-1.2761,0.0,-1.1659,-1.1225,-1.1806,-1.0701,-0.9386,-0.8258,-0.735,-0.6453,-0.5564,-0.5428,-0.5428,-0.5428,-0.5428,-0.5428,-0.5428,-0.5428,-0.5428,-0.5428,-0.5428,-0.5428,-0.5428,-0.5466,-0.5518,-0.5742,-0.5681,-0.5749,-0.5969,-0.601,-0.603,-0.603,-0.6186,-0.62,-0.6091,-0.6207,-0.6338,-0.6338,-0.6338,-0.6338,-0.6338,-0.6338,-0.6338,-0.6338,-0.6338,-0.6325,-0.652,-0.6951,-0.7757,-0.8649,-0.9147,-1.0096,-1.1209,-1.198,-1.2498,-1.2942,-1.3822,-1.4496,-1.4963,-1.4963,-1.5384,-1.5832,-1.5832,-1.5832,-1.5832,-1.5832,-1.5832,-1.5832,-1.5832,-1.5832,-1.5832,-1.5832,-1.5832,-1.5832,-1.5832,-1.5832,-1.5832,-1.5832,-1.5832,-1.5832,-1.5832,-1.5832,-1.5832,-1.5832,-1.5832,-1.5832,-1.5832,-1.5832,-1.5832,-1.5832,-1.5832,-1.5832,-1.5832,-1.6046,-1.6052,-1.5832,-1.6553,-1.6854,-1.6707,-1.7221,-1.7508,-1.7582,-1.7582,-1.7582,0.0,-1.1476,0.0,-1.2721,-1.3006,0.0,0.0,0.0,-1.2822,-1.2802,-1.2485,-1.2118,-1.1917,-1.0266,-0.8478,-0.7386,-0.7142,-0.6671,-0.5579,-0.5428,-0.5428,-0.5428,-0.5428,-0.5428,-0.5428,-0.5428,-0.5428,-0.5428,-0.5428,-0.5428,-0.5428,-0.5498,-0.5586,-0.5599,-0.5725,-0.5796,-0.5813,-0.5959,-0.603,-0.603,-0.6186,-0.6257,-0.6247,-0.6257,-0.6338,-0.6338,-0.6338,-0.6338,-0.6338,-0.6338,-0.6338,-0.6338,-0.6338,-0.6268,-0.6461,-0.7789,-0.8324,-0.863,-1.0032,-1.13,-1.2237,-1.2242,-1.3033,-1.3997,-1.4088,-1.4496,-1.4963,-1.4963,-1.5384,-1.5832,-1.5832,-1.5832,-1.5832,-1.5832,-1.5832,-1.5832,-1.5832,-1.5832,-1.5832,-1.5832,-1.5832,-1.5832,-1.5832,-1.5832,-1.5832,-1.5832,-1.5832,-1.5832,-1.5832,-1.5832,-1.5832,-1.5832,-1.5832,-1.5832,-1.5832,-1.5832,-1.5832,-1.5832,-1.5832,-1.5832,-1.5832,-1.5845,-1.5845,-1.5832,-1.6152,-1.6446,-1.6707,-1.7021,-1.7315,-1.7582,-1.7582,-1.7582,0.0,0.0,0.0,-1.2627,-1.2979,-1.324,-1.334,-1.334,-1.3213,-1.2903,-1.2735,-1.2498,-1.2204,-1.0959,-0.9766,-0.9104,-0.7912,-0.6924,-0.6523,-0.5885,-0.5428,-0.5428,-0.5428,-0.5428,-0.5428,-0.5428,-0.5428,-0.5428,-0.5428,-0.5428,-0.5428,-0.5413,-0.5488,-0.5586,-0.5545,-0.5566,-0.5664,-0.581,-0.5932,-0.603,-0.6186,-0.6338,-0.6338,-0.6338,-0.6338,-0.6338,-0.6338,-0.6338,-0.6338,-0.6338,-0.6641,-0.7176,-0.6567,-0.6718,-0.737,-0.8104,-0.8891,-0.9769,-1.1218,-1.251,-1.347,-1.347,-1.3737,-1.4088,-1.4088,-1.4496,-1.4963,-1.4963,-1.5384,-1.5832,-1.5832,-1.5832,-1.5832,-1.5832,-1.5832,-1.5832,-1.5832,-1.5832,-1.5832,-1.5832,-1.5832,-1.5832,-1.5832,-1.5832,-1.5832,-1.5832,-1.5832,-1.5832,-1.5832,-1.5832,-1.5832,-1.5832,-1.5832,-1.5832,-1.5832,-1.5832,-1.5832,-1.5832,-1.5832,-1.5832,-1.5832,-1.6012,-1.6112,-1.6112,-1.64,-1.66,-1.6707,-1.7007,-1.7295,-1.7582,-1.7582,-1.7582,-1.0514,-1.0982,0.0,0.0,0.0,-1.2893,-1.3394,0.0,-1.3287,-1.3086,-1.2963,-1.2761,-1.2485,-1.1765,-1.0972,-1.0349,-0.9179,-0.7988,-0.7236,-0.6439,-0.5814,-0.5432,-0.5428,-0.5428,-0.5428,-0.5428,-0.5428,-0.5428,-0.5428,0.0,-0.5428,-0.5428,-0.541,-0.5511,-0.5413,-0.541,-0.5511,-0.5705,-0.585,-0.5956,-0.6162,-0.6338,-0.6338,-0.6338,-0.6338,-0.6338,-0.6338,-0.6338,-0.6338,-0.6338,-0.6721,-0.7249,-0.6945,-0.7176,-0.7902,-0.9068,-1.0034,-1.0919,-1.2416,-1.347,-1.4088,-1.4088,-1.4088,-1.4088,-1.4088,-1.4496,-1.4963,-1.4963,-1.5384,-1.5832,-1.5832,-1.5832,-1.5832,-1.5832,-1.5832,-1.5832,-1.5832,-1.5832,-1.5832,-1.5832,-1.5832,-1.5832,-1.5832,-1.5832,-1.5832,-1.5832,-1.5832,-1.5832,-1.5832,-1.5832,-1.5832,-1.5832,-1.5832,-1.5832,-1.5832,-1.5832,-1.5832,-1.5832,-1.5832,-1.5832,-1.5832,-1.6112,-1.6273,-1.6273,-1.656,-1.6754,-1.6854,-1.7054,-1.7295,-1.7582,-1.7582,-1.7582,0.0,0.0,0.0,0.0,0.0,0.0,-1.3701,0.0,-1.2906,-1.3507,-1.316,-1.2822,-1.2822,-1.2512,-1.1924,-1.084,-1.0641,-0.9811,-0.7495,-0.7163,-0.6751,-0.5586,-0.5435,-0.5432,-0.5428,-0.5428,-0.5428,-0.5428,-0.5428,-0.5428,-0.5428,-0.5428,-0.5428,-0.5428,-0.5428,-0.5428,-0.5428,-0.5654,-0.58,-0.5803,-0.6115,-0.6338,-0.6338,-0.6338,-0.6338,-0.6338,-0.6338,-0.6338,-0.6338,-0.6338,-0.6338,-0.649,-0.7403,-0.7783,-0.8132,-1.0671,-1.1662,-1.19,-1.3541,-1.4088,-1.4088,-1.4088,-1.4088,-1.4088,-1.4095,-1.4502,-1.4963,-1.4977,-1.5391,-1.5832,-1.5832,-1.5832,-1.5832,-1.5832,-1.5832,-1.5832,-1.5832,-1.5832,-1.5832,-1.5832,-1.5832,-1.5832,-1.5832,-1.5832,-1.5832,-1.5832,-1.5832,-1.5832,-1.5832,-1.5832,-1.5832,-1.5832,-1.5832,-1.5832,-1.5832,-1.5832,-1.5832,-1.5832,-1.5832,-1.5832,-1.5838,-1.6126,-1.6293,-1.6299,-1.6587,-1.6874,-1.7161,-1.7154,-1.7295,-1.7582,-1.7582,-1.7582,-1.0094,0.0,0.0,0.0,0.0,0.0,0.0,0.0,-1.2599,-1.3206,-1.3019,-1.2822,-1.2822,-1.2755,-1.245,-1.1931,-1.1124,-1.0372,-0.9723,-0.8915,-0.7896,-0.6759,-0.6603,-0.6285,-0.5505,-0.5428,-0.5428,0.0,-0.5428,-0.5428,-0.5428,-0.5428,-0.5428,-0.5428,-0.5428,-0.5428,-0.5428,-0.5654,-0.58,-0.5803,-0.6115,-0.6338,-0.6338,-0.6338,-0.6338,-0.6338,-0.6338,-0.6718,-0.7403,-0.7403,-0.7783,-0.8389,-0.8008,-0.8237,-0.9047,-1.0195,-1.0606,-1.0919,-1.3284,-1.4088,-1.4088,-1.4088,-1.4088,-1.4128,-1.4335,-1.4669,-1.501,-1.5217,-1.5545,-1.5832,-1.5832,-1.5832,-1.5832,-1.5832,-1.5832,-1.5832,-1.5832,-1.5832,-1.5832,-1.5832,-1.5832,-1.5832,-1.5832,-1.5832,-1.5832,-1.5832,-1.5832,-1.5832,-1.5832,-1.5832,-1.5832,-1.5832,-1.5832,-1.5832,-1.5832,-1.5832,-1.5832,-1.5832,-1.5832,-1.5925,-1.6139,-1.6433,-1.6687,-1.6901,-1.7194,-1.7382,-1.7462,-1.7248,-1.7295,-1.7582,-1.7582,-1.7582,-1.0147,-1.0421,-1.0835,-1.1256,0.0,0.0,-1.2458,-1.2392,-1.2365,0.0,-1.3046,-1.2862,-1.2919,-1.2732,-1.2505,-1.2331,-1.1713,-1.113,-1.0653,-0.9999,-0.9103,-0.7974,-0.7812,-0.7358,-0.6298,-0.6222,-0.6017,-0.5614,-0.5545,-0.5518,-0.546,-0.5511,-0.5488,-0.5432,-0.5423,-0.5457,-0.5457,-0.5684,-0.5833,-0.5898,-0.6146,-0.6338,-0.6338,-0.6338,-0.6338,-0.6338,-0.6338,-0.6872,-0.7859,-0.8237,-0.8765,-0.9296,-0.914,-0.9499,-1.0171,-1.1112,-1.1485,-1.1881,-1.3497,-1.4088,-1.4088,-1.4088,-1.4088,-1.4142,-1.4436,-1.473,-1.5023,-1.5311,-1.5605,-1.5832,-1.5832,-1.5832,-1.5832,-1.5832,-1.5832,-1.5832,-1.5832,-1.5832,-1.5832,-1.5832,-1.5832,-1.5832,-1.5832,-1.5832,-1.5832,-1.5832,-1.5832,-1.5832,-1.5832,-1.5832,-1.5832,-1.5832,-1.5832,-1.5832,-1.5832,-1.5832,-1.5832,-1.5832,-1.5832,-1.5965,-1.6259,-1.6553,-1.6847,-1.7141,-1.7435,-1.7582,-1.7582,-1.7415,-1.7415,-1.7582,-1.7582,-1.7582,-1.0334,-1.0668,-1.1202,-1.1657,-1.145,0.0,-1.2685,-1.2371,-1.2131,0.0,-1.2993,-1.2692,-1.3006,-1.2645,-1.2278,-1.2211,-1.2285,-1.2024,-1.0936,-1.0755,-1.036,-0.9173,-0.9006,-0.8574,-0.7425,-0.7279,-0.6857,-0.5871,-0.58,-0.5745,-0.562,-0.5732,-0.5681,-0.5483,-0.5542,-0.5613,-0.5613,-0.5755,-0.5895,-0.603,-0.6186,-0.6338,-0.6338,-0.6338,-0.6338,-0.6338,-0.6416,-0.7022,-0.8008,-0.9069,-0.9448,-0.9518,-1.0415,-1.0953,-1.1385,-1.2615,-1.3226,-1.3517,-1.3981,-1.4088,-1.4088,-1.4088,-1.4088,-1.4148,-1.4469,-1.475,-1.503,-1.5351,-1.5631,-1.5832,-1.5832,-1.5832,-1.5832,-1.5832,-1.5832,-1.5832,-1.5832,-1.5832,-1.5832,-1.5832,-1.5832,-1.5832,-1.5832,-1.5832,-1.5832,-1.5832,-1.5832,-1.5832,-1.5832,-1.5832,-1.5832,-1.5832,-1.5832,-1.5832,-1.5832,-1.5832,-1.5832,-1.5832,-1.5858,-1.6012,-1.6306,-1.66,-1.6894,-1.7194,-1.7455,-1.7582,-1.7582,-1.7582,-1.7582,-1.7582,-1.7582,-1.7582,-1.1182,-1.143,-1.1617,-1.1256,-1.161,0.0,-1.1516,-1.147,-1.1643,0.0,-1.1931,-1.1777,-1.2078,-1.2225,-1.2151,-1.167,-1.2198,-1.2552,-1.2037,-1.1991,-1.1516,-1.0372,-1.0265,-0.9466,-0.7509,-0.7279,-0.6857,-0.5871,-0.58,-0.5789,-0.5762,-0.5786,-0.5776,-0.5718,-0.5745,-0.5762,-0.5762,-0.5911,-0.6,-0.603,-0.6186,-0.6338,-0.6338,-0.6338,-0.6338,-0.6338,-0.7176,-0.8089,-0.9069,-1.0115,-1.049,-1.0565,-1.0714,-1.0953,-1.1224,-1.1805,-1.2152,-1.2591,-1.3723,-1.4088,-1.4088,-1.4088,-1.4088,-1.4188,-1.4716,-1.4917,-1.507,-1.5598,-1.5785,-1.5832,-1.5832,-1.5832,-1.5832,-1.5832,-1.5832,-1.5832,-1.5832,-1.5832,-1.5832,-1.5832,-1.5832,-1.5832,-1.5832,-1.5832,-1.5832,-1.5832,-1.5832,-1.5832,-1.5832,-1.5832,-1.5832,-1.5832,-1.5832,-1.5832,-1.5832,-1.5832,-1.5832,-1.5832,-1.6052,-1.6319,-1.6607,-1.6907,-1.7201,-1.7495,-1.7555,-1.7582,-1.7582,-1.7582,-1.7582,-1.7582,-1.7582,-1.7582,-1.147,-1.1643,-1.183,-1.1683,-1.1757,0.0,0.0,-1.1423,-1.1376,-1.1964,-1.1737,-1.1563,-1.2004,-1.1964,-1.1817,-1.167,-1.2138,-1.2472,-1.2325,-1.2565,-1.2494,-1.1813,-1.1706,-1.0991,-0.9187,-0.8588,-0.7642,-0.6179,-0.603,-0.5996,-0.5918,-0.5989,-0.5959,-0.5806,-0.5874,-0.5915,-0.5915,-0.5989,-0.6067,-0.6146,-0.6224,-0.6338,-0.6338,-0.6338,-0.6567,-0.7099,-0.7557,-0.8689,-1.0115,-1.0559,-1.1087,-1.1545,-1.1545,-1.1809,-1.2205,-1.2422,-1.2738,-1.3201,-1.3866,-1.4088,-1.4088,-1.4088,-1.4088,-1.4195,-1.4783,-1.5164,-1.5458,-1.5745,-1.5832,-1.5832,-1.5832,-1.5832,-1.5832,-1.5832,-1.5832,-1.5832,-1.5832,-1.5832,-1.5832,-1.5832,-1.5832,-1.5832,-1.5832,-1.5832,-1.5832,-1.5832,-1.5832,-1.5832,-1.5832,-1.5832,-1.5832,-1.5832,-1.5832,-1.5832,-1.5832,-1.5832,-1.5832,-1.5832,-1.5972,-1.6246,-1.6687,-1.6847,-1.7134,-1.7575,-1.7582,-1.7582,-1.7582,-1.7582,-1.7582,-1.7582,-1.7435,-1.7368,-1.1577,-1.173,-1.1984,-1.2104,-1.1904,-1.173,0.0,0.0,0.0,0.0,0.0,0.0,0.0,0.0,0.0,0.0,0.0,0.0,0.0,-1.2792,0.0,-1.2705,-1.2788,-1.224,-1.0663,-0.9401,-0.8045,-0.6412,-0.6234,-0.6176,-0.6078,-0.6193,-0.6146,-0.5898,-0.601,-0.6074,-0.6074,-0.6074,-0.6135,-0.6338,-0.6338,-0.6338,-0.6338,-0.649,-0.7022,-0.7859,-0.8237,-0.9286,-1.0789,-1.1013,-1.1545,-1.2305,-1.2305,-1.2672,-1.3213,-1.3213,-1.3581,-1.4088,-1.4088,-1.4088,-1.4088,-1.4088,-1.4162,-1.4342,-1.4823,-1.5364,-1.5832,-1.5832,-1.5832,-1.5832,-1.5832,-1.5832,-1.5832,-1.5832,-1.5832,-1.5832,-1.5832,-1.5832,-1.5832,-1.5832,-1.5832,-1.5832,-1.5832,-1.5832,-1.5832,-1.5832,-1.5832,-1.5832,-1.5832,-1.5832,-1.5832,-1.5832,-1.5832,-1.5832,-1.5832,-1.5832,-1.5832,-1.5832,-1.5885,-1.6126,-1.6607,-1.6734,-1.7041,-1.7569,-1.7582,-1.7582,-1.7582,-1.7582,-1.7582,-1.7575,-1.7281,-1.7148,-1.183,-1.2031,-1.2131,-1.165,-1.2064,-1.2352,-1.1108,0.0,-1.1577,-1.0895,0.0,0.0,0.0,0.0,0.0,0.0,0.0,0.0,-1.1957,-1.2665,-1.2999,-1.2418,-1.2585,-1.1936,-0.9695,-0.7626,-0.6335,-0.6328,-0.6132,-0.6108,-0.623,-0.6251,-0.6244,-0.621,-0.6227,-0.6234,-0.6234,-0.6234,-0.6244,-0.6338,-0.6338,-0.6338,-0.6338,-0.7249,-0.7706,-0.7936,-0.9658,-1.0559,-1.0858,-1.1768,-1.2224,-1.2305,-1.2305,-1.2672,-1.3213,-1.3213,-1.3581,-1.4088,-1.4088,-1.4088,-1.4088,-1.4088,-1.4436,-1.4877,-1.4943,-1.5364,-1.5832,-1.5832,-1.5832,-1.5832,-1.5832,-1.5832,-1.5832,-1.5832,-1.5832,-1.5832,-1.5832,-1.5832,-1.5832,-1.5832,-1.5832,-1.5832,-1.5832,-1.5832,-1.5832,-1.5832,-1.5832,-1.5832,-1.5832,-1.5832,-1.5832,-1.5832,-1.5832,-1.5832,-1.5832,-1.5832,-1.5832,-1.5832,-1.6079,-1.6253,-1.6319,-1.6827,-1.7255,-1.7575,-1.7582,-1.7582,-1.7582,-1.7582,-1.7582,-1.7575,-1.7281,-1.7148,-1.187,-1.2084,-1.2245,-1.1997,-1.1957,-1.1864,-1.1423,-1.1276,-1.1102,-1.1069,0.0,0.0,0.0,0.0,0.0,0.0,-1.1363,0.0,0.0,0.0,-1.2652,0.0,0.0,0.0,-0.8637,-0.7559,-0.687,-0.6331,-0.62,-0.6227,-0.6376,-0.6383,-0.6383,-0.6383,-0.6302,-0.6338,-0.6338,-0.6338,-0.6338,-0.6338,-0.6338,-0.6338,-0.6338,-0.7326,-0.8089,-0.8765,-1.0185,-1.1162,-1.1694,-1.215,-1.2305,-1.2318,-1.2492,-1.2826,-1.3213,-1.3213,-1.3581,-1.4088,-1.4088,-1.4088,-1.4088,-1.4088,-1.4482,-1.4963,-1.4963,-1.5364,-1.5832,-1.5832,-1.5832,-1.5832,-1.5832,-1.5832,-1.5832,-1.5832,-1.5832,-1.5832,-1.5832,-1.5832,-1.5832,-1.5832,-1.5832,-1.5832,-1.5832,-1.5832,-1.5832,-1.5832,-1.5832,-1.5832,-1.5832,-1.5832,-1.5832,-1.5832,-1.5832,-1.5832,-1.5832,-1.5832,-1.5832,-1.5832,-1.6112,-1.6273,-1.6273,-1.6673,-1.6947,-1.7074,-1.7248,-1.7328,-1.7328,-1.7502,-1.7495,-1.7321,-1.7027,-1.6894,-1.187,-1.2024,-1.2164,-1.2084,-1.1737,-1.1443,-1.1496,-1.1142,-1.0868,-1.1136,-1.1042,0.0,0.0,0.0,-1.0722,-1.0855,0.0,-1.1336,0.0,-1.1797,0.0,0.0,0.0,0.0,0.0,-0.7462,-0.7015,-0.6386,-0.6244,-0.6295,-0.6522,-0.6536,-0.6515,-0.6474,-0.6373,-0.6298,-0.6338,-0.6338,-0.6338,-0.6338,-0.6338,-0.6412,-0.6718,-0.7783,-0.8765,-0.9744,-1.0789,-1.162,-1.2305,-1.2305,-1.2305,-1.2331,-1.2708,-1.2933,-1.322,-1.33,-1.3654,-1.4088,-1.4088,-1.4088,-1.4102,-1.4182,-1.4549,-1.4977,-1.5057,-1.5431,-1.5832,-1.5832,-1.5832,-1.5832,-1.5832,-1.5832,-1.5832,-1.5832,-1.5832,-1.5832,-1.5832,-1.5832,-1.5832,-1.5832,-1.5832,-1.5832,-1.5832,-1.5832,-1.5832,-1.5832,-1.5832,-1.5832,-1.5832,-1.5832,-1.5832,-1.5832,-1.5832,-1.5832,-1.5832,-1.5832,-1.5832,-1.5832,-1.6032,-1.6186,-1.6273,-1.6473,-1.662,-1.6707,-1.6914,-1.7027,-1.7027,-1.7241,-1.7235,-1.7021,-1.6807,-1.666,-1.187,-1.1877,-1.181,-1.1523,-1.1436,-1.1283,-1.0792,-1.1015,-1.1243,-1.0701,-1.1249,-1.157,-1.0792,-1.0795,-1.0895,-1.0678,-1.0815,0.0,0.0,0.0,0.0,0.0,0.0,0.0,0.0,-0.6648,-0.607,0.0,-0.62,-0.623,-0.6671,-0.6695,-0.6624,-0.6478,-0.6468,-0.64,-0.6264,-0.6338,-0.6338,-0.6338,-0.6338,-0.6795,-0.7783,-0.877,-0.982,-1.0783,-1.1848,-1.2305,-1.2305,-1.2305,-1.2305,-1.2331,-1.2708,-1.2933,-1.324,-1.3527,-1.3821,-1.4088,-1.4088,-1.4088,-1.4135,-1.4416,-1.471,-1.5017,-1.5297,-1.5591,-1.5832,-1.5832,-1.5832,-1.5832,-1.5832,-1.5832,-1.5832,-1.5832,-1.5832,-1.5832,-1.5832,-1.5832,-1.5832,-1.5832,-1.5832,-1.5832,-1.5832,-1.5832,-1.5832,-1.5832,-1.5832,-1.5832,-1.5832,-1.5832,-1.5832,-1.5832,-1.5832,-1.5832,-1.5832,-1.5832,-1.5832,-1.5832,-1.5838,-1.5972,-1.6259,-1.6279,-1.642,-1.67,-1.6714,-1.672,-1.672,-1.6727,-1.6727,-1.672,-1.6707,-1.6553,0.0,0.0,-1.2084,-1.179,-1.157,-1.1376,-1.1176,-1.1136,-1.1136,-1.1136,-1.1369,-1.1483,-1.1189,-1.1209,-1.1182,-1.0895,-1.0929,-1.0962,0.0,-1.1015,0.0,0.0,0.0,0.0,0.0,0.0,0.0,-0.6454,-0.638,-0.6478,-0.6831,-0.6851,-0.6827,-0.6776,-0.6576,-0.6451,-0.6403,-0.6308,-0.6338,-0.6338,-0.6945,-0.748,-0.7859,-0.9513,-1.049,-1.0864,-1.1848,-1.2305,-1.2305,-1.2305,-1.2305,-1.2351,-1.2859,-1.312,-1.3247,-1.3534,-1.3834,-1.4088,-1.4088,-1.4088,-1.4135,-1.4429,-1.4723,-1.5017,-1.5311,-1.5598,-1.5832,-1.5832,-1.5832,-1.5832,-1.5832,-1.5832,-1.5832,-1.5832,-1.5832,-1.5832,-1.5832,-1.5832,-1.5832,-1.5832,-1.5832,-1.5832,-1.5832,-1.5832,-1.5832,-1.5832,-1.5832,-1.5832,-1.5832,-1.5832,-1.5832,-1.5832,-1.5832,-1.5832,-1.5832,-1.5832,-1.5832,-1.5832,-1.5832,-1.5872,-1.5972,-1.5979,-1.6025,-1.6126,-1.6319,-1.642,-1.642,-1.6613,-1.6607,-1.642,-1.642,-1.6366,-1.171,-1.185,0.0,-1.1757,-1.1563,-1.1403,-1.1296,-1.1289,-1.1296,-1.1276,-1.1523,-1.167,-1.1463,-1.1423,-1.1329,-1.1042,-1.0909,-1.0775,0.0,-1.0902,-1.0868,0.0,0.0,0.0,0.0,0.0,-0.6305,-0.661,-0.6532,-0.6627,0.0,-0.7004,-0.6983,-0.6929,-0.6736,-0.6583,-0.6474,-0.6383,-0.6542,-0.6872,-0.748,-0.8161,-0.8912,-1.0185,-1.1013,-1.1391,-1.2003,-1.2305,-1.2305,-1.2305,-1.2305,-1.2365,-1.2973,-1.3213,-1.326,-1.3654,-1.3921,-1.4088,-1.4088,-1.4088,-1.4155,-1.4549,-1.481,-1.5037,-1.5431,-1.5678,-1.5832,-1.5832,-1.5832,-1.5832,-1.5832,-1.5832,-1.5832,-1.5832,-1.5832,-1.5832,-1.5832,-1.5832,-1.5832,-1.5832,-1.5832,-1.5832,-1.5832,-1.5832,-1.5832,-1.5832,-1.5832,-1.5832,-1.5832,-1.5832,-1.5832,-1.5832,-1.5832,-1.5832,-1.5832,-1.5832,-1.5832,-1.5832,-1.5832,-1.5832,-1.5832,-1.5832,-1.5832,-1.5832,-1.6019,-1.6112,-1.6112,-1.6299,-1.6299,-1.6112,-1.6112,-1.6112]},{"header":{"parameterUnit":"m.s-1","parameterCategory":1,"la1":30.6,"la2":29.2853,"lo1":-89.7004,"lo2":-87.6739,"dy":0.0162,"dx":0.0183,"nx":112,"ny":82,"refTime":"2024-09-28T06:00:00:Z","depth":0,"parameterNumber":3,"parameterNumberName":"V-component_of_WINDS"},"data":[0.0,0.0,0.0,0.0,0.0,0.0,0.0,0.0,0.0,0.0,0.0,0.0,0.0,0.0,0.0,0.0,0.0,0.0,0.0,0.0,0.0,0.0,0.0,0.0,0.0,0.0,0.0,0.0,0.0,0.0,0.0,0.0,0.0,0.0,0.0,0.0,0.0,0.0,0.0,0.0,0.0,0.0,0.0,0.0,0.0,0.0,0.0,0.0,0.0,0.0,0.0,0.0,0.0,0.0,0.0,0.0,0.0,0.0,0.0,0.0,0.0,0.0,0.0,0.0,0.0,0.0,0.0,0.0,0.0,0.0,0.0,0.0,0.0,0.0,0.0,0.0,0.0,0.0,0.0,0.0,0.0,0.0,0.0,0.0,0.0,0.0,0.0,0.0,0.0,0.0,-3.3685,-3.4425,-3.3876,-3.3235,-3.2788,-3.3287,-3.3256,-3.2459,0.0,0.0,0.0,0.0,0.0,0.0,0.0,0.0,0.0,0.0,0.0,0.0,0.0,0.0,0.0,0.0,0.0,0.0,0.0,0.0,0.0,0.0,0.0,0.0,0.0,0.0,0.0,0.0,0.0,0.0,0.0,0.0,0.0,0.0,0.0,0.0,0.0,0.0,0.0,0.0,0.0,0.0,0.0,0.0,0.0,0.0,0.0,0.0,0.0,0.0,0.0,0.0,0.0,0.0,0.0,0.0,0.0,0.0,0.0,0.0,0.0,0.0,0.0,0.0,0.0,0.0,0.0,0.0,0.0,0.0,0.0,0.0,0.0,0.0,0.0,0.0,0.0,0.0,0.0,0.0,0.0,0.0,0.0,0.0,0.0,0.0,0.0,0.0,0.0,0.0,0.0,0.0,0.0,0.0,0.0,0.0,0.0,0.0,0.0,0.0,0.0,0.0,0.0,0.0,-3.3681,-3.4485,-3.3483,-3.2949,-3.3391,-3.3531,-3.3256,-3.2459,0.0,0.0,0.0,0.0,0.0,0.0,0.0,0.0,0.0,0.0,0.0,0.0,0.0,0.0,0.0,0.0,0.0,0.0,0.0,0.0,0.0,0.0,0.0,0.0,0.0,0.0,0.0,0.0,0.0,0.0,0.0,0.0,0.0,0.0,0.0,0.0,0.0,0.0,0.0,0.0,0.0,0.0,0.0,0.0,0.0,0.0,0.0,0.0,0.0,0.0,0.0,0.0,0.0,0.0,0.0,0.0,0.0,0.0,0.0,0.0,0.0,0.0,0.0,0.0,0.0,0.0,0.0,0.0,0.0,0.0,0.0,0.0,0.0,0.0,0.0,0.0,0.0,0.0,0.0,0.0,0.0,0.0,0.0,0.0,0.0,0.0,0.0,0.0,0.0,0.0,0.0,0.0,0.0,0.0,0.0,0.0,0.0,0.0,0.0,0.0,0.0,0.0,0.0,-3.3242,-3.3624,-3.4023,-3.3495,-3.2986,-3.2516,-3.3479,-3.3486,-3.1932,-3.1774,0.0,0.0,0.0,0.0,0.0,0.0,0.0,0.0,0.0,0.0,0.0,0.0,0.0,0.0,0.0,0.0,0.0,0.0,0.0,0.0,0.0,0.0,0.0,0.0,0.0,0.0,0.0,0.0,0.0,0.0,0.0,0.0,0.0,0.0,0.0,0.0,0.0,0.0,0.0,0.0,0.0,0.0,0.0,0.0,0.0,0.0,0.0,0.0,0.0,0.0,0.0,0.0,0.0,0.0,0.0,0.0,0.0,0.0,0.0,0.0,0.0,0.0,0.0,0.0,0.0,0.0,0.0,0.0,0.0,0.0,0.0,0.0,0.0,0.0,0.0,0.0,0.0,0.0,0.0,0.0,0.0,0.0,0.0,0.0,0.0,0.0,0.0,0.0,0.0,0.0,0.0,0.0,0.0,0.0,0.0,0.0,0.0,0.0,0.0,0.0,0.0,0.0,-3.3968,-3.373,-3.3601,-3.3271,-3.281,-3.2048,-3.3109,-3.3191,-3.1704,-3.1041,0.0,0.0,0.0,0.0,0.0,0.0,0.0,0.0,0.0,0.0,0.0,0.0,0.0,0.0,0.0,0.0,0.0,0.0,0.0,0.0,0.0,0.0,0.0,0.0,0.0,0.0,0.0,0.0,0.0,0.0,0.0,0.0,0.0,0.0,0.0,0.0,0.0,0.0,0.0,0.0,0.0,0.0,0.0,0.0,0.0,0.0,0.0,0.0,0.0,0.0,0.0,0.0,0.0,0.0,0.0,0.0,0.0,0.0,0.0,0.0,0.0,0.0,0.0,0.0,0.0,0.0,0.0,0.0,0.0,0.0,0.0,0.0,0.0,0.0,0.0,0.0,0.0,0.0,0.0,0.0,0.0,0.0,0.0,0.0,0.0,0.0,0.0,0.0,0.0,0.0,0.0,0.0,0.0,0.0,0.0,0.0,0.0,0.0,0.0,0.0,0.0,0.0,-3.4136,-3.4374,-3.3646,-3.2407,-3.2145,-3.3339,-3.2348,-3.1797,-3.221,-3.0289,0.0,0.0,0.0,0.0,0.0,0.0,0.0,0.0,0.0,0.0,0.0,0.0,0.0,0.0,0.0,0.0,0.0,0.0,0.0,0.0,0.0,0.0,0.0,0.0,0.0,0.0,0.0,0.0,0.0,0.0,0.0,0.0,0.0,0.0,0.0,0.0,0.0,0.0,0.0,0.0,0.0,0.0,0.0,0.0,0.0,0.0,0.0,0.0,0.0,0.0,0.0,0.0,0.0,0.0,0.0,0.0,0.0,0.0,0.0,0.0,0.0,0.0,0.0,0.0,0.0,0.0,0.0,0.0,0.0,0.0,0.0,0.0,0.0,0.0,0.0,0.0,0.0,0.0,0.0,0.0,0.0,0.0,0.0,0.0,0.0,0.0,0.0,0.0,0.0,0.0,0.0,0.0,0.0,0.0,0.0,0.0,0.0,0.0,0.0,0.0,0.0,0.0,-3.4137,-3.4529,-3.4252,-3.377,-3.3463,-3.3582,-3.3434,-3.2857,-3.1765,0.0,0.0,0.0,0.0,0.0,0.0,0.0,0.0,0.0,0.0,0.0,0.0,0.0,0.0,0.0,0.0,0.0,0.0,0.0,0.0,0.0,0.0,0.0,0.0,0.0,0.0,0.0,0.0,0.0,0.0,0.0,0.0,0.0,0.0,0.0,0.0,0.0,0.0,0.0,0.0,0.0,0.0,0.0,0.0,0.0,0.0,0.0,0.0,0.0,0.0,0.0,0.0,0.0,0.0,0.0,0.0,0.0,0.0,0.0,0.0,0.0,0.0,0.0,0.0,0.0,0.0,0.0,0.0,0.0,0.0,0.0,0.0,0.0,0.0,0.0,0.0,0.0,0.0,0.0,0.0,0.0,0.0,0.0,0.0,0.0,0.0,0.0,0.0,0.0,0.0,0.0,0.0,0.0,0.0,0.0,0.0,0.0,0.0,0.0,0.0,0.0,0.0,-3.3474,-3.4505,-3.5135,-3.4625,-3.4431,-3.4088,-3.363,-3.3528,-3.2737,-3.1016,0.0,0.0,0.0,0.0,0.0,0.0,0.0,0.0,0.0,0.0,0.0,0.0,0.0,0.0,0.0,0.0,0.0,0.0,0.0,0.0,0.0,0.0,0.0,0.0,0.0,0.0,0.0,0.0,0.0,0.0,0.0,0.0,0.0,0.0,0.0,0.0,0.0,0.0,0.0,0.0,0.0,0.0,0.0,0.0,0.0,0.0,0.0,0.0,0.0,0.0,0.0,0.0,0.0,0.0,0.0,0.0,0.0,0.0,0.0,0.0,0.0,0.0,0.0,0.0,0.0,0.0,0.0,0.0,0.0,0.0,0.0,0.0,0.0,0.0,0.0,0.0,0.0,0.0,0.0,0.0,0.0,0.0,0.0,0.0,0.0,0.0,0.0,0.0,0.0,0.0,0.0,0.0,0.0,0.0,0.0,0.0,0.0,0.0,0.0,0.0,0.0,0.0,-3.3609,-3.5418,-3.624,-3.4789,-3.4037,-3.3596,-3.3541,-3.2175,-3.0957,0.0,0.0,0.0,0.0,0.0,0.0,0.0,0.0,0.0,0.0,0.0,0.0,0.0,0.0,0.0,0.0,0.0,0.0,0.0,0.0,0.0,0.0,0.0,0.0,0.0,0.0,0.0,0.0,0.0,0.0,0.0,0.0,0.0,0.0,0.0,0.0,0.0,0.0,0.0,0.0,0.0,0.0,0.0,0.0,0.0,0.0,0.0,0.0,0.0,0.0,0.0,0.0,0.0,0.0,0.0,0.0,0.0,0.0,0.0,0.0,0.0,0.0,0.0,0.0,0.0,0.0,0.0,0.0,0.0,0.0,0.0,0.0,0.0,0.0,0.0,0.0,0.0,0.0,0.0,0.0,0.0,0.0,0.0,0.0,0.0,0.0,0.0,0.0,0.0,0.0,0.0,0.0,0.0,0.0,0.0,0.0,0.0,0.0,0.0,0.0,0.0,0.0,0.0,-3.4303,-3.6194,-3.7196,-3.6269,-3.5479,-3.4814,-3.4259,-3.3335,-3.2001,-3.0188,0.0,0.0,0.0,0.0,0.0,0.0,0.0,0.0,0.0,0.0,0.0,0.0,0.0,0.0,0.0,0.0,0.0,0.0,0.0,0.0,0.0,0.0,0.0,0.0,0.0,0.0,0.0,0.0,0.0,0.0,0.0,0.0,0.0,0.0,0.0,0.0,0.0,0.0,0.0,0.0,0.0,0.0,0.0,0.0,0.0,0.0,0.0,0.0,0.0,0.0,0.0,0.0,0.0,0.0,0.0,0.0,0.0,0.0,0.0,0.0,0.0,0.0,0.0,0.0,0.0,0.0,0.0,0.0,0.0,0.0,0.0,0.0,0.0,0.0,0.0,0.0,0.0,0.0,0.0,0.0,0.0,0.0,0.0,0.0,0.0,0.0,0.0,0.0,0.0,0.0,0.0,0.0,0.0,0.0,0.0,0.0,0.0,0.0,0.0,0.0,0.0,0.0,-3.5013,-3.6671,-3.7618,-3.6857,-3.6079,-3.5199,-3.415,-3.366,-3.2476,-3.0243,0.0,0.0,0.0,0.0,0.0,0.0,0.0,0.0,0.0,0.0,0.0,0.0,0.0,0.0,0.0,0.0,0.0,0.0,0.0,0.0,0.0,0.0,0.0,0.0,0.0,0.0,0.0,0.0,0.0,0.0,0.0,0.0,0.0,0.0,0.0,0.0,0.0,0.0,0.0,0.0,0.0,0.0,0.0,0.0,0.0,0.0,0.0,0.0,0.0,0.0,0.0,0.0,0.0,0.0,0.0,0.0,0.0,0.0,0.0,0.0,0.0,0.0,0.0,0.0,0.0,0.0,0.0,0.0,0.0,0.0,0.0,0.0,0.0,0.0,0.0,0.0,0.0,0.0,0.0,0.0,0.0,0.0,0.0,0.0,0.0,0.0,0.0,0.0,0.0,0.0,0.0,0.0,0.0,0.0,0.0,0.0,0.0,0.0,0.0,0.0,0.0,0.0,-3.5723,-3.6992,-3.7652,-3.6958,-3.6062,-3.4945,-3.3525,-3.3339,-3.2391,-3.0243,0.0,0.0,0.0,0.0,0.0,0.0,0.0,0.0,0.0,0.0,0.0,0.0,0.0,0.0,0.0,0.0,0.0,0.0,0.0,0.0,0.0,0.0,0.0,0.0,0.0,0.0,0.0,0.0,0.0,0.0,0.0,0.0,0.0,0.0,0.0,0.0,0.0,0.0,0.0,0.0,0.0,0.0,0.0,0.0,0.0,0.0,0.0,0.0,0.0,0.0,0.0,0.0,0.0,0.0,0.0,0.0,0.0,0.0,0.0,0.0,-2.8044,0.0,0.0,0.0,0.0,0.0,0.0,0.0,0.0,0.0,0.0,0.0,0.0,0.0,0.0,0.0,0.0,0.0,0.0,0.0,0.0,0.0,0.0,0.0,0.0,0.0,0.0,0.0,0.0,0.0,0.0,0.0,0.0,0.0,0.0,0.0,0.0,0.0,0.0,0.0,0.0,0.0,-3.6535,-3.7347,-3.7838,-3.7686,-3.591,-3.437,-3.3491,-3.2865,-3.1833,-3.0209,-2.9956,0.0,0.0,0.0,0.0,0.0,0.0,0.0,0.0,0.0,0.0,0.0,0.0,0.0,0.0,0.0,0.0,0.0,0.0,0.0,0.0,0.0,0.0,0.0,0.0,0.0,0.0,0.0,0.0,0.0,0.0,0.0,0.0,0.0,0.0,0.0,0.0,0.0,0.0,0.0,0.0,0.0,0.0,0.0,0.0,0.0,0.0,0.0,0.0,0.0,0.0,0.0,0.0,0.0,0.0,0.0,0.0,0.0,0.0,0.0,0.0,-2.9854,0.0,0.0,0.0,0.0,0.0,0.0,0.0,0.0,0.0,0.0,0.0,0.0,0.0,0.0,0.0,0.0,0.0,0.0,0.0,0.0,0.0,0.0,0.0,0.0,0.0,0.0,0.0,0.0,0.0,0.0,0.0,0.0,0.0,0.0,0.0,0.0,0.0,0.0,0.0,0.0,-3.6772,-3.7432,-3.777,-3.7398,-3.5639,-3.4201,-3.3457,-3.2713,-3.1952,-3.1207,-3.1052,0.0,0.0,0.0,0.0,0.0,0.0,0.0,0.0,0.0,0.0,0.0,0.0,0.0,0.0,0.0,0.0,0.0,0.0,0.0,0.0,0.0,0.0,0.0,0.0,0.0,0.0,0.0,0.0,0.0,0.0,0.0,0.0,0.0,0.0,0.0,0.0,0.0,0.0,0.0,0.0,0.0,0.0,0.0,0.0,0.0,0.0,0.0,0.0,0.0,0.0,0.0,0.0,0.0,-3.2797,-3.3186,-3.3795,-3.3795,-3.4117,-3.459,-3.3034,-3.2916,-3.3694,-3.2476,0.0,0.0,0.0,0.0,0.0,0.0,0.0,0.0,0.0,0.0,0.0,0.0,0.0,0.0,0.0,0.0,0.0,0.0,0.0,0.0,0.0,0.0,0.0,0.0,-3.8942,-3.8952,-3.7075,0.0,0.0,0.0,0.0,0.0,0.0,0.0,0.0,0.0,0.0,0.0,-3.6975,-3.7516,-3.7567,-3.6671,-3.5216,-3.4015,-3.3271,-3.2591,-3.2213,-3.2213,-3.2199,-3.2527,0.0,0.0,0.0,0.0,0.0,0.0,0.0,0.0,0.0,0.0,0.0,0.0,0.0,0.0,0.0,0.0,0.0,0.0,0.0,0.0,0.0,0.0,0.0,0.0,0.0,0.0,0.0,0.0,0.0,0.0,0.0,0.0,-2.7705,-2.7831,0.0,0.0,0.0,0.0,0.0,0.0,0.0,0.0,0.0,0.0,0.0,0.0,0.0,-3.2357,-3.3102,-3.3744,-3.41,-3.4201,-3.4861,-3.5233,-3.5334,-3.5334,-3.5385,-3.552,-3.6569,0.0,-3.5318,-3.5115,0.0,0.0,0.0,0.0,0.0,0.0,0.0,0.0,0.0,0.0,0.0,0.0,0.0,0.0,0.0,0.0,0.0,0.0,0.0,0.0,0.0,0.0,-4.1148,-4.0626,-4.0969,-4.1349,0.0,-3.9209,-3.7534,-3.7215,-3.6823,0.0,0.0,0.0,0.0,0.0,0.0,0.0,-3.7753,-3.7838,-3.7364,-3.5926,-3.4438,-3.3254,-3.2493,-3.2072,-3.1871,-3.1871,-3.288,-3.351,-3.3634,-3.363,0.0,0.0,0.0,0.0,0.0,0.0,0.0,0.0,0.0,0.0,0.0,0.0,0.0,0.0,0.0,0.0,0.0,0.0,0.0,0.0,0.0,0.0,0.0,0.0,0.0,0.0,0.0,0.0,0.0,-2.6859,-2.8311,-2.7754,-2.9171,-2.9678,0.0,0.0,0.0,0.0,0.0,0.0,0.0,0.0,0.0,-3.2865,-3.3305,-3.388,-3.4641,-3.4979,-3.5131,-3.5131,-3.547,-3.5622,-3.5639,-3.6079,-3.6265,-3.6332,-3.7432,-3.7753,-3.7483,-3.7077,-3.6654,-3.6231,0.0,0.0,0.0,0.0,-3.771,-3.7497,-3.8695,-3.8825,-3.839,-3.7972,0.0,0.0,0.0,0.0,0.0,0.0,0.0,0.0,0.0,0.0,-4.1707,-4.149,-4.1621,-4.1895,-4.2244,-4.1127,-3.9948,0.0,-3.9136,-3.8494,-3.6963,0.0,0.0,0.0,0.0,-3.8208,-3.7779,-3.7461,-3.6808,-3.5506,-3.4418,-3.3579,-3.3058,-3.2511,-3.2389,-3.2774,-3.4051,-3.4945,-3.5393,-3.5692,-3.5786,0.0,0.0,0.0,0.0,0.0,0.0,0.0,0.0,0.0,0.0,0.0,0.0,0.0,0.0,0.0,0.0,0.0,0.0,0.0,0.0,0.0,0.0,0.0,0.0,0.0,0.0,0.0,0.0,-2.7705,-2.8994,-2.793,-2.9994,-3.0886,0.0,0.0,0.0,0.0,0.0,0.0,-3.1985,-3.2544,-3.3186,-3.3947,-3.4506,-3.5047,-3.556,-3.5622,-3.5622,-3.5622,-3.5622,-3.5622,-3.5639,-3.6214,-3.6485,-3.6535,-3.728,-3.8018,-3.8601,-3.8089,-3.7865,-3.7848,-3.766,-3.7786,-3.8242,-3.9763,-3.9975,-3.973,-4.1276,-4.1421,-4.0878,-4.0352,-4.0113,-3.9878,-3.8886,0.0,0.0,0.0,0.0,-4.135,-4.1049,-4.1617,-4.2185,-4.2062,-4.2144,-4.2364,-4.2808,-4.2541,-4.2007,0.0,-4.1108,-4.0542,-3.9213,0.0,0.0,0.0,0.0,-3.8701,-3.8185,-3.7569,-3.6638,-3.527,-3.4613,-3.4032,-3.3369,-3.292,-3.2912,-3.3448,-3.4925,-3.6046,-3.6562,-3.7381,-3.7698,-3.7507,0.0,0.0,0.0,0.0,0.0,0.0,0.0,0.0,0.0,0.0,0.0,0.0,0.0,0.0,0.0,0.0,0.0,0.0,0.0,0.0,0.0,0.0,0.0,0.0,0.0,0.0,0.0,0.0,0.0,-2.9504,-3.1069,0.0,0.0,0.0,0.0,-3.207,-3.2171,-3.2797,-3.4252,-3.4353,-3.4726,-3.5487,-3.5537,-3.5588,-3.5622,-3.5622,-3.5622,-3.5622,-3.5622,-3.5622,-3.5622,-3.5656,-3.5673,-3.5723,-3.6502,-3.7126,-3.7586,-3.7819,-3.9016,-4.0614,-3.9905,-4.042,-4.1548,-4.1679,-4.1679,-4.1662,-4.1775,-4.1775,-4.174,-4.1704,-4.1502,-4.1395,-4.188,-4.2072,0.0,0.0,-4.225,-4.3123,-4.2032,-4.2582,-4.3286,-4.2788,-4.305,-4.341,-4.3444,-4.3444,-4.3232,0.0,-4.2149,-4.1492,-4.0701,0.0,-4.063,-4.06,-3.9934,-3.9434,-3.9398,-3.8722,-3.7341,-3.5066,-3.4783,-3.4164,-3.2661,-3.2939,-3.3184,-3.3238,-3.5137,-3.6274,-3.6311,-3.7826,-3.8285,-3.7496,-3.7434,0.0,0.0,0.0,0.0,0.0,0.0,0.0,0.0,0.0,0.0,0.0,0.0,0.0,0.0,0.0,0.0,0.0,0.0,0.0,0.0,0.0,0.0,0.0,0.0,0.0,0.0,0.0,0.0,-3.0404,-3.232,0.0,-3.1647,-3.1952,-3.2645,-3.3626,-3.3711,-3.415,-3.5165,-3.5216,-3.5351,-3.5605,-3.5622,-3.5622,-3.5622,-3.5131,-3.4895,-3.4895,-3.4421,-3.4355,-3.4614,-3.4614,-3.5059,-3.5797,-3.6093,-3.6893,-3.8,-3.8133,-3.8849,-3.9947,-4.0235,-4.0627,-4.1138,-4.2024,-4.2382,-4.2422,-4.2772,-4.2885,-4.2885,-4.2885,-4.2832,-4.2793,-4.3023,-4.3057,-4.3023,-4.2793,-4.3118,-4.341,-4.2977,-4.3196,-4.3444,-4.325,-4.3375,-4.3497,-4.3497,-4.3497,-4.3444,-4.325,-4.3032,-4.2649,-4.1851,-4.2141,-4.2141,-4.1107,-4.0419,-3.9856,-3.9299,-3.8305,-3.7197,-3.6163,-3.5554,-3.495,-3.4184,-3.3785,-3.3578,-3.3578,-3.5292,-3.6303,-3.6303,-3.7845,-3.8579,-3.8267,-3.7753,-3.6945,0.0,0.0,0.0,0.0,0.0,0.0,0.0,0.0,0.0,0.0,0.0,0.0,0.0,0.0,0.0,0.0,0.0,0.0,0.0,0.0,0.0,0.0,0.0,0.0,0.0,0.0,-3.2506,-3.1255,-3.2801,-3.3444,-3.2076,-3.2594,-3.344,-3.4421,-3.4489,-3.481,-3.5571,-3.5622,-3.5504,-3.525,-3.5233,-3.5115,-3.4878,-3.437,-3.4134,-3.4117,-3.3794,-3.3785,-3.4125,-3.4245,-3.4754,-3.5489,-3.5489,-3.62,-3.7377,-3.7644,-3.8165,-3.8866,-4.0036,-4.0592,-4.0876,-4.1831,-4.2141,-4.2232,-4.2569,-4.269,-4.2745,-4.3002,-4.3094,-4.3149,-4.3406,-4.3497,-4.3497,-4.3497,-4.3497,-4.3424,-4.3167,-4.3094,-4.302,-4.2745,-4.269,-4.269,-4.269,-4.2892,-4.3094,-4.3094,-4.3296,-4.3314,-4.28,-4.3149,-4.3039,-4.1717,-4.0988,-4.0271,-3.9454,-3.8417,-3.752,-3.7011,-3.6481,-3.586,-3.5082,-3.4523,-3.4211,-3.4211,-3.5514,-3.6413,-3.6688,-3.7734,-3.8414,-3.8689,-3.8175,-3.7771,-3.7514,0.0,0.0,0.0,0.0,0.0,0.0,0.0,0.0,0.0,0.0,0.0,0.0,0.0,0.0,0.0,0.0,0.0,0.0,0.0,0.0,0.0,0.0,0.0,-3.1978,-3.3352,-3.3702,-3.2126,-3.2572,-3.2572,-3.1331,-3.1884,-3.2916,-3.4353,-3.4455,-3.4776,-3.5504,-3.5554,-3.5216,-3.4515,-3.4498,-3.4159,-3.3448,-3.3414,-3.3414,-3.3397,-3.3837,-3.4056,-3.4094,-3.4496,-3.4659,-3.4712,-3.4712,-3.5027,-3.5602,-3.6378,-3.6999,-3.7649,-3.946,-4.056,-4.1075,-4.1111,-4.1111,-4.1111,-4.1111,-4.1111,-4.124,-4.2011,-4.2268,-4.2415,-4.3185,-4.3424,-4.3424,-4.3424,-4.3424,-4.324,-4.2451,-4.2268,-4.2066,-4.1295,-4.1111,-4.1111,-4.1111,-4.1717,-4.2268,-4.2268,-4.2892,-4.3424,-4.3479,-4.3497,-4.3222,-4.2396,-4.1607,0.0,-3.9955,-3.9184,-3.8395,-3.7606,-3.7496,-3.6835,-3.521,-3.5045,-3.5027,-3.5027,-3.5862,-3.6688,-3.7507,-3.7581,-3.7936,-3.8762,-3.8762,-3.9129,-3.99,0.0,0.0,0.0,0.0,0.0,0.0,0.0,0.0,0.0,0.0,0.0,0.0,0.0,0.0,0.0,0.0,0.0,0.0,0.0,0.0,0.0,-3.1568,-3.2991,-3.2501,-3.3502,-3.3799,-3.2506,-3.3206,-3.3326,-3.2133,-3.2645,-3.3271,-3.3677,-3.3694,-3.3795,-3.3998,-3.4015,-3.4083,-3.4215,-3.4197,-3.4259,-3.4344,-3.3803,-3.356,-3.356,-3.3108,-3.3138,-3.3437,-3.3548,-3.4091,-3.4927,-3.4927,-3.5351,-3.609,-3.6309,-3.6509,-3.6853,-3.9113,-4.0097,-4.0304,-4.0891,-4.1111,-4.1111,-4.1111,-4.1111,-4.1148,-4.1368,-4.1442,-4.1479,-4.1699,-4.1772,-4.1772,-4.1772,-4.1772,-4.1717,-4.1497,-4.1442,-4.1387,-4.1167,-4.1111,-4.1111,-4.1111,-4.1277,-4.1442,-4.1442,-4.1625,-4.2139,-4.3296,-4.3497,-4.302,-4.1644,-4.1258,0.0,-3.9221,-3.8836,-3.8615,-3.8395,-3.7845,-3.7294,-3.6835,-3.6285,-3.5936,-3.5936,-3.6707,-3.7514,-3.834,-3.8927,-3.9625,-4.0432,-3.9863,-3.968,0.0,0.0,0.0,0.0,0.0,0.0,0.0,0.0,0.0,0.0,0.0,0.0,0.0,0.0,0.0,0.0,0.0,0.0,0.0,0.0,0.0,0.0,-3.2449,-3.3642,-3.3183,-3.3952,-3.4256,-3.3394,-3.356,-3.3388,-3.2478,-3.2766,-3.3162,-3.3473,-3.349,-3.3628,-3.3938,-3.3955,-3.3934,-3.387,-3.3907,-3.3843,-3.3776,-3.3368,-3.3138,-3.3138,-3.2894,-3.2952,-3.3214,-3.3361,-3.3834,-3.4504,-3.4504,-3.478,-3.5275,-3.5624,-3.5771,0.0,0.0,0.0,0.0,0.0,-4.0102,-4.0102,-4.0102,-4.0102,-4.0157,-4.0487,-4.0598,-4.0671,-4.102,-4.1111,-4.1111,-4.1111,-4.1111,-4.1038,-4.0689,-4.0598,-4.0506,-4.0175,-4.0102,-4.0102,-4.0102,-4.0359,-4.0598,-4.0598,-4.0873,0.0,-4.2323,-4.2488,-4.2066,-4.0799,-4.0598,-4.0139,-3.8872,-3.8707,-3.8707,-3.8707,-3.8285,-3.7863,-3.7544,-3.7055,0.0,0.0,0.0,-3.8358,-3.9166,-3.9974,0.0,0.0,0.0,0.0,0.0,0.0,0.0,0.0,-4.1423,-4.1717,0.0,0.0,0.0,0.0,0.0,0.0,0.0,0.0,0.0,0.0,0.0,0.0,0.0,0.0,0.0,0.0,-3.2724,-3.366,-3.366,-3.4211,-3.4493,-3.4165,-3.34,-3.2762,-3.2284,-3.2219,-3.2502,-3.314,-3.3281,-3.3617,-3.4288,0.0,0.0,0.0,0.0,-3.3009,-3.2382,-3.2382,-3.2382,-3.2382,-3.2805,-3.3002,-3.3002,-3.347,-3.366,-3.3678,-3.3752,-3.3807,-3.3862,-3.4578,-3.4844,-3.4954,-3.5917,-3.6725,-3.7441,-3.8175,-3.8487,-3.856,-3.856,0.0,0.0,-3.9533,-3.9753,-3.99,-4.0616,-4.0836,-4.0836,-4.0836,-4.0836,-4.0671,-3.9955,-3.9753,-3.957,-3.8872,-3.8707,-3.8707,-3.8707,-3.9258,-3.9753,-3.9753,-4.0341,-4.0836,-4.0836,-4.0983,-4.0836,-4.001,-3.99,-3.9606,-3.8799,-3.8707,-3.8707,-3.8707,0.0,0.0,-3.7679,-3.7728,-3.8065,-3.8799,-3.9019,-3.9423,-4.0139,-4.0946,-4.1387,-4.1387,-4.2066,-4.2782,-4.3497,-4.3497,-4.3497,-4.3461,-4.2047,-4.2194,0.0,0.0,0.0,0.0,0.0,0.0,0.0,0.0,0.0,0.0,0.0,0.0,0.0,0.0,0.0,-3.2279,-3.2632,-3.2834,-3.2834,-3.2412,-3.219,-3.2419,-3.1748,-3.1088,-3.0627,-3.0547,-3.0617,-3.0759,-3.1373,-3.183,-3.1971,-3.1971,-3.208,-3.2313,-3.1673,-3.1433,-3.1618,-3.1618,-3.1618,-3.1618,0.0,0.0,-3.1759,-3.2515,-3.2834,-3.2871,-3.3532,-3.3807,-3.3807,-3.3972,-3.4027,-3.4174,-3.5716,-3.6395,-3.6541,-3.6707,-3.7165,-3.7716,-3.7716,-3.8157,-3.8726,-3.8891,-3.8927,-3.8964,-3.9129,-3.9166,0.0,-3.9166,-3.9166,-3.9129,-3.8964,-3.8927,-3.8891,-3.8744,-3.8707,-3.8707,-3.8707,-3.8817,-3.8927,-3.8927,-3.9056,-3.9166,-3.9166,-4.0249,-4.0836,-4.001,-3.99,-3.9606,-3.8799,-3.8707,-3.8707,-3.8707,-3.8707,-3.8634,-3.8487,-3.9056,-3.9496,-3.9662,-4.0891,-4.1662,-4.1827,-4.2598,-4.3039,-4.3039,-4.3185,-4.3332,-4.3497,-4.3497,-4.3497,-4.3479,-4.3167,-4.3552,0.0,0.0,0.0,0.0,0.0,0.0,0.0,0.0,0.0,0.0,0.0,-2.8984,-2.9457,0.0,-3.1732,-3.2262,-3.2348,-3.2348,-3.2348,-3.1663,-3.1279,-3.1654,-3.1319,-3.1029,-3.0756,-3.0756,-3.0756,-3.0756,-3.1117,-3.1351,-3.1351,-3.1351,-3.1482,-3.171,-3.1301,-3.1206,-3.1384,-3.1384,-3.1384,-3.1384,-3.1384,-3.1384,-3.1403,-3.1825,-3.2008,-3.2045,-3.2852,-3.3201,-3.3238,-3.3769,-3.3928,-3.3907,-3.4858,-3.5395,-3.5716,-3.6138,-3.6541,-3.6945,-3.7379,-3.7753,-3.8187,-3.8726,-3.8803,-3.8719,-3.8855,-3.8803,-3.8707,-3.8707,-3.8707,-3.8719,-3.8855,-3.8894,-3.8952,-3.91,-3.9154,-3.91,-3.8923,-3.8894,-3.8855,-3.8719,-3.8707,-3.8707,-3.8707,-3.9368,-3.9772,-3.9368,-3.9294,-3.9148,-3.8762,-3.8707,-3.8707,-3.8707,-3.9056,-3.9294,-3.9294,-4.0414,-4.1093,-4.1093,-4.2231,-4.2892,-4.2892,-4.3277,-4.3497,-4.3497,-4.3497,-4.3497,-4.3497,-4.3497,-4.3497,-4.3497,-4.3497,-4.392,0.0,0.0,0.0,0.0,0.0,0.0,0.0,0.0,-2.7281,-2.7988,-2.8917,-2.9691,-2.9962,-3.0826,-3.1656,-3.2053,-3.1958,-3.1808,-3.1638,-3.0922,-3.0452,-3.0567,-3.0696,-3.0741,-3.0711,-3.0687,-3.076,-3.0907,-3.1072,-3.1164,-3.1164,-3.1164,-3.1164,-3.1164,-3.1017,-3.0925,-3.0925,-3.0925,-3.0925,-3.0925,-3.0925,-3.0925,-3.0944,-3.1091,-3.1164,-3.1219,-3.2192,-3.2614,-3.2695,-3.3759,-3.4068,-3.3902,-3.4195,-3.4574,-3.4998,-3.5607,-3.5917,-3.6138,-3.678,-3.7261,-3.7708,-3.859,-3.8888,-3.8931,-3.9125,-3.9045,-3.8862,-3.8822,-3.8792,-3.8815,-3.9036,-3.9099,-3.9186,-3.9529,-3.9599,-3.9529,-3.9257,-3.9205,-3.9125,-3.8931,-3.8873,-3.8862,-3.8773,-3.8792,-3.8762,-3.8707,-3.8707,-3.8707,-3.8707,-3.8707,-3.8762,-3.8927,-3.9515,-4.0029,-4.0341,-4.1552,-4.2378,-4.2525,-4.313,-4.3497,-4.3497,-4.3497,-4.3497,-4.3497,-4.3497,-4.3497,-4.3497,-4.3497,-4.3497,-4.3497,-4.3497,-4.3846,-2.9257,-2.869,-2.8162,-2.8062,-2.7937,-2.8238,0.0,0.0,-2.9063,-2.9906,-3.0782,-3.1348,-3.1161,-3.1797,-3.2319,-3.2128,-3.1506,-3.0771,-2.9982,-2.9189,-2.8437,-2.7766,-2.8147,-2.8417,-2.8213,-2.8191,-2.8503,-2.9195,-2.9934,-3.0338,-3.0338,-3.0338,-3.0338,-3.0338,-2.9641,-2.925,-2.925,-2.925,-2.925,-2.925,-2.925,-2.925,-2.9287,-3.0008,-3.0338,-3.043,-3.1953,-3.2614,-3.2695,-3.3759,-3.4176,-3.4195,-3.4508,-3.4689,-3.4677,-3.4245,-3.4541,-3.5155,-3.5247,-3.6417,-3.7899,-3.8,-3.8683,-3.9505,-3.9529,-3.9529,-3.9432,-3.9125,-3.9063,-3.9044,-3.9099,-3.9099,-3.9186,-3.9529,-3.9599,-3.9599,-3.9552,-3.9534,-3.9529,-3.9505,-3.9505,-3.9408,-3.9117,-3.9063,-3.8971,-3.875,-3.8707,-3.8707,-3.8707,-3.8707,-3.8964,-3.968,-3.9845,-4.0469,-4.1901,-4.2194,-4.2598,-4.3314,-4.3442,-4.3497,-4.3497,-4.3497,-4.3497,-4.3497,-4.3497,-4.3497,-4.3497,-4.3497,-4.3497,-4.3497,-4.3497,-4.3534,-2.9351,-2.8887,-2.8379,-2.8848,-2.8908,-2.9049,-2.9719,-2.949,-2.9267,-2.9621,-2.9967,-3.0002,-2.9417,-2.9596,-2.978,0.0,-2.936,-2.9017,-2.8654,-2.8324,-2.7763,-2.6783,-2.735,-2.77,-2.7475,-2.7457,-2.7774,-2.8595,-2.8968,-2.9378,-2.9863,-2.99,-2.9857,-2.9724,-2.941,-2.9156,-2.8994,-2.9156,-2.9225,-2.9225,-2.9355,-2.9416,-2.9435,-2.9771,-3.0161,-3.0665,-3.1862,-3.2646,-3.315,-3.4256,-3.4636,-3.4529,-3.4813,-3.4851,-3.4674,-3.4416,-3.4531,-3.4904,-3.5347,-3.6363,-3.7535,-3.8225,-3.8965,-3.9645,-3.9819,-3.9735,-3.9576,-3.9414,-3.9389,-3.9457,-3.9622,-3.9668,-3.9757,-4.0043,-4.0119,-4.0063,-3.9903,-3.9901,-3.9819,-3.9645,-3.9599,-3.9552,-3.9432,-3.9802,-4.0115,-3.9997,-3.9246,-3.8872,-3.9331,-3.9405,-3.9882,-4.1148,-4.1295,-4.1754,-4.2892,-4.3002,-4.313,-4.3461,-4.3497,-4.3497,-4.3497,-4.3497,-4.3497,-4.3497,-4.3497,-4.3497,-4.3497,-4.3497,-4.3497,-4.3497,-4.3497,-4.3497,-2.8951,-2.8887,-2.8789,-2.9375,-2.9512,-2.9485,-2.9434,-2.9156,-2.8898,-2.8863,-2.8852,-2.8632,-2.8005,-2.792,-2.792,-2.789,-2.789,-2.7813,-2.7582,-2.7544,-2.7262,-2.6477,-2.6943,-2.7332,-2.7395,-2.7274,-2.753,-2.8338,-2.8414,-2.8678,-2.93,-2.9564,-2.9625,-2.9474,-2.9474,-2.9375,-2.9185,-2.9394,-2.9474,-2.9474,-2.9625,-2.9696,-2.9696,-2.9696,-3.0017,-3.062,-3.1468,-3.2298,-3.3166,-3.4277,-3.4772,-3.4851,-3.5105,-3.5088,-3.4926,-3.4926,-3.4832,-3.4788,-3.5352,-3.6283,-3.7371,-3.8214,-3.9089,-3.9884,-4.0139,-4.0043,-3.9821,-3.9775,-3.9754,-3.9797,-4.0022,-4.0101,-4.0158,-4.0441,-4.0489,-4.0457,-4.025,-4.0213,-4.0139,-3.9903,-3.9842,-3.9897,-4.006,-4.0586,-4.106,-4.1213,-4.0333,-3.9859,-4.0433,-4.064,-4.1138,-4.2318,-4.2537,-4.2873,-4.3442,-4.3497,-4.3497,-4.3497,-4.3497,-4.3497,-4.3497,-4.3497,-4.3497,-4.3497,-4.3497,-4.3497,-4.3497,-4.3497,-4.3497,-4.3497,-4.3497,-4.3497,-2.8209,-2.8848,-2.9492,-2.957,-2.9551,-2.9492,-2.9492,-2.8789,-2.8119,-2.8056,-2.8091,-2.8074,-2.7928,-2.7939,-2.7988,-2.792,-2.789,-2.7601,-2.6755,-2.664,-2.664,-2.6591,-2.661,-2.6956,0.0,-2.7466,-2.7528,-2.8338,-2.8414,-2.8414,-2.8452,-2.9244,-2.9696,-2.9696,-2.9696,-2.9696,-2.9678,-2.9696,-2.9696,-2.9696,-2.9696,-2.9696,-2.9696,-2.9696,-2.9696,-2.9771,-3.0601,-3.1431,-3.2317,-3.3401,-3.4342,-3.5105,-3.5383,-3.5493,-3.5479,-3.5479,-3.5157,-3.4694,-3.4732,-3.6008,-3.7583,-3.7621,-3.8925,-4.0473,-4.0489,-4.0489,-4.0406,-4.0158,-4.0081,-4.0081,-4.0101,-4.0101,-4.0158,-4.0441,-4.0489,-4.0489,-4.0489,-4.0489,-4.0489,-4.0473,-4.0473,-4.0639,-4.115,-4.1264,-4.1468,-4.1997,-4.2019,-4.2019,-4.2038,-4.2444,-4.2712,-4.2768,-4.3195,-4.3461,-4.3497,-4.3497,-4.3497,-4.3497,-4.3497,-4.3497,-4.3497,-4.3497,-4.3497,-4.3497,-4.3497,-4.3497,-4.3497,-4.3497,-4.3497,-4.3497,-4.3497,-4.3497,-2.7949,-2.8415,-2.8848,-2.9453,-2.9141,-2.8691,-2.8691,-2.8433,-2.8008,-2.7394,-2.7249,-2.7046,-2.6415,-2.6329,-2.6342,-2.6313,-2.6313,-2.6217,-2.5909,-2.5832,-2.6024,-2.6591,-2.714,0.0,0.0,0.0,0.0,-2.8759,-2.8377,-2.8549,-2.9677,-3.0002,-3.008,-2.9908,-2.9908,-2.9829,-2.9696,-2.9829,-2.9908,-2.9908,-3.008,-3.0155,-3.0155,-3.0155,-3.0155,-3.0213,-3.1054,-3.1895,-3.2732,-3.3686,-3.4582,-3.5369,-3.546,-3.5493,-3.5493,-3.5493,-3.5383,-3.5223,-3.5223,-3.5997,-3.6999,-3.6999,-3.8232,-3.97,-3.97,-4.0065,-4.0473,-4.0389,-4.0372,-4.0372,-4.0372,-4.0372,-4.0389,-4.0473,-4.0489,-4.0489,-4.0489,-4.095,-4.1354,-4.1354,-4.1835,-4.228,-4.2445,-4.2944,-4.354,-4.4327,-4.3551,-4.2888,-4.2888,-4.354,-4.3987,-4.3987,-4.3879,-4.3818,-4.3818,-4.3612,-4.3497,-4.3497,-4.3497,-4.3497,-4.3497,-4.3497,-4.3497,-4.3497,-4.3497,-4.3497,-4.3497,-4.3497,-4.3497,-4.3497,-4.3497,-4.3497,-2.7387,-2.7702,-2.798,-2.8906,-2.8476,-2.7832,-2.7832,-2.7559,-2.7148,-2.6562,-2.6412,-2.6223,-2.562,-2.5768,-2.5893,-2.555,-2.5754,-2.5851,-2.5534,-2.5735,-2.6213,-2.7094,-2.7881,-2.8679,0.0,0.0,0.0,-2.9006,-2.8621,-2.8794,-2.989,-3.0237,-3.0311,-3.015,-3.0136,-3.008,-2.9962,-3.008,-3.0136,-3.015,-3.0311,-3.0398,-3.0398,-3.0398,-3.0398,-3.0417,-3.0987,-3.1872,-3.2949,-3.3506,-3.443,-3.5493,-3.5493,-3.5493,-3.5493,-3.5493,-3.5493,-3.5493,-3.5493,-3.6045,-3.6757,-3.7065,-3.8123,-3.9354,-3.9642,-4.0085,-4.0489,-4.0489,-4.0489,-4.0489,-4.0489,-4.0489,-4.0489,-4.0489,-4.0489,-4.0489,-4.0489,-4.1181,-4.1797,-4.1797,-4.2508,-4.3181,-4.347,-4.422,-4.4951,-4.5509,-4.4745,-4.411,-4.411,-4.4512,-4.4776,-4.4776,-4.4428,-4.4204,-4.4204,-4.3899,-4.3679,-4.3679,-4.3582,-4.3497,-4.3497,-4.3497,-4.3497,-4.3497,-4.3497,-4.3497,-4.3497,-4.3497,-4.3497,-4.3497,-4.3497,-4.3497,-2.6539,-2.6802,-2.7032,-2.7986,-2.7578,-2.6934,-2.6934,-2.6328,-2.5742,-2.5625,-2.5684,-2.5719,-2.5539,-2.6273,-2.6617,-2.5714,-2.6305,-2.6597,-2.5756,-2.6305,-2.7159,0.0,0.0,0.0,0.0,0.0,0.0,-2.9159,0.0,-2.9121,-2.9159,-2.9948,-3.0398,-3.0398,-3.0398,-3.0398,-3.0398,-3.0398,-3.0398,-3.0398,-3.0398,-3.0398,-3.0398,-3.0398,-3.0398,-3.0398,-3.0398,-3.1352,-3.2891,-3.2891,-3.393,-3.5493,-3.5493,-3.5493,-3.5493,-3.5493,-3.5493,-3.5493,-3.5493,-3.6007,-3.6776,-3.7642,-3.8527,-3.9373,-4.0181,-4.0469,-4.0489,-4.0489,-4.0489,-4.0489,-4.0489,-4.0489,-4.0489,-4.0489,-4.0489,-4.0508,-4.0546,-4.1258,-4.1893,-4.1931,-4.2624,-4.347,-4.422,-4.5047,-4.5586,-4.5586,-4.5586,-4.5586,-4.5586,-4.5322,-4.5137,-4.5137,-4.4825,-4.465,-4.465,-4.4233,-4.4016,-4.4016,-4.3679,-4.3497,-4.3497,-4.3497,-4.3497,-4.3497,-4.3497,-4.3497,-4.3497,-4.3497,-4.3497,-4.3497,-4.3497,-4.3497,-2.6648,-2.6797,-2.6949,-2.7187,-2.6641,-2.6035,-2.6035,-2.6367,-2.6484,-2.5801,-2.6191,-2.6465,-2.5776,-2.6386,-2.6894,-2.6655,-2.7358,0.0,-2.7612,-2.7182,0.0,-2.8964,0.0,-2.8962,-3.0433,-3.0314,0.0,0.0,-2.9506,-2.9371,-3.0025,-3.0294,-3.0398,-3.0398,-3.0398,-3.0398,-3.0398,-3.0398,-3.0398,-3.0398,-3.0398,-3.0398,-3.0398,-3.0398,-3.0398,-3.0398,-3.0398,-3.1352,-3.2891,-3.2891,-3.393,-3.5493,-3.5493,-3.5493,-3.5493,-3.5493,-3.5493,-3.5493,-3.5493,-3.5641,-3.5949,-3.6757,-3.7623,-3.8488,-3.9354,-4.0008,-4.0489,-4.0489,-4.0489,-4.0489,-4.0489,-4.0489,-4.0489,-4.0489,-4.0489,-4.0681,-4.1335,-4.2143,-4.2951,-4.3547,-4.4374,-4.5028,-4.522,-4.5451,-4.5586,-4.5586,-4.5586,-4.5586,-4.5586,-4.5532,-4.5457,-4.5457,-4.5161,-4.4966,-4.4966,-4.4354,-4.4016,-4.4016,-4.3679,-4.3497,-4.3497,-4.3497,-4.3497,-4.3497,-4.3497,-4.3497,-4.3497,-4.3497,-4.3497,-4.3497,-4.3497,-4.3497,-2.6179,-2.6222,-2.6295,-2.6365,-2.6035,-2.5681,-2.5668,-2.6335,-2.6708,-2.5838,-2.6348,-2.6699,-2.5859,-2.7031,-2.7891,-2.7129,0.0,0.0,-2.8418,-2.8184,-2.8457,0.0,-2.9366,0.0,-3.0552,-3.0565,-3.0499,0.0,-2.9987,-2.989,-3.0359,-3.0398,-3.0398,-3.0398,-3.0398,-3.0398,-3.0398,-3.0398,-3.0398,-3.0398,-3.0398,-3.0398,-3.0398,-3.0398,-3.0398,-3.0417,0.0,-3.1698,-3.2929,-3.3314,-3.4276,-3.5493,-3.5493,-3.5493,-3.5493,-3.5493,-3.5493,-3.5493,-3.5493,-3.5738,-3.6161,-3.7007,-3.7853,-3.8719,-3.9565,-4.0142,-4.0489,-4.0489,-4.0489,-4.0489,-4.0489,-4.0489,-4.0489,-4.0489,-4.0777,-4.12,-4.17,-4.2758,-4.3874,-4.4701,-4.5259,-4.5586,-4.5586,-4.5586,-4.5586,-4.5586,-4.5586,-4.5586,-4.5586,-4.5586,-4.5586,-4.5586,-4.5438,-4.5322,-4.5322,-4.483,-4.4428,-4.4261,-4.3912,-4.3646,-4.3532,-4.3497,-4.3497,-4.3497,-4.3497,-4.3497,-4.3497,-4.3497,-4.3497,-4.3497,-4.3497,-4.3497,-2.5466,-2.5505,-2.5548,-2.5654,-2.5676,-2.5673,-2.56,-2.6273,-2.6651,-2.5785,-2.6306,-2.666,-2.5859,-2.7734,-2.8926,-2.7422,0.0,-3.0371,-2.8867,-2.9199,-2.9648,-2.9766,-3.0234,-3.0601,-3.0724,-3.0604,-3.0518,-3.0518,-3.0448,-3.0398,-3.0398,-3.0398,-3.0398,-3.0398,-3.0398,-3.0398,-3.0398,-3.0398,-3.0398,-3.0398,-3.0398,-3.0398,-3.0398,-3.0398,-3.0456,-3.0609,-3.1371,-3.2218,-3.3122,-3.3891,-3.4718,-3.5493,-3.5493,-3.5493,-3.5493,-3.5493,-3.5493,-3.5493,-3.5493,-3.6103,-3.7007,-3.7757,-3.8584,-3.945,-4.0258,-4.0489,-4.0489,-4.0489,-4.0489,-4.0489,-4.0489,-4.0489,-4.0527,-4.0642,-4.1258,-4.1873,-4.2085,-4.3355,-4.4701,-4.5451,-4.5586,-4.5586,-4.5586,-4.5586,-4.5586,-4.5586,-4.5586,-4.5586,-4.5586,-4.5586,-4.5586,-4.5586,-4.5586,-4.5586,-4.5586,-4.5302,-4.4943,-4.4606,-4.4204,-4.3849,-4.3513,-4.3497,-4.3497,-4.3497,-4.3497,-4.3497,-4.3497,-4.3497,-4.3497,-4.3497,-4.3497,-4.3497,-2.5409,-2.5505,-2.5563,-2.5528,-2.5572,-2.5596,-2.5531,-2.6227,0.0,-2.5784,-2.6344,-2.6719,-2.5859,-2.7246,-2.8437,-2.8125,-2.9668,-3.0781,-3.0488,-2.9961,-2.9863,0.0,-3.0156,-3.0077,-3.0808,-3.0691,0.0,0.0,-3.0467,-3.0398,-3.0398,-3.0398,-3.0398,-3.0398,-3.0398,-3.0398,-3.0398,-3.0398,-3.0398,-3.0398,-3.0398,-3.0398,-3.0398,-3.0398,-3.0794,-3.1487,-3.1641,0.0,-3.3987,-3.4141,-3.4718,-3.5493,-3.5493,-3.5493,-3.5493,-3.5493,-3.5493,-3.5493,-3.5493,-3.6507,-3.7796,-3.795,-3.8584,-3.945,-4.0258,-4.0489,-4.0489,-4.0489,-4.0489,-4.0489,-4.0489,-4.0489,-4.0681,-4.1393,-4.17,-4.2181,-4.3566,-4.4662,-4.5413,-4.5566,-4.5586,-4.5586,-4.5586,-4.5586,-4.5586,-4.5586,-4.5586,-4.5586,-4.5586,-4.5586,-4.5586,-4.5586,-4.5586,-4.5586,-4.5586,-4.5302,-4.4943,-4.4606,-4.4204,-4.3849,-4.3513,-4.3497,-4.3497,-4.3497,-4.3497,-4.3497,-4.3497,-4.3497,-4.3497,-4.3497,-4.3497,-4.3497,-2.5412,-2.5474,-2.5534,-2.5499,-2.552,-2.5534,-2.5453,0.0,0.0,-2.6318,-2.6616,-2.6822,-2.6443,-2.7422,-2.8301,-2.8301,-2.9766,-3.1055,-3.1504,-3.1211,-3.1113,-3.1523,-3.1211,-3.0936,-3.0911,-3.0721,-3.061,-3.0606,-3.0487,-3.0398,-3.0398,-3.0398,-3.0398,-3.0398,-3.0398,-3.0398,-3.0398,-3.0398,-3.0398,-3.0398,-3.0398,-3.0398,-3.0398,-3.0398,-3.0641,-3.1083,-3.1948,-3.2776,-3.3583,-3.4507,-3.5122,-3.5493,-3.5493,-3.5493,-3.5493,-3.5493,-3.5493,-3.5565,-3.5988,-3.6949,-3.8065,-3.8527,-3.9238,-3.9988,-4.0373,-4.0489,-4.0489,-4.0489,-4.0489,-4.0489,-4.0489,-4.0489,-4.0719,-4.1585,-4.247,-4.3451,-4.4701,-4.5297,-4.5586,-4.5586,-4.5586,-4.5586,-4.5586,-4.5586,-4.5586,-4.5586,-4.5586,-4.5586,-4.5586,-4.5586,-4.5586,-4.5586,-4.5586,-4.5586,-4.5586,-4.5438,-4.514,-4.4631,-4.4419,-4.4065,-4.3513,-4.3497,-4.3497,-4.3497,-4.3497,-4.3497,-4.3497,-4.3497,-4.3497,-4.3497,-4.3497,-4.3497,-2.5499,-2.5462,-2.5514,-2.5486,-2.5619,-2.5736,-2.5678,-2.6264,0.0,-2.7065,-2.6858,-2.6718,-2.6967,-2.7559,-2.8086,-2.8262,-2.9766,-3.1191,-3.207,-3.2344,-3.2461,-3.2461,-3.2277,0.0,-3.1209,-3.08,0.0,-3.0575,-3.0467,-3.0398,-3.0398,-3.0398,-3.0398,-3.0398,-3.0398,-3.0398,-3.0398,-3.0398,-3.0398,-3.0398,-3.0398,-3.0398,-3.0398,-3.0398,-3.059,-3.1006,-3.2333,-3.3103,0.0,-3.4949,-3.5493,-3.5493,-3.5493,-3.5493,-3.5493,-3.5493,-3.5493,-3.5622,-3.643,-3.7276,-3.8142,-3.9008,-3.9835,-4.0489,-4.0489,-4.0489,-4.0489,-4.0489,-4.0489,-4.0489,-4.0489,-4.0489,-4.0758,-4.1835,-4.3355,-4.4759,-4.5451,-4.5586,-4.5586,-4.5586,-4.5586,-4.5586,-4.5586,-4.5586,-4.5586,-4.5586,-4.5586,-4.5586,-4.5586,-4.5586,-4.5586,-4.5586,-4.5586,-4.5586,-4.5586,-4.5586,-4.5342,-4.4732,-4.4631,-4.4308,-4.3612,-4.3548,-4.3497,-4.3497,-4.3497,-4.3497,-4.3497,-4.3497,-4.3497,-4.3497,-4.3497,-4.3497,-2.5726,-2.5534,-2.5553,-2.5438,-2.5996,-2.6591,-2.6583,0.0,-2.7036,-2.7913,-2.6875,-2.6052,-2.6855,-2.707,-2.7383,-2.8164,-2.9766,-3.1191,-3.207,-3.2832,-3.3281,-3.3281,0.0,0.0,-3.1915,-3.1064,-3.051,-3.0506,-3.0448,-3.0398,-3.0398,-3.0398,-3.0398,-3.0398,-3.0398,-3.0398,-3.0398,-3.0398,-3.0398,-3.0398,-3.0398,-3.0398,-3.0398,-3.0398,-3.1237,-3.2679,-3.2833,-3.3795,0.0,-3.543,-3.5493,-3.5493,-3.5493,-3.5493,-3.5493,-3.5493,-3.5493,-3.5622,-3.643,-3.7276,-3.8142,-3.9008,-3.9835,-4.0489,-4.0489,-4.0489,-4.0489,-4.0489,-4.0489,-4.0489,-4.0489,-4.0489,-4.0912,-4.2585,-4.4259,-4.549,-4.5566,-4.5586,-4.5586,-4.5586,-4.5586,-4.5586,-4.5586,-4.5586,-4.5586,-4.5586,-4.5586,-4.5586,-4.5586,-4.5586,-4.5586,-4.5586,-4.5586,-4.5586,-4.5586,-4.5586,-4.5438,-4.5074,-4.4776,-4.4419,-4.3986,-4.3679,-4.3497,-4.3497,-4.3497,-4.3497,-4.3497,-4.3497,-4.3497,-4.3497,-4.3497,-4.3497,-2.6389,-2.6326,-2.6352,-2.6275,-2.6506,-2.691,-2.743,-2.719,-2.7268,-2.8695,-2.7653,-2.6758,-2.7617,-2.7344,-2.7285,-2.8164,-2.8887,-3.0176,-3.2578,-3.3151,-3.3533,-3.4065,-3.3757,-3.3093,0.0,0.0,-3.1052,-3.0475,-3.0417,-3.0398,-3.0398,-3.0398,-3.0398,-3.0398,-3.0398,-3.0398,-3.0398,-3.0398,-3.0398,-3.0398,-3.0398,-3.0398,-3.0417,-3.0948,-3.1545,-3.2237,-3.3237,-3.4083,0.0,-3.5276,-3.5493,-3.5493,-3.5493,-3.5493,-3.5493,-3.5493,-3.5815,-3.6353,-3.7199,-3.8046,-3.8911,-3.9738,-4.0239,-4.0489,-4.0489,-4.0489,-4.0489,-4.0489,-4.0489,-4.0489,-4.0489,-4.1277,-4.2239,-4.2931,-4.4374,-4.5586,-4.5586,-4.5586,-4.5586,-4.5586,-4.5586,-4.5586,-4.5586,-4.5586,-4.5586,-4.5586,-4.5586,-4.5586,-4.5586,-4.5586,-4.5586,-4.5586,-4.5586,-4.5586,-4.5586,-4.5586,-4.5476,-4.5118,-4.48,-4.4419,-4.4016,-4.3679,-4.3497,-4.3497,-4.3497,-4.3497,-4.3497,-4.3497,-4.3497,-4.3497,-4.3497,-4.3497,-2.7223,-2.7245,-2.7263,-2.721,-2.7368,-2.7727,-2.8376,-2.7873,-2.7788,-2.9555,-2.8359,-2.7266,-2.8144,-2.7793,-2.7576,-2.8168,-2.8891,-3.0326,-3.2973,-3.3954,-3.4629,-3.5229,0.0,-3.4623,-3.3152,-3.2256,-3.1379,-3.0456,-3.0398,-3.0398,-3.0398,-3.0398,-3.0398,-3.0398,-3.0398,-3.0398,-3.0398,-3.0398,-3.0398,-3.0398,-3.0398,-3.0533,-3.0814,-3.1429,-3.1968,-3.2506,-3.368,-3.4353,0.0,-3.5257,-3.5493,-3.5493,-3.5493,-3.5493,-3.5493,-3.5493,-3.6007,-3.6834,-3.77,-3.8565,-3.9431,-4.0239,-4.0489,-4.0489,-4.0489,-4.0489,-4.0489,-4.0489,-4.0489,-4.0546,-4.0816,-4.1989,-4.3162,-4.3393,-4.4547,-4.5586,-4.5586,-4.5586,-4.5586,-4.5586,-4.5586,-4.5586,-4.5586,-4.5586,-4.5586,-4.5586,-4.5586,-4.5586,-4.5586,-4.5586,-4.5586,-4.5586,-4.5586,-4.5586,-4.5586,-4.5586,-4.5495,-4.5263,-4.4849,-4.4474,-4.4175,-4.3726,-4.3497,-4.3497,-4.3497,-4.3497,-4.3497,-4.3736,-4.3718,-4.3497,-4.3736,-4.3846,-2.8203,-2.8183,-2.8162,-2.8104,-2.8725,-2.9394,-2.9476,-2.8816,-2.8695,-3.0517,-2.8809,-2.7266,-2.8144,-2.8281,-2.8276,-2.821,-3.0324,-3.2254,-3.3094,-3.5364,-3.6968,0.0,0.0,-3.6531,-3.5661,-3.3218,-3.1352,-3.0456,-3.0398,0.0,-3.0398,-3.0398,-3.0398,-3.0398,-3.0398,-3.0398,-3.0398,-3.0398,-3.0398,-3.0398,-3.0398,-3.0852,-3.1698,-3.1698,-3.2602,-3.416,-3.418,-3.468,0.0,-3.5507,-3.5493,-3.5493,-3.5493,-3.5493,-3.5493,-3.5493,-3.6007,-3.6834,-3.77,-3.8565,-3.9431,-4.0239,-4.0489,-4.0489,-4.0489,-4.0489,-4.0489,-4.0489,-4.0489,-4.07,-4.1566,-4.245,-4.3297,-4.4105,-4.4951,-4.5586,-4.5586,-4.5586,-4.5586,-4.5586,-4.5586,-4.5586,-4.5586,-4.5586,-4.5586,-4.5586,-4.5586,-4.5586,-4.5586,-4.5586,-4.5586,-4.5586,-4.5586,-4.5586,-4.5586,-4.5586,-4.5586,-4.5605,-4.4966,-4.4599,-4.458,-4.3868,-4.3497,-4.3497,-4.3497,-4.3497,-4.3497,-4.4305,-4.4287,-4.3516,-4.4323,-4.469,-2.9004,-2.916,-2.914,-2.9135,-2.9327,-2.9695,-3.0323,-2.9312,-2.8775,-3.0546,-2.9249,-2.8097,-2.8966,-2.9057,-2.9377,-3.0535,-3.1415,-3.2826,-3.5437,-3.6414,0.0,-3.6916,-3.582,-3.4718,0.0,0.0,-3.1352,-3.0456,-3.0398,-3.0398,-3.0398,-3.0398,-3.0398,-3.0398,-3.0398,-3.0398,-3.0398,-3.0398,-3.0398,-3.0398,-3.0398,-3.0871,-3.1718,-3.2275,-3.3122,-3.4218,-3.4834,-3.5257,0.0,-3.5493,-3.5493,-3.5493,-3.5493,-3.5493,-3.5493,-3.5493,-3.6392,-3.7623,-3.7892,-3.8931,-4.0162,-4.0412,-4.0489,-4.0489,-4.0489,-4.0489,-4.0489,-4.0489,-4.0489,-4.07,-4.1566,-4.245,-4.3297,-4.4105,-4.497,-4.5586,-4.5586,-4.5586,-4.5586,-4.5586,-4.5586,-4.5586,-4.5586,-4.5586,-4.5586,-4.5586,-4.5586,-4.5586,-4.5586,-4.5586,-4.5586,-4.5586,-4.5586,-4.5586,-4.5586,-4.54,-4.5243,-4.5243,-4.4587,-4.4175,-4.4175,-4.3758,-4.3497,-4.3497,-4.3497,-4.3497,-4.3497,-4.4305,-4.4856,-4.5149,-4.5406,-4.5516,-2.9257,-2.9844,-3.0098,-3.0098,-3.0098,-3.0213,-3.0712,-2.9756,-2.9141,-3.0506,-2.9635,-2.8782,-2.931,-2.9622,-3.0148,-3.1207,-3.2177,-3.3637,-3.6094,0.0,0.0,-3.78,0.0,0.0,0.0,-3.2641,-3.1679,-3.0494,-3.0398,-3.0398,-3.0398,-3.0398,-3.0398,-3.0398,-3.0398,-3.0398,-3.0398,-3.0398,-3.0571,-3.0891,-3.0891,-3.1506,-3.266,-3.316,-3.3872,-3.4718,-3.5257,-3.5493,0.0,-3.5493,-3.5493,-3.5493,-3.5493,-3.5493,-3.5493,-3.5493,-3.6565,-3.8007,-3.8007,-3.9104,-4.0489,-4.0489,-4.0489,-4.0489,-4.0489,-4.0489,-4.0489,-4.0489,-4.0489,-4.0777,-4.1989,-4.2701,-4.3393,-4.4509,-4.5201,-4.5586,-4.5586,-4.5586,-4.5586,-4.5586,-4.5586,-4.5586,-4.5586,-4.5586,-4.5586,-4.5586,-4.5586,-4.5586,-4.5586,-4.5586,-4.5586,-4.5586,-4.5586,-4.5586,-4.5586,-4.5419,-4.5222,-4.5096,-4.4561,-4.4146,-4.4016,-4.3679,-4.3497,-4.3497,-4.3497,-4.3644,-4.3956,-4.447,-4.5112,-4.5883,-4.559,-4.5773,0.0,-3.0136,-3.0781,-3.0781,-3.0839,-3.0841,-3.0714,-3.0063,0.0,-3.045,-2.9901,-2.9353,-2.9536,-3.0155,-3.0744,-3.0899,-3.2916,-3.4787,0.0,-3.7757,0.0,0.0,-3.7666,0.0,-3.4243,-3.3346,-3.2161,-3.0489,-3.0355,-3.0355,-3.0367,-3.0367,-3.0367,-3.0398,-3.0398,-3.0398,-3.0398,-3.0398,-3.0852,-3.1698,-3.1698,-3.2583,-3.4199,-3.4199,-3.468,0.0,-3.5493,0.0,0.0,-3.5493,-3.5493,-3.5493,-3.5493,-3.5493,-3.5493,-3.5493,-3.6565,-3.8007,-3.8007,-3.9104,-4.0489,-4.0489,-4.0489,-4.0489,-4.0489,-4.0489,-4.0489,-4.0489,-4.0527,-4.0969,-4.2662,-4.3143,-4.3585,-4.522,-4.5586,-4.5586,-4.5586,-4.5586,-4.5586,-4.5586,-4.5586,-4.5586,-4.5586,-4.5586,-4.5586,-4.5586,-4.5586,-4.5586,-4.5586,-4.5586,-4.5586,-4.5586,-4.5586,-4.5586,-4.5586,-4.5586,-4.5419,-4.5074,-4.4751,-4.4392,-4.3986,-4.3679,-4.3497,-4.3497,-4.3497,-4.3901,-4.4709,-4.4709,-4.5149,-4.5975,-4.5223,-4.5718,-2.8147,0.0,-2.9751,-2.9751,-3.0224,-3.0658,0.0,-2.9951,-2.959,-3.0441,0.0,-2.982,-3.177,-3.1763,-3.2275,-3.4839,-3.5743,-3.6666,-3.818,-3.8354,0.0,-3.8315,-3.6623,-3.4824,-3.3138,-3.2599,-3.1665,-2.9997,-2.9864,-2.9927,-3.0089,-3.0089,-3.0196,-3.0398,-3.0398,-3.0398,-3.0398,-3.0398,-3.0852,-3.1698,-3.1698,-3.2583,-3.4199,-3.4199,-3.468,-3.5493,-3.5493,0.0,-3.5493,-3.5493,-3.5493,-3.5493,-3.5493,-3.5493,-3.5493,-3.5493,-3.6565,-3.8007,-3.8007,-3.9104,-4.0489,-4.0489,-4.0489,-4.0489,-4.0489,-4.0489,-4.0489,-4.0489,-4.0969,-4.1739,-4.2816,-4.3566,-4.4297,-4.5336,-4.5586,-4.5586,-4.5586,-4.5586,-4.5586,-4.5586,-4.5586,-4.5586,-4.5586,-4.5586,-4.5586,-4.5586,-4.5586,-4.5586,-4.5586,-4.5586,-4.5586,-4.5586,-4.5586,-4.5586,-4.5586,-4.5362,-4.5074,-4.4751,-4.4346,-4.3986,-4.3612,-4.3548,-4.3497,-4.3497,-4.3497,-4.3901,-4.4709,-4.4709,-4.5443,-4.6819,-4.6636,-4.7076,-2.7169,-2.8647,-3.0053,-3.0451,-3.0866,-3.1194,-3.1166,0.0,0.0,0.0,0.0,-3.029,-3.2077,-3.2321,-3.3103,-3.5718,-3.6796,0.0,0.0,0.0,-3.7827,-3.7827,-3.6115,-3.4262,0.0,-3.2296,-3.1541,-2.9962,-2.9845,-2.9943,-3.0163,-3.0196,-3.0254,-3.0398,-3.0398,-3.0398,-3.0398,-3.0814,-3.1429,-3.2256,-3.266,-3.3526,-3.4795,-3.4795,-3.5045,-3.5493,-3.5493,0.0,-3.5493,-3.5493,-3.5493,-3.5493,-3.5493,-3.5493,-3.5493,-3.5493,-3.6565,-3.8007,-3.8007,-3.9104,-4.0489,-4.0489,-4.0489,-4.0489,-4.0489,-4.0489,-4.0489,-4.0489,-4.1123,-4.2008,-4.2874,-4.3701,-4.4509,-4.5393,-4.5586,-4.5586,-4.5586,-4.5586,-4.5586,-4.5586,-4.5586,-4.5586,-4.5586,-4.5586,-4.5586,-4.5586,-4.5586,-4.5586,-4.5586,-4.5586,-4.5586,-4.5586,-4.5586,-4.5586,-4.5586,-4.5438,-4.5118,-4.4631,-4.4392,-4.4046,-4.3513,-4.3497,-4.3497,-4.3497,-4.3864,-4.4085,-4.4158,-4.4525,-4.5351,-4.6562,-4.6562,-4.7186,-2.6678,-2.8736,-3.0717,-3.1309,-3.166,-3.1819,-3.1628,0.0,0.0,0.0,0.0,0.0,0.0,-3.2756,0.0,0.0,0.0,0.0,-4.0161,-3.8704,-3.7509,-3.7509,-3.5816,0.0,-3.2355,-3.2147,-3.1523,-3.0053,-2.9954,-3.0061,-3.0343,-3.0343,-3.0355,-3.0398,-3.0398,-3.0398,-3.0398,-3.1256,-3.2102,-3.291,-3.3776,-3.4661,-3.5493,-3.5493,-3.5493,-3.5493,0.0,0.0,-3.5493,-3.5493,-3.5493,-3.5493,-3.5493,-3.5493,-3.5512,-3.5641,-3.668,-3.8046,-3.8296,-3.9315,-4.0489,-4.0489,-4.0489,-4.0489,-4.0489,-4.0489,-4.0527,-4.0662,-4.1335,-4.22,-4.3066,-4.3893,-4.4682,-4.5413,-4.5586,-4.5586,-4.5586,-4.5586,-4.5586,-4.5586,-4.5586,-4.5586,-4.5586,-4.5586,-4.5586,-4.5586,-4.5586,-4.5586,-4.5586,-4.5586,-4.5586,-4.5586,-4.5586,-4.5586,-4.5586,-4.555,-4.5263,-4.4631,-4.458,-4.4252,-4.3513,-4.3497,-4.3497,-4.3497,-4.4176,-4.4176,-4.3497,-4.4305,-4.5112,-4.5902,-4.603,-4.6874,-2.8082,-2.9563,-3.0294,-2.9679,-3.0641,-3.1525,-3.0782,0.0,0.0,0.0,0.0,0.0,0.0,-3.4526,-3.5782,0.0,0.0,-3.9369,0.0,0.0,-3.7194,-3.7194,0.0,-3.3724,-3.2336,-3.1987,-3.1274,-2.9844,-2.9748,-2.9829,-3.0061,-3.0061,-3.0182,-3.0398,-3.0398,-3.0398,-3.0398,-3.1256,-3.2102,-3.291,-3.3776,-3.4661,-3.5493,-3.5493,-3.5493,-3.5493,0.0,-3.5493,-3.5493,-3.5493,-3.5493,-3.5493,-3.5493,-3.5493,-3.557,-3.6257,-3.7161,-3.82,-3.9623,-4.0277,-4.0489,-4.0489,-4.0489,-4.0489,-4.0489,-4.0489,-4.0642,-4.1393,-4.2239,-4.3085,-4.3893,-4.4739,-4.5432,-4.5566,-4.5586,-4.5586,-4.5586,-4.5586,-4.5586,-4.5586,-4.5586,-4.5586,-4.5586,-4.5586,-4.5586,-4.5586,-4.5586,-4.5586,-4.5586,-4.5586,-4.5586,-4.5586,-4.5586,-4.5586,-4.5586,-4.5342,-4.5011,-4.4606,-4.458,-4.4252,-4.3513,-4.3497,-4.3497,-4.3497,-4.3608,-4.3608,-4.3497,-4.4305,-4.5112,-4.592,-4.6617,-4.7425,-2.7871,-2.9063,-2.9833,-3.0371,-3.1795,-3.2949,-3.2545,0.0,0.0,0.0,0.0,0.0,0.0,0.0,-3.6644,-3.8814,0.0,-3.9406,-3.8995,-3.7769,-3.6714,0.0,0.0,-3.3612,-3.2117,-3.2008,-3.1431,-2.9978,-2.9861,-2.9973,-3.0196,-3.0209,-3.0267,-3.0398,-3.0398,-3.0398,-3.0398,-3.1698,-3.2526,-3.291,-3.4257,-3.5122,-3.5493,-3.5493,-3.5493,-3.5493,0.0,-3.5493,-3.5493,-3.5493,-3.5493,-3.5493,-3.5493,-3.5493,-3.5661,-3.693,-3.795,-3.8873,-4.0065,-4.0489,-4.0489,-4.0489,-4.0489,-4.0489,-4.0489,-4.0835,-4.1373,-4.2258,-4.2797,-4.3297,-4.4085,-4.4951,-4.5586,-4.5586,-4.5586,-4.5586,-4.5586,-4.5586,-4.5586,-4.5586,-4.5586,-4.5586,-4.5586,-4.5586,-4.5586,-4.5586,-4.5586,-4.5586,-4.5586,-4.5586,-4.5586,-4.5586,-4.5438,-4.5322,-4.5322,-4.5011,-4.4682,-4.429,-4.4125,-4.3836,-4.3513,-4.3497,-4.3497,-4.3497,-4.392,-4.4158,-4.4158,-4.4966,-4.5773,-4.6562,-4.6948,-4.7535,-2.7659,-2.8621,-2.9563,-3.1506,-3.2795,-3.3718,-3.4103,0.0,0.0,0.0,0.0,0.0,0.0,-3.5913,0.0,-3.8926,-3.947,-3.9327,-3.8314,-3.7293,-3.6296,-3.5485,-3.4457,-3.3287,-3.1942,-3.186,-3.1369,-3.0098,-3.0061,-3.0196,-3.0398,-3.0398,-3.0398,-3.0398,-3.0398,-3.0398,-3.0398,-3.2064,-3.2891,-3.291,-3.468,-3.5493,-3.5493,-3.5493,-3.5493,-3.5493,-3.5493,-3.5493,-3.5493,-3.5493,-3.5493,-3.5493,-3.5493,-3.5738,-3.6238,-3.7526,-3.8661,-3.9662,-4.0277,-4.0489,-4.0489,-4.0489,-4.0489,-4.0527,-4.0739,-4.1277,-4.2027,-4.3085,-4.3374,-4.3566,-4.4393,-4.5086,-4.5586,-4.5586,-4.5586,-4.5586,-4.5586,-4.5586,-4.5586,-4.5586,-4.555,-4.5513,-4.5586,-4.5531,-4.5513,-4.5586,-4.5586,-4.5568,-4.5495,-4.5495,-4.5438,-4.5362,-4.514,-4.4943,-4.4853,-4.4606,-4.429,-4.3912,-4.3646,-4.3497,-4.3497,-4.3497,-4.3589,-4.3773,-4.4397,-4.48,-4.4984,-4.5792,-4.6507,-4.7113,-4.7297,-4.7719,-2.8332,-2.9063,-2.9698,-3.2199,-3.2333,0.0,-3.3853,-3.3526,0.0,-3.4988,0.0,0.0,0.0,-3.6575,-3.7839,-3.7996,-3.9071,-3.9332,-3.7768,0.0,-3.6001,-3.5138,-3.3668,-3.2471,-3.1864,-3.1315,-3.0727,-3.0041,-3.0222,-3.0367,-3.0398,-3.0398,-3.0398,-3.0398,-3.0398,-3.0398,-3.0398,-3.2064,-3.2891,-3.291,-3.468,-3.5493,-3.5493,-3.5493,-3.5493,-3.5493,-3.5493,-3.5493,-3.5493,-3.5493,-3.5493,-3.5493,-3.5493,-3.6449,-3.7834,-3.7969,-3.9008,-4.0412,-4.0469,-4.0489,-4.0489,-4.0489,-4.0489,-4.0642,-4.147,-4.1758,-4.2143,-4.3758,-4.4201,-4.4412,-4.5278,-4.5547,-4.5586,-4.5586,-4.5586,-4.5586,-4.5586,-4.5586,-4.5586,-4.5586,-4.5342,-4.5222,-4.555,-4.5342,-4.5243,-4.555,-4.5586,-4.5495,-4.518,-4.5137,-4.503,-4.4726,-4.4631,-4.4482,-4.4117,-4.4058,-4.3912,-4.3582,-4.3513,-4.3497,-4.3497,-4.3497,-4.3846,-4.4617,-4.4672,-4.5076,-4.581,-4.6636,-4.702,-4.7094,-4.7884,-4.8251,-2.7794,-2.9102,-3.039,-3.2391,-3.3083,0.0,0.0,-3.5141,-3.5603,-3.6815,-3.7218,0.0,0.0,0.0,-3.7856,-3.7664,-3.8092,-3.801,-3.6909,-3.6028,-3.5183,-3.4357,-3.3419,-3.2572,-3.1886,-3.1412,-3.0836,-3.0056,-3.0254,-3.0398,-3.0398,-3.0398,-3.0398,-3.0398,-3.0398,-3.066,-3.1198,-3.2333,-3.316,-3.3718,-3.493,-3.5493,-3.5493,-3.5493,-3.5493,-3.5493,-3.5493,-3.5493,-3.5493,-3.5493,-3.5493,-3.5565,-3.6065,-3.6969,-3.8065,-3.8604,-3.9527,-4.0489,-4.0489,-4.0489,-4.0489,-4.0489,-4.0489,-4.0662,-4.1546,-4.2181,-4.2835,-4.397,-4.4682,-4.5182,-4.5509,-4.5586,-4.5586,-4.5586,-4.5586,-4.5586,-4.5586,-4.5438,-4.5302,-4.5302,-4.5011,-4.4896,-4.5222,-4.518,-4.5222,-4.555,-4.5419,-4.5243,-4.5118,-4.4919,-4.4751,-4.4606,-4.4392,-4.4076,-4.3726,-4.3693,-4.3833,-4.4213,-4.425,-4.425,-4.425,-4.4727,-4.5131,-4.5443,-4.5957,-4.6361,-4.6654,-4.7462,-4.7865,-4.7865,-4.8159,-4.8306,-2.789,-2.9525,-3.1218,0.0,0.0,0.0,-3.6026,-3.6507,-3.7026,-3.8161,-3.8116,0.0,-3.7426,0.0,0.0,0.0,-3.711,-3.6817,-3.6009,-3.5385,-3.4697,-3.3899,-3.3019,-3.2298,-3.1849,-3.1185,-3.0567,-3.0037,-3.0254,-3.0398,-3.0398,-3.0398,-3.0398,-3.0398,-3.0398,-3.0833,-3.1698,-3.2506,-3.3333,-3.4199,-3.5084,-3.5493,-3.5493,-3.5493,-3.5493,-3.5493,-3.5493,-3.5493,-3.5493,-3.5493,-3.5493,-3.5584,-3.6392,-3.7238,-3.8104,-3.8969,-3.9796,-4.0489,-4.0489,-4.0489,-4.0489,-4.0489,-4.0489,-4.07,-4.1854,-4.2624,-4.3335,-4.4412,-4.5143,-4.5586,-4.5586,-4.5586,-4.5586,-4.5586,-4.5586,-4.5586,-4.5586,-4.5342,-4.5096,-4.5096,-4.4732,-4.458,-4.5011,-4.5011,-4.5052,-4.54,-4.5243,-4.503,-4.4762,-4.4535,-4.4364,-4.4252,-4.4004,-4.3758,-4.3513,-4.3497,-4.3828,-4.4654,-4.4947,-4.5094,-4.5094,-4.5608,-4.6012,-4.6269,-4.6838,-4.7241,-4.7498,-4.8031,-4.8306,-4.8306,-4.8306,-4.8306,-2.8871,-3.0371,-3.2102,0.0,0.0,0.0,-3.7623,-3.7334,-3.7219,-3.8931,0.0,-3.7642,-3.7854,-3.6565,0.0,-3.6195,-3.6285,-3.5973,-3.51,-3.4972,-3.466,-3.3862,-3.2357,-3.1489,-3.1771,-3.0527,-2.978,-2.9984,-3.0254,-3.0398,-3.0398,-3.0398,-3.0398,-3.0398,-3.0398,-3.0833,-3.1698,-3.2506,-3.3353,-3.4218,-3.5084,-3.5493,-3.5493,-3.5493,-3.5493,-3.5493,-3.5493,-3.5493,-3.5493,-3.5493,-3.5493,-3.5584,-3.6392,-3.7238,-3.8104,-3.8988,-3.9815,-4.0489,-4.0489,-4.0489,-4.0489,-4.0489,-4.0489,-4.0816,-4.2566,-4.3104,-4.3451,-4.5124,-4.5586,-4.5586,-4.5605,-4.5605,-4.5605,-4.5605,-4.5605,-4.5586,-4.5586,-4.5322,-4.5096,-4.5096,-4.4508,-4.4233,-4.4966,-4.4825,-4.4707,-4.5052,-4.5096,-4.483,-4.4087,-4.4016,-4.3881,-4.3548,-4.3497,-4.3497,-4.3497,-4.3497,-4.3846,-4.4672,-4.5461,-4.5902,-4.5902,-4.592,-4.6305,-4.7113,-4.7131,-4.7517,-4.8306,-4.8306,-4.8306,-4.8306,-4.8306,-4.8306,-2.9044,-3.0794,0.0,-3.3635,0.0,0.0,0.0,-3.7976,0.0,0.0,-3.8059,-3.6867,-3.6562,-3.6092,0.0,-3.5432,-3.5404,-3.511,-3.4284,-3.3678,-3.3018,-3.221,-3.1357,-3.0869,-3.0956,-3.0318,-2.9939,-2.9999,-3.0254,-3.0398,-3.0398,-3.0398,-3.0398,-3.0398,-3.0987,-3.1718,-3.2545,-3.3391,-3.4257,-3.5122,-3.5391,-3.5493,-3.5493,-3.5493,-3.5493,-3.5493,-3.5493,-3.5493,-3.5493,-3.5493,-3.5493,-3.5641,-3.7065,-3.7777,-3.8161,-3.9604,-4.0296,-4.0489,-4.0489,-4.0489,-4.0489,-4.0489,-4.0489,-4.0765,-4.224,-4.2869,-4.3398,-4.4844,-4.5419,-4.555,-4.5322,-4.5243,-4.5243,-4.5243,-4.5243,-4.5182,-4.4943,-4.4587,-4.4346,-4.4346,-4.3974,-4.3772,-4.4261,-4.4482,-4.4631,-4.4732,-4.4751,-4.4501,-4.3758,-4.3646,-4.3631,-4.3513,-4.3497,-4.3497,-4.3497,-4.3497,-4.4066,-4.5461,-4.5773,-4.6159,-4.6728,-4.7297,-4.77,-4.7957,-4.7957,-4.8067,-4.8306,-4.8306,-4.8306,-4.8306,-4.8306,-4.8306,-3.0242,-3.2142,0.0,-3.4888,-3.6217,-3.7317,-3.7168,0.0,0.0,0.0,-3.7347,-3.6347,-3.6233,-3.5672,0.0,-3.5027,-3.4715,-3.4247,-3.344,-3.3011,-3.2459,-3.1653,-3.1067,-3.0769,-3.0866,-3.0338,-3.0042,-3.015,-3.0311,-3.0398,-3.0398,-3.0398,-3.0398,-3.0398,-3.091,-3.1737,-3.2891,-3.341,-3.4295,-3.5493,-3.5493,-3.5493,-3.5493,-3.5493,-3.5493,-3.5493,-3.5493,-3.5493,-3.5493,-3.5493,-3.5493,-3.568,-3.7353,-3.8007,-3.82,-3.9873,-4.0489,-4.0489,-4.0489,-4.0489,-4.0489,-4.0489,-4.0441,-4.0551,-4.1685,-4.2353,-4.2985,-4.4241,-4.4994,-4.5342,-4.514,-4.5096,-4.5074,-4.4943,-4.4896,-4.4849,-4.4631,-4.429,-4.4016,-4.4016,-4.3726,-4.3597,-4.3924,-4.4204,-4.4346,-4.4346,-4.4252,-4.4004,-4.3548,-4.3497,-4.3497,-4.3497,-4.3497,-4.3497,-4.3497,-4.3497,-4.4048,-4.5351,-4.5718,-4.6269,-4.7095,-4.7884,-4.8306,-4.8306,-4.8306,-4.8306,-4.8306,-4.8306,-4.8306,-4.8306,-4.8306,-4.8306,-3.1977,0.0,0.0,-3.6839,-3.7081,0.0,-3.703,-3.6952,-3.6933,-3.7057,0.0,-3.5932,-3.6379,-3.5224,-3.434,-3.4834,-3.4256,-3.3456,-3.264,-3.2691,-3.2523,-3.1707,-3.1147,-3.0915,-3.1169,-3.049,-3.0136,-3.0367,-3.0398,-3.0398,-3.0398,-3.0398,-3.0436,-3.0513,-3.059,-3.141,-3.3006,-3.3103,-3.393,-3.5493,-3.5493,-3.5493,-3.5493,-3.5493,-3.5493,-3.5493,-3.5493,-3.5493,-3.5493,-3.5493,-3.5493,-3.5661,-3.7257,-3.793,-3.818,-3.9796,-4.0431,-4.0489,-4.0489,-4.0489,-4.0489,-4.0489,-4.0321,-4.0253,-4.1015,-4.1661,-4.2327,-4.3482,-4.4405,-4.5052,-4.5011,-4.4988,-4.4919,-4.458,-4.4527,-4.4527,-4.4501,-4.4204,-4.3955,-4.3955,-4.3693,-4.3597,-4.3893,-4.3986,-4.4016,-4.4016,-4.3726,-4.3497,-4.3497,-4.3497,-4.3497,-4.3497,-4.3497,-4.3497,-4.3497,-4.3497,-4.3828,-4.4654,-4.5388,-4.6177,-4.7039,-4.7884,-4.8306,-4.8306,-4.8306,-4.8306,-4.8306,-4.8306,-4.8306,-4.8306,-4.8306,-4.8306,-3.2091,-3.3446,0.0,0.0,-3.7068,-3.7073,-3.5779,-3.5465,-3.5602,-3.6083,-3.5526,-3.4913,-3.4773,-3.4442,-3.4154,-3.4062,-3.3548,-3.2887,-3.2094,-3.1605,-3.1054,-3.0264,-3.0175,-3.0221,-3.0266,-3.0311,-3.0343,-3.0398,-3.0398,-3.0398,-3.0398,-3.0398,-3.0717,-3.141,-3.2025,-3.2852,-3.391,-3.4603,-3.5141,0.0,-3.5493,-3.5493,-3.5493,-3.5493,-3.5493,-3.5493,-3.5493,-3.5493,-3.5493,-3.5493,-3.5493,-3.5603,-3.6603,-3.7411,-3.8123,-3.9161,-3.995,-4.0489,-4.0489,-4.0489,-4.0489,-4.0489,-4.0321,-4.0214,-4.0738,-4.1477,-4.2228,-4.2862,-4.3841,-4.4631,-4.4318,-4.4233,-4.4146,-4.3823,-4.3943,-4.4046,-4.3791,-4.3679,-4.3597,-4.3597,-4.3548,-4.3513,-4.3597,-4.3836,-4.4016,-4.4016,-4.3726,-4.3497,-4.3497,-4.3497,-4.3497,-4.3497,-4.3497,-4.3497,-4.3497,-4.3497,-4.3828,-4.4654,-4.4874,-4.5608,-4.702,-4.7884,-4.8306,-4.8306,-4.8306,-4.8306,-4.8306,-4.8306,-4.8306,-4.8306,-4.8306,-4.8306,-3.2284,0.0,0.0,-3.6287,0.0,-3.5973,-3.4724,-3.4431,-3.452,-3.4828,-3.4559,-3.4232,-3.4043,-3.3679,-3.3438,-3.3407,-3.2868,-3.2169,-3.146,-3.1204,-3.0776,-2.994,-3.0047,-3.0196,-3.0196,-3.0311,-3.0398,-3.0398,-3.0398,-3.0398,-3.0398,-3.0398,-3.0814,-3.1679,-3.2102,-3.2929,-3.418,-3.4641,-3.5084,-3.5474,-3.5084,-3.4872,-3.4891,-3.5315,-3.5493,-3.5493,-3.5493,-3.5493,-3.5493,-3.5493,-3.5493,-3.5584,-3.6392,-3.7238,-3.8104,-3.8969,-3.9796,-4.0489,-4.0489,-4.0489,-4.0473,-4.0356,-4.0101,-3.9892,-3.9964,-4.0745,-4.1716,-4.2108,-4.324,-4.4261,-4.4058,-4.4016,-4.3912,-4.3563,-4.3612,-4.3726,-4.3548,-4.3497,-4.3497,-4.3497,-4.3497,-4.3497,-4.3497,-4.3646,-4.374,-4.374,-4.3612,-4.3497,-4.3497,-4.3497,-4.3497,-4.3497,-4.3497,-4.3497,-4.3497,-4.3497,-4.3663,-4.4103,-4.4488,-4.5094,-4.5938,-4.7095,-4.7737,-4.7737,-4.8104,-4.8122,-4.7737,-4.8122,-4.8306,-4.8306,-4.8306,-4.8306,-3.2213,0.0,-3.6303,-3.6303,-3.5771,0.0,-3.4192,-3.3899,-3.3807,-3.3807,-3.3732,-3.3666,-3.3666,-3.3036,-3.2582,-3.2799,-3.2198,-3.1538,-3.1034,-3.1067,-3.0882,-3.0152,-3.0267,-3.0398,-3.0398,-3.0398,-3.0398,-3.0398,-3.0398,-3.0398,-3.0398,-3.0533,-3.1025,-3.1891,-3.2045,-3.2872,-3.441,-3.441,-3.4795,-3.5474,-3.4776,-3.441,-3.4449,-3.518,-3.5493,-3.5493,-3.5493,-3.5493,-3.5493,-3.5493,-3.5493,-3.5584,-3.6238,-3.7026,-3.7873,-3.8738,-3.9585,-4.0296,-4.045,-4.0473,-4.0389,-4.0177,-3.9819,-3.9462,-3.9186,-4.0023,-4.1158,-4.1438,-4.2679,-4.3893,-4.3893,-4.3893,-4.3849,-4.3582,-4.3497,-4.3497,-4.3497,-4.3497,-4.3497,-4.3497,-4.3497,-4.3497,-4.3497,-4.3497,-4.3497,-4.3497,-4.3497,-4.3497,-4.3497,-4.3497,-4.3497,-4.3497,-4.3497,-4.3497,-4.3497,-4.3497,-4.3497,-4.3497,-4.4121,-4.4562,-4.4709,-4.5993,-4.6709,-4.6709,-4.7755,-4.7921,-4.7113,-4.7921,-4.8306,-4.8306,-4.8306,-4.8306,0.0,0.0,-3.6303,0.0,-3.6211,-3.5899,0.0,0.0,-3.3807,0.0,-3.3425,-3.3115,-3.3115,-3.2593,-3.2181,-3.2201,-3.1729,-3.1333,-3.1271,-3.0819,-3.0489,-3.0355,-3.0367,-3.0398,-3.0398,-3.0398,-3.0398,-3.0398,-3.0398,-3.0398,-3.0398,-3.1121,-3.191,-3.2718,-3.3468,-3.4334,-3.5334,-3.5334,-3.5391,-3.5493,-3.5391,-3.5334,-3.5334,-3.5449,-3.5493,-3.5493,-3.5493,-3.5493,-3.5493,-3.5493,-3.5493,-3.5512,-3.5622,-3.6161,-3.6988,-3.7853,-3.8719,-3.9546,-4.0258,-4.0356,-4.0139,-4.0101,-3.9668,-3.9178,-3.9107,-4.0023,-4.1111,-4.1158,-4.2349,-4.3582,-4.3582,-4.3582,-4.3548,-4.3513,-4.3497,-4.3497,-4.3497,-4.3497,-4.3497,-4.3497,-4.3497,-4.3497,-4.3497,-4.3497,-4.3497,-4.3497,-4.3497,-4.3497,-4.3497,-4.3497,-4.3497,-4.3497,-4.3497,-4.3497,-4.3497,-4.3497,-4.3497,-4.3497,-4.3589,-4.3975,-4.4672,-4.4929,-4.5039,-4.5039,-4.7186,-4.7921,-4.7113,-4.7921,-4.8306,-4.8306,-4.8306,-4.8306,-3.2614,-3.4137,-3.522,0.0,-3.6615,-3.6064,-3.5192,0.0,-3.4357,-3.3899,-3.3358,-3.2948,-3.2804,-3.2311,-3.1819,-3.1487,-3.0945,-3.0619,-3.077,-3.0561,-3.0398,-3.0398,-3.0398,-3.0398,-3.0398,-3.0398,-3.0398,-3.0398,-3.0398,-3.0398,-3.0398,-3.0756,-3.1564,-3.2852,-3.2833,-3.343,-3.4757,-3.4776,-3.4776,-3.4776,-3.5276,-3.5238,-3.4795,-3.5276,-3.5493,-3.5493,-3.5493,-3.5493,-3.5493,-3.5493,-3.5493,-3.5493,-3.5493,-3.5988,-3.6815,-3.768,-3.8431,-3.9139,-3.998,-4.0081,-3.9797,-3.9599,-3.9339,-3.9072,-3.8923,-3.9915,-4.1111,-4.1111,-4.2268,-4.3497,-4.3497,-4.3497,-4.3497,-4.3497,-4.3497,-4.3497,-4.3497,-4.3497,-4.3497,-4.3497,-4.3497,-4.3497,-4.3497,-4.3497,-4.3497,-4.3497,-4.3497,-4.3497,-4.3497,-4.3497,-4.3497,-4.3497,-4.3497,-4.3497,-4.3497,-4.3497,-4.3497,-4.3497,-4.3497,-4.3644,-4.4011,-4.447,-4.4488,-4.403,-4.6416,-4.7241,-4.6434,-4.77,-4.8306,-4.8306,-4.8306,-4.8306,0.0,0.0,-3.4045,-3.6303,-3.6578,-3.6174,0.0,0.0,-3.4825,0.0,-3.3622,-3.3068,-3.2658,-3.2214,-3.1686,-3.109,-3.0614,-3.0357,-3.0393,-3.0398,-3.0398,-3.0398,-3.0398,-3.0398,-3.0398,-3.0398,-3.0398,-3.0398,-3.0398,-3.0398,-3.0398,-3.0609,-3.1295,-3.2564,-3.2218,-3.2602,-3.3853,-3.4083,-3.4199,-3.4199,-3.5084,-3.5161,-3.4545,-3.5199,-3.5493,-3.5493,-3.5493,-3.5493,-3.5493,-3.5493,-3.5493,-3.5493,-3.5493,-3.5872,-3.6512,-3.7506,-3.8125,-3.8613,-3.9622,-3.9754,-3.9414,-3.9186,-3.9044,-3.8961,-3.8762,-3.9827,-4.1111,-4.1111,-4.2268,-4.3497,-4.3497,-4.3497,-4.3497,-4.3497,-4.3497,-4.3497,-4.3497,-4.3497,-4.3497,-4.3497,-4.3497,-4.3497,-4.3497,-4.3497,-4.3497,-4.3497,-4.3497,-4.3497,-4.3497,-4.3497,-4.3497,-4.3497,-4.3497,-4.3497,-4.3497,-4.3497,-4.3497,-4.3497,-4.3497,-4.3497,-4.3497,-4.4085,-4.4103,-4.3497,-4.548,-4.6305,-4.5902,-4.7315,-4.8104,-4.8306,-4.8306,-4.8306,0.0,-3.1531,0.0,-3.4715,-3.5734,0.0,0.0,0.0,-3.499,-3.4935,-3.4302,-3.3521,-3.2742,-3.2315,-3.192,-3.1369,-3.1245,-3.1049,-3.047,-3.0398,-3.0398,-3.0398,-3.0398,-3.0398,-3.0398,-3.0398,-3.0398,-3.0398,-3.0398,-3.0398,-3.0398,-3.1179,-3.1679,-3.1756,-3.2468,-3.2872,-3.2968,-3.3795,-3.4199,-3.4199,-3.5084,-3.5488,-3.543,-3.5488,-3.5493,-3.5493,-3.5493,-3.5493,-3.5493,-3.5493,-3.5493,-3.5493,-3.5493,-3.5545,-3.5729,-3.7041,-3.7545,-3.7757,-3.9145,-3.9408,-3.9107,-3.9125,-3.8952,-3.8719,-3.8707,-3.9827,-4.1111,-4.1111,-4.2268,-4.3497,-4.3497,-4.3497,-4.3497,-4.3497,-4.3497,-4.3497,-4.3497,-4.3497,-4.3497,-4.3497,-4.3497,-4.3497,-4.3497,-4.3497,-4.3497,-4.3497,-4.3497,-4.3497,-4.3497,-4.3497,-4.3497,-4.3497,-4.3497,-4.3497,-4.3497,-4.3497,-4.3497,-4.3497,-4.3497,-4.3497,-4.3497,-4.3534,-4.3534,-4.3497,-4.4378,-4.5186,-4.5902,-4.6764,-4.7572,-4.8306,-4.8306,-4.8306,0.0,0.0,0.0,-3.4458,-3.5661,-3.6376,-3.6652,-3.6652,-3.6303,-3.521,-3.4752,-3.4339,-3.3532,-3.2993,-3.2449,-3.1748,-3.1442,-3.1234,-3.1021,-3.0631,-3.0398,-3.0398,-3.0398,-3.0398,-3.0398,-3.0398,-3.0398,-3.0398,-3.0398,-3.0398,-3.0398,-3.0698,-3.1121,-3.1679,-3.1448,-3.1564,-3.2122,-3.2949,-3.3641,-3.4199,-3.5084,-3.5493,-3.5493,-3.5493,-3.5493,-3.5493,-3.5493,-3.5493,-3.5493,-3.5493,-3.5398,-3.5273,-3.5432,-3.5383,-3.5433,-3.6934,-3.7395,-3.7438,-3.8801,-3.9082,-3.8844,-3.8844,-3.8792,-3.8707,-3.8707,-3.9827,-4.1111,-4.1111,-4.2268,-4.3497,-4.3497,-4.3497,-4.3497,-4.3497,-4.3497,-4.3497,-4.3497,-4.3497,-4.3497,-4.3497,-4.3497,-4.3497,-4.3497,-4.3497,-4.3497,-4.3497,-4.3497,-4.3497,-4.3497,-4.3497,-4.3497,-4.3497,-4.3497,-4.3497,-4.3497,-4.3497,-4.3497,-4.3497,-4.3497,-4.3497,-4.3497,-4.3993,-4.4268,-4.4268,-4.5057,-4.5608,-4.5902,-4.6728,-4.7517,-4.8306,-4.8306,-4.8306,-2.8888,-3.0173,0.0,0.0,0.0,-3.5422,-3.6798,0.0,-3.6505,-3.5954,-3.5375,-3.4825,-3.4302,-3.3688,-3.303,-3.2329,-3.2011,-3.1745,-3.1343,-3.0958,-3.0625,-3.0417,-3.0398,-3.0398,-3.0398,-3.0398,-3.0398,-3.0398,-3.0398,0.0,-3.0398,-3.0398,-3.0679,-3.1256,-3.0698,-3.0679,-3.1256,-3.2352,-3.3179,-3.3776,-3.4949,-3.5493,-3.5493,-3.5493,-3.5493,-3.5493,-3.5493,-3.5493,-3.5493,-3.5493,-3.5403,-3.5239,-3.532,-3.5273,-3.5278,-3.6709,-3.7125,-3.7159,-3.8497,-3.8844,-3.8707,-3.8707,-3.8707,-3.8707,-3.8707,-3.9827,-4.1111,-4.1111,-4.2268,-4.3497,-4.3497,-4.3497,-4.3497,-4.3497,-4.3497,-4.3497,-4.3497,-4.3497,-4.3497,-4.3497,-4.3497,-4.3497,-4.3497,-4.3497,-4.3497,-4.3497,-4.3497,-4.3497,-4.3497,-4.3497,-4.3497,-4.3497,-4.3497,-4.3497,-4.3497,-4.3497,-4.3497,-4.3497,-4.3497,-4.3497,-4.3497,-4.4268,-4.4709,-4.4709,-4.5498,-4.603,-4.6305,-4.6856,-4.7517,-4.8306,-4.8306,-4.8306,0.0,0.0,0.0,0.0,0.0,0.0,-3.7643,0.0,-3.5459,-3.711,-3.6156,-3.499,-3.499,-3.4376,-3.3674,-3.3115,-3.2994,-3.2598,-3.1523,-3.134,-3.1092,-3.0508,-3.0436,-3.0417,-3.0398,-3.0398,-3.0398,-3.0398,-3.0398,-3.0398,-3.0398,-3.0398,-3.0398,-3.0398,-3.0398,-3.0398,-3.0398,-3.2064,-3.2891,-3.291,-3.468,-3.5493,-3.5493,-3.5493,-3.5493,-3.5493,-3.5493,-3.5493,-3.5493,-3.5493,-3.5493,-3.5446,-3.5207,-3.5105,-3.5226,-3.6316,-3.6708,-3.6898,-3.8239,-3.8707,-3.8707,-3.8707,-3.8707,-3.8707,-3.8726,-3.9845,-4.1111,-4.1148,-4.2286,-4.3497,-4.3497,-4.3497,-4.3497,-4.3497,-4.3497,-4.3497,-4.3497,-4.3497,-4.3497,-4.3497,-4.3497,-4.3497,-4.3497,-4.3497,-4.3497,-4.3497,-4.3497,-4.3497,-4.3497,-4.3497,-4.3497,-4.3497,-4.3497,-4.3497,-4.3497,-4.3497,-4.3497,-4.3497,-4.3497,-4.3497,-4.3516,-4.4305,-4.4764,-4.4782,-4.5571,-4.6361,-4.715,-4.7131,-4.7517,-4.8306,-4.8306,-4.8306,-2.7732,0.0,0.0,0.0,0.0,0.0,0.0,0.0,-3.4614,-3.6285,-3.5771,-3.499,-3.499,-3.4807,-3.444,-3.3692,-3.3247,-3.2896,-3.2564,-3.2146,-3.1667,-3.113,-3.1064,-3.0891,-3.0444,-3.0398,-3.0398,0.0,-3.0398,-3.0398,-3.0398,-3.0398,-3.0398,-3.0398,-3.0398,-3.0398,-3.0398,-3.2064,-3.2891,-3.291,-3.468,-3.5493,-3.5493,-3.5493,-3.5493,-3.5493,-3.5493,-3.5383,-3.5207,-3.5207,-3.5105,-3.4944,-3.5034,-3.4981,-3.4982,-3.6453,-3.6986,-3.7159,-3.8309,-3.8707,-3.8707,-3.8707,-3.8707,-3.8817,-3.9386,-4.0304,-4.124,-4.1809,-4.2708,-4.3497,-4.3497,-4.3497,-4.3497,-4.3497,-4.3497,-4.3497,-4.3497,-4.3497,-4.3497,-4.3497,-4.3497,-4.3497,-4.3497,-4.3497,-4.3497,-4.3497,-4.3497,-4.3497,-4.3497,-4.3497,-4.3497,-4.3497,-4.3497,-4.3497,-4.3497,-4.3497,-4.3497,-4.3497,-4.3497,-4.3754,-4.4342,-4.5149,-4.5847,-4.6434,-4.7241,-4.7755,-4.7976,-4.7388,-4.7517,-4.8306,-4.8306,-4.8306,-2.7879,-2.8631,-2.9769,-3.0925,0.0,0.0,-3.4229,-3.4045,-3.3972,0.0,-3.5844,-3.51,-3.5495,-3.4981,-3.4357,-3.388,-3.3541,-3.3265,-3.3032,-3.2705,-3.2276,-3.1688,-3.1627,-3.1556,-3.1306,-3.1282,-3.1322,-3.1436,-3.1448,-3.1295,-3.0968,-3.1256,-3.1121,-3.0417,-3.0756,-3.0948,-3.0948,-3.2237,-3.3083,-3.3449,-3.4853,-3.5493,-3.5493,-3.5493,-3.5493,-3.5493,-3.5493,-3.5354,-3.5088,-3.4981,-3.4832,-3.4694,-3.4715,-3.4842,-3.518,-3.6347,-3.6988,-3.7396,-3.8379,-3.8707,-3.8707,-3.8707,-3.8707,-3.8854,-3.9662,-4.0469,-4.1277,-4.2066,-4.2873,-4.3497,-4.3497,-4.3497,-4.3497,-4.3497,-4.3497,-4.3497,-4.3497,-4.3497,-4.3497,-4.3497,-4.3497,-4.3497,-4.3497,-4.3497,-4.3497,-4.3497,-4.3497,-4.3497,-4.3497,-4.3497,-4.3497,-4.3497,-4.3497,-4.3497,-4.3497,-4.3497,-4.3497,-4.3497,-4.3497,-4.3864,-4.4672,-4.548,-4.6287,-4.7095,-4.7902,-4.8306,-4.8306,-4.7847,-4.7847,-4.8306,-4.8306,-4.8306,-2.8393,-2.931,-3.0779,-3.2027,-3.1458,0.0,-3.4853,-3.399,-3.333,0.0,-3.5697,-3.4871,-3.5734,-3.4743,-3.3733,-3.355,-3.3752,-3.3721,-3.3165,-3.3101,-3.2858,-3.2256,-3.2202,-3.2279,-3.2483,-3.2496,-3.2607,-3.2878,-3.2891,-3.2583,-3.1872,-3.2506,-3.2218,-3.0706,-3.1429,-3.1833,-3.1833,-3.2641,-3.343,-3.4199,-3.5084,-3.5493,-3.5493,-3.5493,-3.5493,-3.5493,-3.5479,-3.5304,-3.5034,-3.4754,-3.4653,-3.4614,-3.4334,-3.474,-3.5566,-3.6122,-3.6838,-3.7647,-3.8414,-3.8707,-3.8707,-3.8707,-3.8707,-3.8872,-3.9753,-4.0524,-4.1295,-4.2176,-4.2947,-4.3497,-4.3497,-4.3497,-4.3497,-4.3497,-4.3497,-4.3497,-4.3497,-4.3497,-4.3497,-4.3497,-4.3497,-4.3497,-4.3497,-4.3497,-4.3497,-4.3497,-4.3497,-4.3497,-4.3497,-4.3497,-4.3497,-4.3497,-4.3497,-4.3497,-4.3497,-4.3497,-4.3497,-4.3497,-4.3571,-4.3993,-4.48,-4.5608,-4.6416,-4.7241,-4.7957,-4.8306,-4.8306,-4.8306,-4.8306,-4.8306,-4.8306,-4.8306,-3.0723,-3.1403,-3.1916,-3.0925,-3.1898,0.0,-3.1641,-3.1513,-3.199,0.0,-3.2779,-3.2357,-3.3183,-3.3587,-3.3385,-3.2063,-3.3513,-3.4486,-3.3758,-3.3629,-3.3444,-3.2896,-3.2806,-3.2741,-3.2523,-3.2496,-3.2607,-3.2878,-3.2891,-3.2833,-3.2679,-3.2814,-3.2756,-3.2429,-3.2583,-3.2679,-3.2679,-3.3526,-3.4026,-3.4199,-3.5084,-3.5493,-3.5493,-3.5493,-3.5493,-3.5493,-3.5273,-3.5035,-3.4754,-3.4423,-3.4311,-3.4288,-3.4242,-3.474,-3.5597,-3.6333,-3.7124,-3.7905,-3.8486,-3.8707,-3.8707,-3.8707,-3.8707,-3.8982,-4.0432,-4.0983,-4.1405,-4.2855,-4.3369,-4.3497,-4.3497,-4.3497,-4.3497,-4.3497,-4.3497,-4.3497,-4.3497,-4.3497,-4.3497,-4.3497,-4.3497,-4.3497,-4.3497,-4.3497,-4.3497,-4.3497,-4.3497,-4.3497,-4.3497,-4.3497,-4.3497,-4.3497,-4.3497,-4.3497,-4.3497,-4.3497,-4.3497,-4.3497,-4.4103,-4.4837,-4.5626,-4.6452,-4.726,-4.8067,-4.8233,-4.8306,-4.8306,-4.8306,-4.8306,-4.8306,-4.8306,-4.8306,-3.1513,-3.199,-3.2504,-3.21,-3.2302,0.0,0.0,-3.1384,-3.1256,-3.2871,-3.2247,-3.177,-3.2981,-3.2871,-3.2467,-3.2063,-3.3348,-3.4266,-3.3862,-3.4523,-3.4798,-3.4065,-3.3998,-3.3826,-3.3408,-3.3507,-3.3775,-3.4172,-3.4199,-3.4007,-3.3564,-3.3968,-3.3795,-3.2929,-3.3314,-3.3545,-3.3545,-3.3968,-3.441,-3.4853,-3.5295,-3.5493,-3.5493,-3.5493,-3.5432,-3.5289,-3.5174,-3.4851,-3.4423,-3.4269,-3.4123,-3.4012,-3.4012,-3.4789,-3.5954,-3.6334,-3.7258,-3.8338,-3.8621,-3.8707,-3.8707,-3.8707,-3.8707,-3.9001,-4.0616,-4.1662,-4.247,-4.3259,-4.3497,-4.3497,-4.3497,-4.3497,-4.3497,-4.3497,-4.3497,-4.3497,-4.3497,-4.3497,-4.3497,-4.3497,-4.3497,-4.3497,-4.3497,-4.3497,-4.3497,-4.3497,-4.3497,-4.3497,-4.3497,-4.3497,-4.3497,-4.3497,-4.3497,-4.3497,-4.3497,-4.3497,-4.3497,-4.3497,-4.3883,-4.4635,-4.5847,-4.6287,-4.7076,-4.8288,-4.8306,-4.8306,-4.8306,-4.8306,-4.8306,-4.8306,-4.7902,-4.7719,-3.1806,-3.2228,-3.2926,-3.3256,-3.2706,-3.2228,0.0,0.0,0.0,0.0,0.0,0.0,0.0,0.0,0.0,0.0,0.0,0.0,0.0,-3.5147,0.0,-3.4908,-3.4899,-3.4805,-3.434,-3.4484,-3.4845,-3.546,-3.5353,-3.5026,-3.4468,-3.5122,-3.4853,-3.3449,-3.4083,-3.4449,-3.4449,-3.4449,-3.4795,-3.5493,-3.5493,-3.5493,-3.5493,-3.5446,-3.5304,-3.5088,-3.4981,-3.4656,-3.4218,-3.4147,-3.4012,-3.3807,-3.3807,-3.4816,-3.6303,-3.6303,-3.7312,-3.8707,-3.8707,-3.8707,-3.8707,-3.8707,-3.8909,-3.9405,-4.0726,-4.2213,-4.3497,-4.3497,-4.3497,-4.3497,-4.3497,-4.3497,-4.3497,-4.3497,-4.3497,-4.3497,-4.3497,-4.3497,-4.3497,-4.3497,-4.3497,-4.3497,-4.3497,-4.3497,-4.3497,-4.3497,-4.3497,-4.3497,-4.3497,-4.3497,-4.3497,-4.3497,-4.3497,-4.3497,-4.3497,-4.3497,-4.3497,-4.3497,-4.3644,-4.4305,-4.5626,-4.5975,-4.6819,-4.8269,-4.8306,-4.8306,-4.8306,-4.8306,-4.8306,-4.8288,-4.748,-4.7113,-3.2504,-3.3054,-3.333,-3.2008,-3.3146,-3.3707,-3.0314,0.0,-3.1806,-2.9934,0.0,0.0,0.0,0.0,0.0,0.0,0.0,0.0,-3.2852,-3.4798,-3.5716,-3.4119,-3.4578,-3.4911,-3.4666,-3.4399,-3.4601,-3.5435,-3.4776,-3.4641,-3.5334,-3.5449,-3.5411,-3.5218,-3.5315,-3.5353,-3.5353,-3.5353,-3.5411,-3.5493,-3.5493,-3.5493,-3.5493,-3.5239,-3.5122,-3.507,-3.4534,-3.4269,-3.4176,-3.3935,-3.3815,-3.3807,-3.3807,-3.4816,-3.6303,-3.6303,-3.7312,-3.8707,-3.8707,-3.8707,-3.8707,-3.8707,-3.9662,-4.0873,-4.1056,-4.2213,-4.3497,-4.3497,-4.3497,-4.3497,-4.3497,-4.3497,-4.3497,-4.3497,-4.3497,-4.3497,-4.3497,-4.3497,-4.3497,-4.3497,-4.3497,-4.3497,-4.3497,-4.3497,-4.3497,-4.3497,-4.3497,-4.3497,-4.3497,-4.3497,-4.3497,-4.3497,-4.3497,-4.3497,-4.3497,-4.3497,-4.3497,-4.3497,-4.4176,-4.4654,-4.4837,-4.6232,-4.7407,-4.8288,-4.8306,-4.8306,-4.8306,-4.8306,-4.8306,-4.8288,-4.748,-4.7113,-3.2614,-3.3201,-3.3642,-3.2963,-3.2852,-3.2596,-3.1384,-3.0772,-3.0503,-3.0411,0.0,0.0,0.0,0.0,0.0,0.0,-3.1219,0.0,0.0,0.0,-3.4761,0.0,0.0,0.0,-3.4965,-3.4814,-3.4936,-3.5455,-3.5161,-3.5315,-3.6161,-3.6199,-3.6199,-3.6199,-3.5738,-3.5493,-3.5493,-3.5493,-3.5493,-3.5493,-3.5493,-3.5493,-3.5493,-3.5223,-3.5035,-3.4832,-3.4383,-3.4099,-3.3961,-3.3842,-3.3807,-3.3844,-3.4321,-3.5238,-3.6303,-3.6303,-3.7312,-3.8707,-3.8707,-3.8707,-3.8707,-3.8707,-3.979,-4.1111,-4.1111,-4.2213,-4.3497,-4.3497,-4.3497,-4.3497,-4.3497,-4.3497,-4.3497,-4.3497,-4.3497,-4.3497,-4.3497,-4.3497,-4.3497,-4.3497,-4.3497,-4.3497,-4.3497,-4.3497,-4.3497,-4.3497,-4.3497,-4.3497,-4.3497,-4.3497,-4.3497,-4.3497,-4.3497,-4.3497,-4.3497,-4.3497,-4.3497,-4.3497,-4.4268,-4.4709,-4.4709,-4.581,-4.6562,-4.6911,-4.7388,-4.7609,-4.7609,-4.8086,-4.8067,-4.759,-4.6783,-4.6416,-3.2614,-3.3036,-3.3421,-3.3201,-3.2247,-3.1439,-3.1586,-3.0613,-2.9861,-3.0595,-3.0338,0.0,0.0,0.0,-2.9457,-2.9824,0.0,-3.1146,0.0,-3.2412,0.0,0.0,0.0,0.0,0.0,-3.4735,-3.4868,-3.5762,-3.5411,-3.5699,-3.6988,-3.7065,-3.6949,-3.6719,-3.6142,-3.5718,-3.5493,-3.5493,-3.5493,-3.5493,-3.5493,-3.546,-3.5383,-3.5105,-3.4832,-3.4551,-3.4218,-3.3986,-3.3807,-3.3807,-3.3807,-3.388,-3.4679,-3.5532,-3.6321,-3.6541,-3.7514,-3.8707,-3.8707,-3.8707,-3.8744,-3.8964,-3.9974,-4.1148,-4.1368,-4.2396,-4.3497,-4.3497,-4.3497,-4.3497,-4.3497,-4.3497,-4.3497,-4.3497,-4.3497,-4.3497,-4.3497,-4.3497,-4.3497,-4.3497,-4.3497,-4.3497,-4.3497,-4.3497,-4.3497,-4.3497,-4.3497,-4.3497,-4.3497,-4.3497,-4.3497,-4.3497,-4.3497,-4.3497,-4.3497,-4.3497,-4.3497,-4.3497,-4.4048,-4.447,-4.4709,-4.5259,-4.5663,-4.5902,-4.6471,-4.6783,-4.6783,-4.737,-4.7352,-4.6764,-4.6177,-4.5773,-3.2614,-3.2632,-3.2449,-3.1659,-3.1421,-3.0999,-2.9452,-3.0265,-3.0889,-2.9402,-3.0907,-3.1788,-2.9452,-2.9659,-2.9934,-2.914,-2.9714,0.0,0.0,0.0,0.0,0.0,0.0,0.0,0.0,-3.3806,-3.3993,0.0,-3.5161,-3.5334,-3.7834,-3.7969,-3.7565,-3.6738,-3.668,-3.6295,-3.5526,-3.5493,-3.5493,-3.5493,-3.5493,-3.5369,-3.5105,-3.4851,-3.4529,-3.42,-3.3928,-3.3807,-3.3807,-3.3807,-3.3807,-3.388,-3.4679,-3.5532,-3.6376,-3.7165,-3.7973,-3.8707,-3.8707,-3.8707,-3.8836,-3.9606,-4.0414,-4.1258,-4.2029,-4.2837,-4.3497,-4.3497,-4.3497,-4.3497,-4.3497,-4.3497,-4.3497,-4.3497,-4.3497,-4.3497,-4.3497,-4.3497,-4.3497,-4.3497,-4.3497,-4.3497,-4.3497,-4.3497,-4.3497,-4.3497,-4.3497,-4.3497,-4.3497,-4.3497,-4.3497,-4.3497,-4.3497,-4.3497,-4.3497,-4.3497,-4.3497,-4.3497,-4.3516,-4.3883,-4.4672,-4.4727,-4.5112,-4.5883,-4.592,-4.5938,-4.5938,-4.5957,-4.5957,-4.5938,-4.5902,-4.548,0.0,0.0,-3.3201,-3.2394,-3.1788,-3.1256,-3.0705,-3.0595,-3.0595,-3.0595,-3.1237,-3.1549,-3.0742,-3.0797,-3.0723,-2.9934,-3.0026,-3.0118,0.0,-3.0265,0.0,0.0,0.0,0.0,0.0,0.0,0.0,-3.6603,-3.618,-3.6738,-3.8738,-3.8854,-3.8719,-3.843,-3.7296,-3.6584,-3.6315,-3.5776,-3.5493,-3.5493,-3.532,-3.519,-3.5088,-3.4595,-3.4311,-3.4195,-3.3928,-3.3807,-3.3807,-3.3807,-3.3807,-3.3935,-3.533,-3.6046,-3.6395,-3.7184,-3.801,-3.8707,-3.8707,-3.8707,-3.8836,-3.9643,-4.0451,-4.1258,-4.2066,-4.2855,-4.3497,-4.3497,-4.3497,-4.3497,-4.3497,-4.3497,-4.3497,-4.3497,-4.3497,-4.3497,-4.3497,-4.3497,-4.3497,-4.3497,-4.3497,-4.3497,-4.3497,-4.3497,-4.3497,-4.3497,-4.3497,-4.3497,-4.3497,-4.3497,-4.3497,-4.3497,-4.3497,-4.3497,-4.3497,-4.3497,-4.3497,-4.3497,-4.3497,-4.3608,-4.3883,-4.3901,-4.403,-4.4305,-4.4837,-4.5112,-4.5112,-4.5645,-4.5626,-4.5112,-4.5112,-4.4966,-3.2173,-3.2559,0.0,-3.2302,-3.177,-3.1329,-3.1035,-3.1017,-3.1035,-3.098,-3.1659,-3.2063,-3.1494,-3.1384,-3.1127,-3.0338,-2.9971,-2.9604,0.0,-2.9953,-3.0691,0.0,0.0,0.0,0.0,0.0,-3.5757,-3.7488,-3.7046,-3.7584,0.0,-3.9719,-3.9604,-3.9296,-3.82,-3.7334,-3.6719,-3.6199,-3.5734,-3.5354,-3.519,-3.4999,-3.4774,-3.4383,-3.4147,-3.4043,-3.3895,-3.3807,-3.3807,-3.3807,-3.3807,-3.3972,-3.5642,-3.6303,-3.6431,-3.7514,-3.8248,-3.8707,-3.8707,-3.8707,-3.8891,-3.9974,-4.0689,-4.1313,-4.2396,-4.3075,-4.3497,-4.3497,-4.3497,-4.3497,-4.3497,-4.3497,-4.3497,-4.3497,-4.3497,-4.3497,-4.3497,-4.3497,-4.3497,-4.3497,-4.3497,-4.3497,-4.3497,-4.3497,-4.3497,-4.3497,-4.3497,-4.3497,-4.3497,-4.3497,-4.3497,-4.3497,-4.3497,-4.3497,-4.3497,-4.3497,-4.3497,-4.3497,-4.3497,-4.3497,-4.3497,-4.3497,-4.3497,-4.3497,-4.4011,-4.4268,-4.4268,-4.4782,-4.4782,-4.4268,-4.4268,-4.4268]}]]